Date StartTime U_cm/s V_cm/s W_cm/s Ustd_cm/s Vstd_cm/s Wstd_cm/s Uvar_(cm/s)^2 Vvar_(cm/s)^2 Wvar_(cm/s)^2 KE_(m/s)^2 TurbulentKE_(m/s)^2 HorizWindSpeed_cm/s FrictionSpeec_cm/s DragCoef SpeedOfSound_m/s SonicTemperature_C Pressure_mb 
10/28/2014  00:00:00      -79.688      -34.398       -1.647       35.531       30.234       16.855     1262.430      914.078      284.085        0.500        0.123       86.795       15.492        0.032      335.315        5.864      863.810
10/28/2014  00:01:00      -99.729      -41.003       -6.891       24.738       25.867       17.382      611.952      669.095      302.123        0.663        0.079      107.829        8.084        0.006      335.286        5.818      863.784
10/28/2014  00:02:00      -84.987      -52.938      -10.738       41.634       24.890       16.017     1733.351      619.525      256.557        0.637        0.130      100.126       10.042        0.010      335.227        5.719      863.765
10/28/2014  00:03:00      -65.404      -45.213       -4.124       28.383       18.369       12.218      805.614      337.414      149.270        0.382        0.065       79.511        2.916        0.001      335.229        5.723      863.763
10/28/2014  00:04:00      -66.100      -43.843       -2.491       37.138       20.775       14.025     1379.258      431.619      196.706        0.415        0.100       79.319       19.584        0.061      335.211        5.694      863.774
10/28/2014  00:05:00      -89.847      -54.164       -2.885       26.943       25.134       16.046      725.938      631.736      257.485        0.631        0.081      104.911       11.027        0.011      335.202        5.678      863.787
10/28/2014  00:06:00      -84.528      -52.694       -1.711       27.198       21.984       14.036      739.734      483.277      197.019        0.567        0.071       99.608       14.157        0.020      335.172        5.629      863.807
10/28/2014  00:07:00      -49.120      -38.296        8.845       44.718       24.291       24.923     1999.710      590.037      621.148        0.358        0.161       62.284       25.438        0.167      335.159        5.608      863.826
10/28/2014  00:08:00      -29.089      -31.175       10.106       42.416       27.404       20.389     1799.128      751.000      415.710        0.244        0.148       42.638       22.694        0.283      335.160        5.609      863.827
10/28/2014  00:09:00      -41.914      -43.584       10.078       32.591       25.689       16.002     1062.173      659.916      256.063        0.287        0.099       60.468       13.233        0.048      335.120        5.542      863.819
10/28/2014  00:10:00      -69.915      -51.754        5.095       32.216       22.637       15.391     1037.864      512.421      236.884        0.469        0.089       86.986       12.405        0.020      335.218        5.704      863.825
10/28/2014  00:11:00      -48.075      -28.651        8.784       48.732       26.441       20.341     2374.759      699.126      413.749        0.335        0.174       55.965       18.426        0.108      335.211        5.692      863.845
10/28/2014  00:12:00      -57.901      -44.402        0.098       36.940       27.720       21.300     1364.528      768.411      453.694        0.395        0.129       72.966       18.739        0.066      335.159        5.607      863.866
10/28/2014  00:13:00      -83.498      -63.399       -2.712       37.451       35.128       21.706     1402.604     1233.998      471.161        0.705        0.155      104.840       20.882        0.040      335.151        5.594      863.876
10/28/2014  00:14:00      -71.472      -48.510        5.639       42.763       33.009       23.665     1828.689     1089.572      560.020        0.549        0.174       86.380       15.855        0.034      335.118        5.541      863.880
10/28/2014  00:15:00      -45.409      -52.003        7.502       44.435       36.359       29.486     1974.445     1321.982      869.419        0.449        0.208       69.039       24.073        0.122      335.114        5.533      863.890
10/28/2014  00:16:00      -64.071      -75.687        8.619       48.692       53.687       23.467     2370.950     2882.278      550.692        0.785        0.290       99.165       26.395        0.071      335.083        5.482      863.895
10/28/2014  00:17:00      -85.322     -118.438       -3.566       46.998       59.550       38.702     2208.799     3546.176     1497.881        1.428        0.363      145.970       34.786        0.057      334.995        5.335      863.884
10/28/2014  00:18:00     -105.773     -108.880        3.806       61.960       39.384       37.608     3839.077     1551.107     1414.351        1.493        0.340      151.799       34.509        0.052      334.916        5.203      863.876
10/28/2014  00:19:00     -111.299     -149.369      -11.337       62.462       40.478       24.978     3901.516     1638.445      623.888        2.049        0.308      186.275       29.292        0.025      334.842        5.080      863.870
10/28/2014  00:20:00     -104.727     -107.118       -2.820       49.029       51.398       33.153     2403.818     2641.729     1099.096        1.430        0.307      149.807       23.796        0.025      334.842        5.083      863.869
10/28/2014  00:21:00     -120.980     -113.922       -9.248       36.077       62.310       24.276     1301.556     3882.487      589.304        1.674        0.289      166.176       12.480        0.006      334.855        5.103      863.867
10/28/2014  00:22:00     -122.982     -104.091       -9.022       32.616       37.712       21.755     1063.817     1422.207      473.268        1.450        0.148      161.120       14.252        0.008      334.893        5.166      863.877
10/28/2014  00:23:00     -100.876      -50.686        3.687       46.372       32.447       23.049     2150.354     1052.828      531.254        0.825        0.187      112.894       18.781        0.028      334.916        5.205      863.892
10/28/2014  00:24:00      -50.085      -54.577       11.598       36.494       32.686       26.773     1331.801     1068.379      716.819        0.437        0.156       74.076       18.400        0.062      334.966        5.288      863.898
10/28/2014  00:25:00      -57.626      -55.379       12.454       44.233       34.570       21.108     1956.551     1195.059      445.539        0.507        0.180       79.922       22.328        0.078      334.948        5.257      863.885
10/28/2014  00:26:00      -83.767      -71.848       -5.715       31.161       32.993       21.210      971.021     1088.567      449.863        0.736        0.125      110.359       17.436        0.025      334.914        5.201      863.862
10/28/2014  00:27:00      -79.202      -79.281       -0.198       43.709       34.311       24.015     1910.440     1177.229      576.715        0.811        0.183      112.065       25.204        0.051      334.861        5.113      863.849
10/28/2014  00:28:00     -117.112      -61.363       -0.352       34.010       34.067       20.476     1156.650     1160.564      419.255        1.011        0.137      132.214       19.096        0.021      334.878        5.140      863.860
10/28/2014  00:29:00     -114.685      -57.939       -5.184       36.397       21.310       19.187     1324.763      454.113      368.148        0.934        0.107      128.490       18.345        0.020      334.880        5.145      863.886
10/28/2014  00:30:00      -93.603      -48.231       -1.504       25.599       18.826       16.200      655.298      354.418      262.430        0.618        0.064      105.299       13.911        0.017      334.856        5.104      863.904
10/28/2014  00:31:00      -71.608      -40.701        0.817       37.647       21.727       14.832     1417.313      472.082      219.998        0.445        0.105       82.367       20.468        0.062      334.882        5.148      863.906
10/28/2014  00:32:00      -75.875      -39.754       -0.380       24.463       21.209       12.938      598.445      449.802      167.402        0.428        0.061       85.658       10.422        0.015      334.868        5.126      863.900
10/28/2014  00:33:00      -60.066      -40.190       -3.489       22.499       19.405       10.297      506.204      376.556      106.031        0.311        0.049       72.271        8.428        0.014      334.924        5.219      863.900
10/28/2014  00:34:00      -76.436      -23.696       -2.635       11.617       12.037        9.777      134.954      144.885       95.590        0.339        0.019       80.024        2.972        0.001      334.908        5.192      863.891
10/28/2014  00:35:00      -57.291      -21.759       -0.744        9.614       15.371       12.271       92.433      236.274      150.571        0.212        0.024       61.284        4.917        0.006      334.887        5.156      863.896
10/28/2014  00:36:00      -60.761      -10.449       -0.782       19.933       11.972       14.331      397.305      143.335      205.378        0.227        0.037       61.653       12.055        0.038      334.864        5.119      863.904
10/28/2014  00:37:00     -106.380       -9.138      -13.094       16.199       12.557        9.226      262.416      157.672       85.124        0.604        0.025      106.772        6.603        0.004      334.846        5.087      863.919
10/28/2014  00:38:00     -109.599      -37.118       -7.382       19.403       17.184       13.425      376.494      295.291      180.225        0.715        0.043      115.714       10.661        0.008      334.862        5.115      863.921
10/28/2014  00:39:00      -89.602      -23.310       -1.968       20.606       21.333       14.038      424.613      455.112      197.063        0.483        0.054       92.585       11.202        0.015      334.803        5.018      863.909
10/28/2014  00:40:00      -71.631      -41.255       -0.985       24.100       18.437       10.609      580.805      339.928      112.560        0.393        0.052       82.661        6.762        0.007      334.831        5.063      863.893
10/28/2014  00:41:00      -61.404      -31.858       -3.501       27.875       19.009       15.796      777.024      361.324      249.499        0.309        0.069       69.177       18.807        0.074      334.856        5.106      863.877
10/28/2014  00:42:00      -65.001       -4.474       -3.689       18.899       11.904       10.486      357.172      141.713      109.956        0.243        0.030       65.155        8.987        0.019      334.866        5.123      863.874
10/28/2014  00:43:00      -72.130      -10.237       -4.668       17.086       17.135        7.503      291.919      293.603       56.300        0.299        0.032       72.853        5.358        0.005      334.951        5.261      863.896
10/28/2014  00:44:00      -73.536      -14.915       -9.192       20.119       12.509       11.789      404.791      156.476      138.984        0.321        0.035       75.034       11.191        0.022      334.910        5.195      863.925
10/28/2014  00:45:00      -79.419      -11.335       -6.540       34.638       18.513       15.368     1199.787      342.730      236.170        0.413        0.089       80.224       17.052        0.045      334.790        4.994      863.958
10/28/2014  00:46:00      -77.065      -28.344       -5.898       27.201       17.636       13.674      739.890      311.027      186.992        0.401        0.062       82.112       11.286        0.019      334.734        4.903      863.979
10/28/2014  00:47:00      -74.567      -29.071       -9.427       24.578       19.673       12.322      604.075      387.023      151.828        0.382        0.057       80.033       12.944        0.026      334.714        4.870      863.975
10/28/2014  00:48:00      -63.924      -31.755       -7.025       16.648       17.872        9.816      277.161      319.406       96.348        0.292        0.035       71.377        5.845        0.007      334.722        4.882      863.954
10/28/2014  00:49:00      -43.742      -31.269       -7.018       17.040        9.764       10.195      290.353       95.333      103.941        0.171        0.024       53.769        7.745        0.021      334.636        4.740      863.928
10/28/2014  00:50:00      -55.553      -25.599       -5.714       12.075        9.087        7.731      145.801       82.574       59.775        0.203        0.014       61.167        4.061        0.004      334.689        4.827      863.917
10/28/2014  00:51:00      -49.934      -21.806       -3.371       17.317       12.938        8.978      299.880      167.399       80.610        0.176        0.027       54.487        9.117        0.028      334.743        4.919      863.933
10/28/2014  00:52:00      -77.915      -37.877       -0.153       27.184       20.819       13.525      738.948      433.419      182.934        0.443        0.068       86.634       10.071        0.014      334.796        5.006      863.965
10/28/2014  00:53:00      -83.696      -39.241       -1.478       19.887       22.190       13.803      395.497      492.388      190.518        0.481        0.054       92.438       10.573        0.013      334.747        4.922      863.993
10/28/2014  00:54:00      -67.705      -42.334        0.967       30.712       21.536       15.460      943.244      463.797      239.025        0.401        0.082       79.850       17.780        0.050      334.754        4.936      863.994
10/28/2014  00:55:00      -30.703      -39.876        1.952       35.420       22.767       17.852     1254.605      518.345      318.676        0.231        0.105       50.327       17.234        0.117      334.777        4.974      863.974
10/28/2014  00:56:00      -57.169      -52.419        0.051       31.679       30.976       20.622     1003.559      959.529      425.273        0.420        0.119       77.563       18.155        0.055      334.762        4.949      863.955
10/28/2014  00:57:00      -64.910      -47.952        1.247       19.836       17.265       12.350      393.455      298.086      152.531        0.368        0.042       80.701        5.778        0.005      334.798        5.008      863.946
10/28/2014  00:58:00      -51.159      -36.670        4.528       37.884       18.737       16.359     1435.189      351.060      267.612        0.302        0.103       62.944       17.694        0.079      334.815        5.036      863.965
10/28/2014  00:59:00      -26.417      -23.401        6.858       38.571       20.634       16.579     1487.736      425.746      274.875        0.174        0.109       35.291       18.551        0.276      334.761        4.948      863.974
10/28/2014  01:00:00      -82.974      -55.102        0.127       34.234       28.281       21.476     1171.998      799.816      461.198        0.618        0.122       99.604       15.142        0.023      334.732        4.899      863.978
10/28/2014  01:01:00      -91.997      -66.409       -4.991       44.892       22.406       23.300     2015.317      502.034      542.876        0.798        0.153      113.462       25.837        0.052      334.760        4.947      863.972
10/28/2014  01:02:00      -48.543      -59.895       -1.775       29.385       27.444       23.341      863.479      753.165      544.813        0.405        0.108       77.096       19.207        0.062      334.783        4.983      863.967
10/28/2014  01:03:00      -36.941      -50.003       -7.530       37.801       27.884       17.241     1428.888      777.520      297.250        0.321        0.125       62.169       14.171        0.052      334.803        5.016      863.967
10/28/2014  01:04:00      -86.079      -81.988       -7.218       41.377       41.246       25.105     1712.023     1701.222      630.275        0.911        0.202      118.876       16.805        0.020      334.783        4.984      863.986
10/28/2014  01:05:00      -84.541      -73.816       -3.932       52.746       38.631       22.911     2782.096     1492.340      524.924        0.870        0.240      112.232       24.256        0.047      334.647        4.758      864.014
10/28/2014  01:06:00     -101.869     -108.072       -1.675       33.867       30.822       22.947     1146.986      950.000      526.546        1.234        0.131      148.515       20.392        0.019      334.608        4.692      864.044
10/28/2014  01:07:00      -86.593      -68.945       -7.929       38.435       31.715       22.333     1477.227     1005.832      498.778        0.765        0.149      110.688       23.456        0.045      334.652        4.766      864.052
10/28/2014  01:08:00      -72.860      -61.922       -0.801       31.410       24.497       18.930      986.594      600.079      358.345        0.554        0.097       95.618       17.063        0.032      334.665        4.787      864.061
10/28/2014  01:09:00      -46.730      -54.856        2.078       34.643       26.368       19.055     1200.107      695.282      363.084        0.373        0.113       72.062       18.497        0.066      334.709        4.861      864.054
10/28/2014  01:10:00      -17.809      -38.579       12.088       30.913       22.389       16.941      955.637      501.275      287.010        0.185        0.087       42.491       14.578        0.118      334.713        4.868      864.069
10/28/2014  01:11:00      -88.370      -35.109       -3.715       23.767       16.363       14.944      564.868      267.764      223.318        0.506        0.053       95.089        9.977        0.011      334.679        4.812      864.087
10/28/2014  01:12:00      -81.663      -41.813       -0.453       30.793       23.036       20.589      948.181      530.642      423.912        0.516        0.095       91.746       14.590        0.025      334.648        4.759      864.092
10/28/2014  01:13:00      -75.859      -44.856        0.521       37.044       35.888       16.453     1372.246     1287.961      270.716        0.535        0.147       88.128       10.430        0.014      334.605        4.687      864.081
10/28/2014  01:14:00      -83.720      -62.771        1.375       29.547       28.072       21.555      873.006      788.064      464.633        0.654        0.106      104.639       16.187        0.024      334.596        4.671      864.056
10/28/2014  01:15:00      -51.629      -58.587       -3.170       24.765       27.499       15.767      613.295      756.181      248.583        0.386        0.081       78.090       10.273        0.017      334.592        4.666      864.024
10/28/2014  01:16:00      -74.970      -45.350      -13.469       40.191       21.517       24.442     1615.309      462.979      597.392        0.527        0.134       87.619       12.074        0.019      334.636        4.739      864.011
10/28/2014  01:17:00      -62.182      -35.802       -5.251       27.793       23.815       11.367      772.468      567.176      129.217        0.332        0.073       71.752        6.215        0.008      334.638        4.743      864.030
10/28/2014  01:18:00     -102.527      -76.658      -14.832       29.370       38.272       18.909      862.623     1464.717      357.558        0.965        0.134      128.016       17.252        0.018      334.549        4.595      864.056
10/28/2014  01:19:00      -86.319      -40.324       -3.942       29.600       24.679       19.163      876.158      609.038      367.238        0.547        0.093       95.273       20.009        0.044      334.484        4.488      864.083
10/28/2014  01:20:00      -86.034      -55.871      -15.050       19.192       19.074       15.872      368.316      363.831      251.924        0.587        0.049      102.584       11.339        0.012      334.510        4.530      864.099
10/28/2014  01:21:00      -90.554      -26.357       -6.537       23.749       15.446        9.794      564.018      238.582       95.926        0.492        0.045       94.312        7.703        0.007      334.471        4.466      864.108
10/28/2014  01:22:00     -101.148      -40.254      -14.473       12.844       15.394       10.833      164.971      236.981      117.351        0.629        0.026      108.863        6.988        0.004      334.423        4.387      864.098
10/28/2014  01:23:00      -97.150      -43.359       -6.620       16.158       16.882       11.329      261.091      284.985      128.355        0.602        0.034      106.386        8.866        0.007      334.451        4.432      864.077
10/28/2014  01:24:00      -99.002      -17.251       -7.293       23.335       24.902       17.849      544.545      620.098      318.570        0.582        0.074      100.494       15.608        0.024      334.395        4.340      864.074
10/28/2014  01:25:00      -87.952      -31.341       -7.446       22.574       22.695       14.694      509.568      515.044      215.908        0.501        0.062       93.370       12.225        0.017      334.395        4.340      864.092
10/28/2014  01:26:00      -78.864      -36.990      -16.164       14.859       16.226        8.520      220.803      263.282       72.588        0.420        0.028       87.108        5.447        0.004      334.389        4.329      864.114
10/28/2014  01:27:00      -81.337      -25.026      -10.779       12.282       12.709        9.203      150.838      161.524       84.697        0.388        0.020       85.100        2.573        0.001      334.398        4.345      864.120
10/28/2014  01:28:00      -81.796      -35.320      -13.011       13.076       15.881        8.379      170.990      252.200       70.202        0.430        0.025       89.096        5.546        0.004      334.333        4.236      864.107
10/28/2014  01:29:00      -85.911      -31.189       -9.694        7.027        8.263        7.407       49.379       68.271       54.865        0.431        0.009       91.397        4.114        0.002      334.323        4.220      864.080
10/28/2014  01:30:00      -66.750      -31.816      -16.124       16.386       16.182        9.316      268.498      261.859       86.790        0.317        0.031       73.945        2.894        0.002      334.343        4.253      864.059
10/28/2014  01:31:00      -83.909      -15.908      -12.175       24.154       17.661       11.224      583.419      311.913      125.985        0.423        0.051       85.404       10.483        0.015      334.342        4.253      864.049
10/28/2014  01:32:00      -84.887        2.749      -12.954       30.615       19.193       16.084      937.299      368.386      258.689        0.447        0.078       84.932       14.235        0.028      334.303        4.187      864.054
10/28/2014  01:33:00      -54.703       -6.635      -10.169       29.040       18.889       16.718      843.298      356.790      279.505        0.231        0.074       55.104       12.486        0.051      334.299        4.181      864.075
10/28/2014  01:34:00      -58.746       -1.727      -15.675       15.966       21.513       12.563      254.903      462.811      157.841        0.229        0.044       58.771        9.134        0.024      334.367        4.292      864.099
10/28/2014  01:35:00      -57.174       -0.067      -23.504       12.686       11.918        9.926      160.947      142.030       98.523        0.211        0.020       57.174        6.563        0.013      334.423        4.386      864.117
10/28/2014  01:36:00      -47.974       -5.288      -16.194       13.139       11.649       10.767      172.638      135.700      115.934        0.151        0.021       48.264        8.502        0.031      334.370        4.299      864.116
10/28/2014  01:37:00      -45.052      -22.594      -12.401       18.077       15.011       13.145      326.779      225.320      172.791        0.171        0.036       50.400        9.951        0.039      334.466        4.457      864.101
10/28/2014  01:38:00      -30.397      -15.455       -7.450       18.592       11.301       13.788      345.644      127.704      190.109        0.094        0.033       34.100       11.061        0.105      334.461        4.448      864.090
10/28/2014  01:39:00      -43.008       -7.531       -6.623       11.248       11.931        9.792      126.528      142.358       95.891        0.116        0.018       43.662        6.548        0.022      334.348        4.263      864.092
10/28/2014  01:40:00      -42.742       -0.564      -12.078       11.714       10.505        7.279      137.219      110.352       52.979        0.114        0.015       42.746        2.201        0.003      334.362        4.286      864.095
10/28/2014  01:41:00      -36.559        0.808       -7.021       12.153        8.501        7.415      147.685       72.266       54.976        0.083        0.014       36.568        4.069        0.012      334.388        4.327      864.092
10/28/2014  01:42:00       -9.509        7.748       -1.905       18.681       22.470       16.264      348.977      504.883      264.510        0.064        0.056       12.266       11.514        0.881      334.653        4.768      864.098
10/28/2014  01:43:00      -18.336       18.343        0.462       33.392       27.555       12.034     1115.012      759.270      144.813        0.135        0.101       25.936       14.686        0.321      334.690        4.831      864.103
10/28/2014  01:44:00      -42.796      -16.237      -10.571       15.384       17.244        9.031      236.660      297.339       81.557        0.141        0.031       45.773        7.586        0.027      334.478        4.478      864.111
10/28/2014  01:45:00      -78.131      -25.511       -7.928       14.120       11.055        8.190      199.368      122.216       67.069        0.360        0.019       82.191        4.512        0.003      334.305        4.190      864.101
10/28/2014  01:46:00      -73.218      -10.972      -12.693        9.961        9.536        8.723       99.221       90.929       76.088        0.295        0.013       74.035        5.002        0.005      334.254        4.106      864.095
10/28/2014  01:47:00      -79.434       -7.273      -14.295        7.666        8.552        7.066       58.765       73.130       49.923        0.337        0.009       79.767        3.302        0.002      334.360        4.282      864.080
10/28/2014  01:48:00      -61.097      -22.018      -10.045       12.904        7.809        7.799      166.501       60.983       60.819        0.230        0.014       64.943        6.362        0.010      334.298        4.179      864.087
10/28/2014  01:49:00      -59.044      -21.632      -10.011        8.677       11.597        9.016       75.285      134.498       81.283        0.217        0.015       62.882        4.137        0.004      334.349        4.263      864.084
10/28/2014  01:50:00      -63.400      -10.536      -10.201       16.395       13.175        9.226      268.785      173.571       85.128        0.238        0.026       64.270        7.515        0.014      334.351        4.266      864.070
10/28/2014  01:51:00      -71.943      -11.790       -9.744       14.863        9.221        7.358      220.902       85.025       54.141        0.288        0.018       72.902        6.217        0.007      334.389        4.329      864.065
10/28/2014  01:52:00      -72.633      -18.395       -3.686       14.383       12.624       10.469      206.861      159.353      109.590        0.305        0.024       74.926        8.815        0.014      334.380        4.315      864.065
10/28/2014  01:53:00      -86.297      -18.131      -10.856       22.697       14.039        9.747      515.141      197.082       95.005        0.435        0.040       88.182       10.362        0.014      334.366        4.292      864.070
10/28/2014  01:54:00      -86.327      -27.424       -5.773       28.005       14.633       15.200      784.268      214.116      231.046        0.473        0.061       90.579       15.696        0.030      334.361        4.283      864.080
10/28/2014  01:55:00     -111.165      -23.272      -10.632       13.908       15.344       10.068      193.440      235.445      101.374        0.677        0.027      113.575        7.539        0.004      334.339        4.247      864.107
10/28/2014  01:56:00     -115.216      -22.827      -12.280       15.363       13.699       10.006      236.028      187.651      100.122        0.724        0.026      117.456        6.665        0.003      334.370        4.298      864.139
10/28/2014  01:57:00      -68.317      -20.831       -2.405       36.903       16.872       14.861     1361.814      284.657      220.842        0.349        0.093       71.422       20.406        0.082      334.376        4.309      864.141
10/28/2014  01:58:00      -31.613      -25.356        7.953       24.237       15.254       13.941      587.451      232.676      194.342        0.136        0.051       40.526       15.576        0.148      334.401        4.350      864.134
10/28/2014  01:59:00      -28.303      -28.869        5.890       16.418       11.831       10.638      269.560      139.972      113.174        0.110        0.026       40.429        8.523        0.044      334.403        4.354      864.128
10/28/2014  02:00:00      -43.030      -28.793       -4.057       19.395       10.578       13.705      376.161      111.891      187.834        0.169        0.034       51.775       12.652        0.060      334.402        4.349      864.128
10/28/2014  02:01:00      -62.487      -24.444      -10.796       13.036       11.185        9.637      169.938      125.115       92.873        0.250        0.019       67.098        6.535        0.009      334.453        4.435      864.123
10/28/2014  02:02:00      -90.998      -39.475      -10.799        9.764       11.010        7.377       95.331      121.229       54.424        0.511        0.014       99.191        3.226        0.001      334.432        4.402      864.120
10/28/2014  02:03:00     -109.182      -41.021      -11.325        7.888       10.469        6.329       62.227      109.591       40.053        0.697        0.011      116.634        4.244        0.001      334.430        4.399      864.120
10/28/2014  02:04:00      -97.742      -43.863       -6.058       13.231       11.437        8.426      175.046      130.802       71.001        0.595        0.019      107.133        7.402        0.005      334.352        4.269      864.118
10/28/2014  02:05:00      -83.892      -47.402       -5.299       20.226       14.757       13.848      409.075      217.771      191.772        0.507        0.041       96.358       12.477        0.017      334.272        4.136      864.120
10/28/2014  02:06:00      -81.467      -42.593       -3.994       18.694       13.075       13.855      349.477      170.967      191.951        0.459        0.036       91.929        9.231        0.010      334.276        4.143      864.117
10/28/2014  02:07:00      -87.601      -31.648       -5.986       14.750       12.450       11.313      217.561      154.995      127.974        0.461        0.025       93.142        9.250        0.010      334.261        4.117      864.112
10/28/2014  02:08:00     -101.129      -24.452       -9.880       13.562       11.196        7.781      183.924      125.359       60.547        0.565        0.018      104.043        5.939        0.003      334.244        4.090      864.101
10/28/2014  02:09:00      -78.446      -27.266       -3.832       16.028       14.125        9.257      256.895      199.508       85.686        0.373        0.027       83.050        4.844        0.003      334.264        4.122      864.099
10/28/2014  02:10:00      -73.673      -35.211       -8.593       13.733       12.051        9.079      188.588      145.224       82.424        0.358        0.021       81.655        4.886        0.004      334.310        4.199      864.102
10/28/2014  02:11:00      -75.295      -37.689       -0.208       23.841       15.182        9.582      568.372      230.478       91.815        0.399        0.045       84.201        9.226        0.012      334.257        4.112      864.112
10/28/2014  02:12:00      -80.832      -55.157      -10.049       20.767       14.960        9.768      431.274      223.790       95.411        0.521        0.038       97.858        7.993        0.007      334.279        4.148      864.115
10/28/2014  02:13:00      -82.795      -35.974       -7.374       22.414       18.435       11.204      502.399      339.846      125.533        0.459        0.048       90.273        6.303        0.005      334.294        4.171      864.114
10/28/2014  02:14:00      -92.129      -46.735       -5.625       15.886       13.546        8.427      252.366      183.498       71.006        0.561        0.025      103.305        8.050        0.006      334.316        4.208      864.117
10/28/2014  02:15:00      -84.889      -47.704       -4.145       16.040       15.856        9.621      257.287      251.421       92.566        0.505        0.030       97.374        6.508        0.004      334.315        4.209      864.116
10/28/2014  02:16:00      -70.940      -39.553        0.822       20.430       17.684       15.008      417.369      312.730      225.241        0.378        0.048       81.222        8.933        0.012      334.191        4.000      864.108
10/28/2014  02:17:00      -74.308      -29.354       -3.381       25.171       18.200       13.139      633.555      331.242      172.644        0.377        0.057       79.895       14.545        0.033      334.208        4.030      864.099
10/28/2014  02:18:00      -82.114      -38.899       -1.826       14.975       12.726        9.077      224.250      161.952       82.390        0.436        0.023       90.862        5.922        0.004      334.266        4.126      864.099
10/28/2014  02:19:00      -73.618      -31.219       -9.492       10.349       11.572        6.833      107.109      133.913       46.693        0.339        0.014       79.964        4.399        0.003      334.290        4.165      864.116
10/28/2014  02:20:00      -85.577      -30.900       -9.774       12.916       14.570       10.072      166.827      212.282      101.436        0.443        0.024       90.984        3.960        0.002      334.305        4.192      864.137
10/28/2014  02:21:00      -98.728      -34.239       -9.793       15.727       15.544        9.307      247.327      241.624       86.624        0.580        0.029      104.497        2.327        0.000      334.291        4.167      864.152
10/28/2014  02:22:00      -90.773      -38.947       -2.043       26.911       19.452       12.292      724.183      378.391      151.084        0.551        0.063       98.776       10.075        0.010      334.230        4.066      864.161
10/28/2014  02:23:00      -89.854      -44.013       -0.340       22.339       14.435       13.328      499.023      208.368      177.645        0.545        0.044      100.055       12.324        0.015      334.239        4.080      864.167
10/28/2014  02:24:00      -82.276      -43.463       -1.959       10.574        7.531        7.909      111.805       56.711       62.558        0.445        0.012       93.050        6.258        0.005      334.273        4.138      864.179
10/28/2014  02:25:00      -54.183      -35.084       -0.049       25.332       13.266       10.836      641.686      175.978      117.410        0.255        0.047       64.550       11.321        0.031      334.281        4.149      864.169
10/28/2014  02:26:00      -53.899      -21.943       -2.164       10.674        7.700        6.507      113.944       59.285       42.336        0.180        0.011       58.194        4.396        0.006      334.375        4.307      864.164
10/28/2014  02:27:00      -53.328      -19.117       -8.100        7.729       10.435        6.659       59.739      108.898       44.342        0.174        0.011       56.651        3.300        0.003      334.425        4.390      864.167
10/28/2014  02:28:00      -70.720      -19.815      -10.235       15.007        8.967        7.533      225.206       80.400       56.752        0.293        0.018       73.444        5.773        0.006      334.499        4.510      864.175
10/28/2014  02:29:00      -91.732      -19.048      -15.536        8.578       10.124        6.866       73.580      102.502       47.135        0.462        0.011       93.689        5.509        0.003      334.501        4.515      864.185
10/28/2014  02:30:00      -78.361      -31.283       -9.481        7.768       10.072        5.524       60.336      101.437       30.515        0.370        0.010       84.375        3.236        0.001      334.486        4.489      864.191
10/28/2014  02:31:00      -71.291      -23.117      -11.986        5.893        6.089        5.206       34.731       37.077       27.100        0.293        0.005       74.945        3.077        0.002      334.425        4.388      864.188
10/28/2014  02:32:00      -75.378      -19.748      -13.177        6.249        5.327        6.005       39.049       28.375       36.062        0.317        0.005       77.922        2.613        0.001      334.404        4.353      864.182
10/28/2014  02:33:00      -97.763      -29.323      -13.187        9.394       10.096        8.699       88.251      101.934       75.673        0.543        0.013      102.066        6.125        0.004      334.404        4.355      864.174
10/28/2014  02:34:00     -101.163      -41.680      -11.169       16.414       16.806       11.841      269.429      282.449      140.210        0.639        0.035      109.413        4.664        0.002      334.300        4.181      864.170
10/28/2014  02:35:00     -107.953      -34.513      -13.484       10.221       15.723        8.903      104.464      247.208       79.263        0.673        0.022      113.335        3.551        0.001      334.226        4.060      864.169
10/28/2014  02:36:00      -87.762      -19.441       -8.674       19.246       15.515       11.731      370.392      240.706      137.606        0.445        0.037       89.889        8.816        0.010      334.208        4.029      864.186
10/28/2014  02:37:00      -74.555      -32.582       -9.578       13.697       10.517       10.373      187.606      110.607      107.600        0.356        0.020       81.364        7.805        0.009      334.196        4.008      864.178
10/28/2014  02:38:00      -74.813      -32.161       -6.841       14.603       17.006       11.386      213.235      289.219      129.634        0.365        0.032       81.433        6.651        0.007      334.265        4.123      864.172
10/28/2014  02:39:00      -70.384      -33.364        2.504       14.886       12.987       10.316      221.594      168.669      106.423        0.328        0.025       77.891        8.667        0.012      334.208        4.029      864.177
10/28/2014  02:40:00      -80.465      -23.822       -2.244       16.112       13.937        9.975      259.610      194.237       99.493        0.380        0.028       83.917        8.347        0.010      334.199        4.015      864.192
10/28/2014  02:41:00      -88.220      -16.982       -5.720       18.038       13.678       12.779      325.353      187.096      163.291        0.439        0.034       89.839       11.448        0.016      334.224        4.056      864.210
10/28/2014  02:42:00      -87.741      -19.913       -5.367       21.767       14.581       12.941      473.784      212.617      167.481        0.449        0.043       89.972       10.718        0.014      334.212        4.036      864.219
10/28/2014  02:43:00     -110.585      -24.306      -10.260       22.679       14.819       12.454      514.322      219.596      155.105        0.691        0.044      113.225       11.934        0.011      334.160        3.949      864.227
10/28/2014  02:44:00     -106.266      -34.701       -9.564       14.635       12.690       11.259      214.190      161.028      126.775        0.654        0.025      111.788        4.114        0.001      334.155        3.942      864.235
10/28/2014  02:45:00      -99.175      -49.561      -19.133        8.531       10.738        6.963       72.775      115.305       48.479        0.645        0.012      110.869        3.347        0.001      334.037        3.745      864.248
10/28/2014  02:46:00      -93.347      -49.439      -16.742        9.772       12.936       10.512       95.484      167.349      110.494        0.591        0.019      105.630        5.478        0.003      334.021        3.718      864.257
10/28/2014  02:47:00      -89.783      -49.603      -10.085       12.837       15.772       11.512      164.795      248.743      132.516        0.558        0.027      102.574        8.776        0.007      333.992        3.672      864.272
10/28/2014  02:48:00      -88.136      -48.461      -14.925       12.218       15.305        9.677      149.285      234.258       93.641        0.541        0.024      100.581        3.776        0.001      334.050        3.766      864.282
10/28/2014  02:49:00      -90.434      -59.595       -7.083       21.750       19.099       17.005      473.070      364.757      289.176        0.645        0.056      108.305       13.669        0.016      334.037        3.746      864.280
10/28/2014  02:50:00      -69.724      -52.553      -10.401       14.879       20.003       14.083      221.394      400.109      198.328        0.428        0.041       87.311        8.624        0.010      333.997        3.679      864.288
10/28/2014  02:51:00      -36.010      -35.975       -5.872       33.942       17.882       17.582     1152.060      319.771      309.140        0.220        0.089       50.901       12.959        0.065      334.058        3.780      864.286
10/28/2014  02:52:00      -47.642      -35.279       -4.595       38.241       30.047       16.640     1462.347      902.795      276.888        0.309        0.132       59.282       16.413        0.077      333.984        3.657      864.303
10/28/2014  02:53:00      -29.251      -20.615        4.580       30.298       20.266       21.032      917.974      410.702      442.360        0.154        0.089       35.786       21.439        0.359      334.010        3.701      864.313
10/28/2014  02:54:00      -74.259      -20.964       -6.833       36.945       16.920       16.156     1364.908      286.286      261.018        0.396        0.096       77.162       16.064        0.043      334.031        3.735      864.325
10/28/2014  02:55:00      -75.405      -31.303       -3.075       32.666       27.422       14.707     1067.085      751.974      216.302        0.435        0.102       81.644        9.056        0.012      334.024        3.725      864.330
10/28/2014  02:56:00      -80.336      -28.855        2.904       31.053       31.704       19.387      964.303     1005.168      375.838        0.482        0.117       85.361       15.503        0.033      334.016        3.712      864.340
10/28/2014  02:57:00      -43.240      -15.888       -7.959       26.892       23.333       16.372      723.194      544.415      268.042        0.186        0.077       46.067       15.923        0.119      334.066        3.794      864.349
10/28/2014  02:58:00      -60.633      -33.531       -8.451       33.155       20.057       21.695     1099.270      402.279      470.652        0.342        0.099       69.287       19.103        0.076      334.055        3.775      864.359
10/28/2014  02:59:00      -57.472      -52.416       -9.605       26.074       26.129       16.716      679.863      682.747      279.424        0.389        0.082       77.785       15.491        0.040      334.015        3.709      864.358
10/28/2014  03:00:00      -57.081      -17.069       -7.582       27.459       27.820       13.818      753.974      773.964      190.943        0.266        0.086       59.578       14.724        0.061      334.015        3.708      864.350
10/28/2014  03:01:00      -29.711      -35.436       -2.778       25.925       16.307       15.344      672.095      265.903      235.427        0.166        0.059       46.244       11.809        0.065      334.059        3.781      864.342
10/28/2014  03:02:00      -76.472      -17.268       -7.562       16.839       17.899       14.333      283.538      320.374      205.423        0.351        0.040       78.398        9.772        0.016      334.091        3.834      864.339
10/28/2014  03:03:00      -77.798      -25.405       -5.400       24.750       18.774       15.579      612.575      352.471      242.694        0.397        0.060       81.840       15.337        0.035      334.112        3.870      864.343
10/28/2014  03:04:00      -77.165      -34.743      -11.294       20.191       19.135       16.393      407.691      366.146      268.734        0.417        0.052       84.626       10.402        0.015      334.093        3.839      864.347
10/28/2014  03:05:00      -92.195      -15.286      -10.197       15.105       15.630       13.268      228.150      244.298      176.027        0.474        0.032       93.454        6.804        0.005      334.034        3.742      864.353
10/28/2014  03:06:00      -48.576      -38.836       -5.879       30.415       23.941       16.340      925.076      573.174      267.006        0.283        0.088       62.192       19.056        0.094      334.001        3.686      864.360
10/28/2014  03:07:00      -64.342      -33.725      -14.677       30.785       19.840       14.471      947.746      393.614      209.404        0.352        0.078       72.645       14.902        0.042      334.003        3.689      864.362
10/28/2014  03:08:00      -63.579      -28.569      -16.001       15.631       18.142       10.999      244.334      329.126      120.983        0.290        0.035       69.703        8.719        0.016      333.998        3.684      864.372
10/28/2014  03:09:00      -62.671      -16.760      -10.665       14.845       14.861       12.109      220.367      220.851      146.624        0.245        0.029       64.873        8.923        0.019      334.018        3.715      864.376
10/28/2014  03:10:00      -64.122      -21.661      -12.603       19.055       15.639       13.956      363.094      244.592      194.777        0.277        0.040       67.682       10.556        0.024      334.064        3.790      864.377
10/28/2014  03:11:00      -55.698      -28.743      -10.999       17.639       19.331       14.333      311.141      373.685      205.438        0.247        0.045       62.677       12.359        0.039      334.081        3.818      864.375
10/28/2014  03:12:00      -71.010      -37.367       -9.666       20.348       15.552       10.231      414.051      241.857      104.670        0.365        0.038       80.242        8.988        0.013      334.050        3.768      864.367
10/28/2014  03:13:00      -81.720      -32.971       -9.863       12.034       11.601        6.302      144.828      134.584       39.713        0.409        0.016       88.121        3.348        0.001      334.060        3.782      864.374
10/28/2014  03:14:00      -94.285      -37.939      -11.267       15.546       16.697       11.779      241.673      278.782      138.748        0.556        0.033      101.632        9.898        0.009      334.056        3.777      864.386
10/28/2014  03:15:00      -80.742      -54.175       -1.522       27.883       20.997       20.031      777.455      440.881      401.252        0.554        0.081       97.232       14.824        0.023      334.041        3.753      864.387
10/28/2014  03:16:00     -109.340      -84.429       -7.401       37.277       27.638       20.534     1389.567      763.880      421.663        1.086        0.129      138.143       13.230        0.009      334.060        3.784      864.390
10/28/2014  03:17:00     -109.617      -69.886       -5.567       33.224       24.742       20.537     1103.858      612.145      421.781        0.953        0.107      130.000       19.484        0.022      334.082        3.820      864.386
10/28/2014  03:18:00      -82.320      -34.673       -1.044       34.154       27.669       16.700     1166.510      765.580      278.897        0.509        0.111       89.324       17.300        0.038      334.093        3.837      864.388
10/28/2014  03:19:00      -63.852      -45.520        1.752       37.123       23.341       18.710     1378.139      544.800      350.050        0.421        0.114       78.417       12.118        0.024      334.105        3.857      864.379
10/28/2014  03:20:00      -59.678      -34.679        4.683       38.760       26.042       16.373     1502.345      678.194      268.086        0.362        0.122       69.023       15.451        0.050      334.037        3.747      864.381
10/28/2014  03:21:00      -73.005      -50.605        1.777       39.054       22.206       21.244     1525.193      493.094      451.300        0.518        0.123       88.829       16.619        0.035      334.037        3.746      864.376
10/28/2014  03:22:00      -97.614      -41.596       -2.237       42.304       21.012       14.643     1789.668      441.500      214.431        0.685        0.122      106.108       15.429        0.021      334.030        3.733      864.377
10/28/2014  03:23:00     -107.832      -31.220       -8.572       19.776       19.624       13.044      391.082      385.108      170.143        0.681        0.047      112.261        6.790        0.004      333.953        3.606      864.377
10/28/2014  03:24:00      -99.604      -31.828      -15.911       14.799       18.628       11.450      219.024      346.986      131.100        0.594        0.035      104.566        6.406        0.004      333.879        3.482      864.384
10/28/2014  03:25:00      -98.460      -25.357      -11.273       13.476       13.000       10.518      181.594      168.987      110.629        0.546        0.023      101.673        8.142        0.006      333.926        3.562      864.383
10/28/2014  03:26:00      -84.838      -45.917       -3.026       22.517       13.189       14.300      507.004      173.940      204.499        0.510        0.044       96.467       13.892        0.021      333.936        3.580      864.386
10/28/2014  03:27:00      -66.304      -30.501       -2.804       27.699       22.968       16.177      767.252      527.545      261.687        0.345        0.078       72.984       14.471        0.039      333.972        3.640      864.381
10/28/2014  03:28:00      -74.623      -33.379        1.875       23.988       19.816       15.482      575.442      392.684      239.691        0.395        0.060       81.748       15.361        0.035      333.946        3.596      864.391
10/28/2014  03:29:00      -86.839      -30.019       -4.175       15.501       18.589       12.402      240.286      345.541      153.806        0.460        0.037       91.881       10.932        0.014      333.922        3.556      864.394
10/28/2014  03:30:00      -75.873      -27.399        0.313       23.382       14.146       12.854      546.724      200.114      165.224        0.371        0.046       80.669       12.054        0.022      333.904        3.527      864.394
10/28/2014  03:31:00      -93.708      -27.021       -3.188       19.113       15.187       12.332      365.304      230.659      152.075        0.513        0.037       97.526        9.443        0.009      333.947        3.597      864.393
10/28/2014  03:32:00      -82.012      -28.930       -3.774       20.234       15.746       11.786      409.400      247.933      138.903        0.419        0.040       86.965        8.640        0.010      333.911        3.537      864.391
10/28/2014  03:33:00      -70.256      -16.539        4.396       25.117       20.621       18.012      630.881      425.222      324.447        0.330        0.069       72.177       14.287        0.039      333.813        3.374      864.381
10/28/2014  03:34:00      -94.105      -32.435       -1.252       19.821       19.051       11.793      392.863      362.935      139.073        0.540        0.045       99.538        9.961        0.010      333.878        3.481      864.374
10/28/2014  03:35:00      -71.926      -27.525        1.373       25.536       18.021       11.918      652.098      324.751      142.048        0.353        0.056       77.012        8.038        0.011      333.853        3.440      864.358
10/28/2014  03:36:00      -53.046      -36.512        2.443       35.487       19.615       17.193     1259.347      384.760      295.588        0.305        0.097       64.397       18.931        0.086      333.890        3.501      864.337
10/28/2014  03:37:00      -86.331      -35.713       -0.011       25.630       14.017       13.658      656.895      196.487      186.541        0.488        0.052       93.426       13.315        0.020      333.900        3.519      864.329
10/28/2014  03:38:00      -96.779      -29.442        0.004       14.942       13.739       10.337      223.263      188.760      106.844        0.538        0.026      101.159        9.105        0.008      333.986        3.660      864.339
10/28/2014  03:39:00      -81.683      -35.067        2.259       23.146       14.744       11.720      535.741      217.374      137.359        0.440        0.045       88.892       11.871        0.018      333.970        3.636      864.345
10/28/2014  03:40:00      -94.956      -41.101       -3.984       15.274       12.312        9.504      233.296      151.578       90.335        0.560        0.024      103.470        7.205        0.005      333.978        3.648      864.346
10/28/2014  03:41:00      -94.739      -44.416       -5.312       14.902       15.038        8.989      222.069      226.149       80.800        0.575        0.026      104.634        7.083        0.005      334.083        3.821      864.334
10/28/2014  03:42:00     -104.913      -24.475      -12.267       12.808       13.452       11.123      164.036      180.967      123.717        0.611        0.023      107.730        4.872        0.002      334.015        3.709      864.323
10/28/2014  03:43:00     -113.114      -18.278      -12.002       18.118       16.450       10.470      328.270      270.613      109.622        0.699        0.035      114.581        7.641        0.004      333.949        3.599      864.326
10/28/2014  03:44:00     -137.078      -23.882      -15.897       15.074       14.281       12.397      227.211      203.947      153.697        1.010        0.029      139.143        8.490        0.004      333.802        3.356      864.334
10/28/2014  03:45:00     -143.243      -35.151      -17.404       12.809       11.328       10.509      164.082      128.334      110.433        1.123        0.020      147.493        4.761        0.001      333.785        3.328      864.336
10/28/2014  03:46:00     -126.586      -39.213      -20.856       19.825       17.070       14.639      393.024      291.392      214.307        0.945        0.045      132.520       11.485        0.008      333.662        3.122      864.337
10/28/2014  03:47:00      -94.025      -49.395       -8.298       28.728       20.316       15.462      825.298      412.723      239.071        0.641        0.074      106.210       16.168        0.023      333.609        3.037      864.333
10/28/2014  03:48:00     -107.701      -43.554      -14.753       18.417       26.378       15.391      339.203      695.799      236.897        0.749        0.064      116.174       13.125        0.013      333.581        2.989      864.328
10/28/2014  03:49:00     -106.034      -49.639      -18.465       19.332       23.244       16.683      373.730      540.275      278.339        0.762        0.060      117.078       13.456        0.013      333.555        2.946      864.332
10/28/2014  03:50:00     -109.960      -49.206      -17.287       26.633       23.093       16.216      709.300      533.280      262.955        0.816        0.075      120.467       14.369        0.014      333.581        2.989      864.350
10/28/2014  03:51:00      -93.908      -37.915      -10.705       28.197       22.331       17.906      795.097      498.658      320.628        0.599        0.081      101.273       15.973        0.025      333.565        2.962      864.367
10/28/2014  03:52:00      -89.942      -48.626      -16.111       27.191       22.724       15.583      739.332      516.373      242.834        0.611        0.075      102.244       12.171        0.014      333.547        2.933      864.387
10/28/2014  03:53:00      -44.352      -42.337        0.067       33.068       31.855       19.992     1093.510     1014.761      399.689        0.313        0.125       61.315       17.540        0.082      333.601        3.022      864.396
10/28/2014  03:54:00      -76.674      -37.936      -13.657       24.682       22.638       14.899      609.188      512.487      221.984        0.442        0.067       85.546        7.346        0.007      333.616        3.047      864.398
10/28/2014  03:55:00      -88.933      -40.834      -14.060       21.612       31.487       17.020      467.070      991.419      289.672        0.576        0.087       97.859       15.081        0.024      333.571        2.974      864.401
10/28/2014  03:56:00      -75.469      -40.274       -5.609       28.508       33.313       21.025      812.723     1109.779      442.054        0.486        0.118       85.543       19.611        0.053      333.617        3.049      864.418
10/28/2014  03:57:00      -65.609      -45.872       -6.686       33.946       34.011       19.434     1152.321     1156.715      377.661        0.457        0.134       80.055       15.853        0.039      333.602        3.023      864.431
10/28/2014  03:58:00      -80.308      -18.627       -5.548       47.834       32.352       18.274     2288.130     1046.684      333.934        0.525        0.183       82.440       21.280        0.067      333.585        2.995      864.438
10/28/2014  03:59:00      -90.796      -28.520       -5.523       35.548       26.199       20.846     1263.674      686.411      434.564        0.574        0.119       95.169       17.471        0.034      333.540        2.920      864.436
10/28/2014  04:00:00      -74.434      -18.865      -10.633       31.603       24.805       16.334      998.753      615.308      266.788        0.394        0.094       76.787        6.093        0.006      333.540        2.920      864.421
10/28/2014  04:01:00      -73.982      -21.281      -13.178       22.965       20.861       14.414      527.372      435.198      207.770        0.363        0.059       76.982       10.413        0.018      333.631        3.072      864.400
10/28/2014  04:02:00      -67.570      -27.938       -8.285       28.524       14.782       13.884      813.606      218.515      192.765        0.332        0.061       73.118       14.231        0.038      333.664        3.125      864.383
10/28/2014  04:03:00      -67.683      -25.606       -8.913       16.959       10.893       12.073      287.624      118.654      145.759        0.293        0.028       72.365       11.082        0.023      333.594        3.011      864.370
10/28/2014  04:04:00      -51.377      -40.285       -4.428       19.766       12.161       12.506      390.684      147.879      156.409        0.249        0.035       65.288       11.214        0.030      333.694        3.177      864.371
10/28/2014  04:05:00      -66.214      -40.166       -8.082       10.140       15.546        9.721      102.829      241.664       94.501        0.325        0.022       77.444        4.872        0.004      333.690        3.169      864.394
10/28/2014  04:06:00      -77.076      -39.100      -14.590       12.145       16.273        8.793      147.504      264.810       77.311        0.409        0.024       86.426        5.338        0.004      333.729        3.234      864.414
10/28/2014  04:07:00      -79.685      -39.015       -6.506       15.442       14.445       10.156      238.444      208.647      103.135        0.423        0.028       88.723        7.533        0.007      333.735        3.245      864.417
10/28/2014  04:08:00      -29.745      -24.262        8.832       37.025       21.644       14.453     1370.864      468.463      208.889        0.180        0.102       38.385       18.792        0.240      333.717        3.215      864.412
10/28/2014  04:09:00      -70.669      -34.329       -3.531       35.883       22.382       14.856     1287.623      500.969      220.697        0.410        0.100       78.566       16.746        0.045      333.718        3.216      864.408
10/28/2014  04:10:00      -57.486      -30.879       10.220       33.459       17.233       18.369     1119.520      296.968      337.425        0.306        0.088       65.255       15.876        0.059      333.683        3.158      864.412
10/28/2014  04:11:00      -48.455      -50.372        8.092       28.319       23.157       19.320      801.979      536.267      373.254        0.333        0.086       69.895       17.450        0.062      333.718        3.217      864.416
10/28/2014  04:12:00     -105.527      -74.824       -6.159       28.868       27.505       20.890      833.383      756.515      436.391        0.940        0.101      129.362       17.311        0.018      333.716        3.214      864.414
10/28/2014  04:13:00      -94.357      -76.598       -3.681       33.765       42.298       19.408     1140.076     1789.089      376.676        0.904        0.165      121.534       17.846        0.022      333.722        3.224      864.417
10/28/2014  04:14:00     -103.376      -79.636       -6.547       33.798       27.521       20.822     1142.322      757.415      433.574        0.970        0.117      130.493       14.940        0.013      333.755        3.278      864.433
10/28/2014  04:15:00     -101.004      -61.593        2.990       45.859       28.205       22.908     2103.023      795.547      524.797        0.871        0.171      118.303       18.480        0.024      333.625        3.063      864.442
10/28/2014  04:16:00     -103.551      -51.395       -6.944       39.483       22.117       18.963     1558.917      489.170      359.583        0.791        0.120      115.604       16.509        0.020      333.608        3.035      864.456
10/28/2014  04:17:00      -97.928      -56.932       -6.567       24.510       25.612       15.559      600.720      655.960      242.079        0.719        0.075      113.274       12.430        0.012      333.582        2.991      864.466
10/28/2014  04:18:00      -73.585      -41.736        0.889       35.118       26.863       16.967     1233.293      721.599      287.871        0.470        0.112       84.597       17.176        0.041      333.600        3.021      864.454
10/28/2014  04:19:00      -56.173      -40.806        8.480       64.301       37.155       25.163     4134.585     1380.506      633.181        0.552        0.307       69.430       32.120        0.214      333.638        3.084      864.435
10/28/2014  04:20:00      -76.016      -50.975        1.979       54.200       26.676       21.855     2937.604      711.587      477.648        0.625        0.206       91.525       27.454        0.090      333.742        3.257      864.423
10/28/2014  04:21:00      -49.069      -37.233        3.517       53.575       30.449       22.436     2870.258      927.135      503.359        0.405        0.215       61.596       28.183        0.209      333.657        3.114      864.434
10/28/2014  04:22:00     -131.367      -72.328       -2.139       34.065       27.580       16.618     1160.425      760.672      276.163        1.234        0.110      149.962       15.593        0.011      333.688        3.165      864.440
10/28/2014  04:23:00     -113.206      -60.130       -1.120       46.279       25.514       22.405     2141.744      650.976      501.986        0.986        0.165      128.184       21.725        0.029      333.646        3.097      864.442
10/28/2014  04:24:00      -98.207      -66.938       -0.881       42.078       34.532       23.719     1770.545     1192.429      562.581        0.883        0.176      118.850       22.030        0.034      333.733        3.242      864.446
10/28/2014  04:25:00      -85.540      -57.590       -2.963       26.829       25.996       19.086      719.773      675.767      364.288        0.620        0.088      103.120       12.358        0.014      333.707        3.199      864.453
10/28/2014  04:26:00     -114.063      -45.371      -14.396       21.268       17.678       12.937      452.308      312.507      167.374        0.810        0.047      122.755        7.326        0.004      333.689        3.169      864.468
10/28/2014  04:27:00      -82.048      -35.815        1.364       44.853       22.227       17.444     2011.811      494.028      304.302        0.541        0.141       89.524       20.183        0.051      333.695        3.178      864.471
10/28/2014  04:28:00      -85.596      -59.209        1.529       36.400       31.342       18.127     1324.994      982.339      328.578        0.673        0.132      104.079       19.379        0.035      333.721        3.220      864.468
10/28/2014  04:29:00      -24.328      -48.755       13.379       43.026       32.243       26.840     1851.217     1039.634      720.371        0.338        0.181       54.487       26.121        0.230      333.696        3.179      864.464
10/28/2014  04:30:00      -64.528      -51.932        8.270       43.205       24.795       21.009     1866.691      614.789      441.370        0.493        0.146       82.830       20.690        0.062      333.666        3.129      864.463
10/28/2014  04:31:00      -62.563      -45.397        4.294       38.460       24.611       18.624     1479.172      605.708      346.863        0.421        0.122       77.298       17.646        0.052      333.631        3.072      864.453
10/28/2014  04:32:00      -65.931      -53.662        6.721       29.834       30.434       19.448      890.085      926.198      378.217        0.473        0.110       85.009       14.438        0.029      333.602        3.026      864.450
10/28/2014  04:33:00      -54.013      -45.694        2.768       35.793       25.231       19.780     1281.163      636.619      391.257        0.366        0.115       70.749       19.389        0.075      333.647        3.098      864.442
10/28/2014  04:34:00      -64.137      -46.673        2.877       31.599       29.391       18.745      998.518      863.830      351.358        0.426        0.111       79.322       13.580        0.029      333.683        3.158      864.438
10/28/2014  04:35:00      -79.934      -45.188        6.297       38.717       25.684       19.323     1499.007      659.651      373.365        0.550        0.127       91.822       20.946        0.052      333.646        3.098      864.433
10/28/2014  04:36:00      -63.403      -33.838        6.857       41.018       20.127       18.052     1682.485      405.099      325.892        0.381        0.121       71.868       20.149        0.079      333.614        3.045      864.431
10/28/2014  04:37:00      -66.304      -30.708        4.700       26.032       19.020       14.964      677.663      361.755      223.931        0.331        0.063       73.070       14.108        0.037      333.645        3.095      864.426
10/28/2014  04:38:00      -44.397      -14.963        0.601       26.033       19.016       10.634      677.735      361.611      113.080        0.167        0.058       46.851        5.385        0.013      333.599        3.019      864.427
10/28/2014  04:39:00      -86.157       -6.649       -3.432       31.560       14.460       14.952      996.062      209.086      223.548        0.445        0.071       86.413       16.783        0.038      333.473        2.809      864.431
10/28/2014  04:40:00      -85.973      -20.652       -1.472       24.718       20.062       15.597      611.004      402.488      243.267        0.454        0.063       88.418       13.123        0.022      333.468        2.803      864.442
10/28/2014  04:41:00      -97.978      -28.967       -0.831       23.052       18.329       14.407      531.402      335.940      207.575        0.576        0.054      102.170       12.926        0.016      333.456        2.782      864.445
10/28/2014  04:42:00      -89.690      -31.599       -2.560       19.885       18.260       12.739      395.418      333.412      162.277        0.497        0.045       95.093        9.369        0.010      333.444        2.761      864.434
10/28/2014  04:43:00      -92.774      -24.200       -0.141       28.909       15.985       14.838      835.714      255.510      220.174        0.525        0.066       95.878       13.434        0.020      333.417        2.717      864.434
10/28/2014  04:44:00     -106.122      -33.403       -0.331       35.617       23.438       17.378     1268.574      549.327      301.979        0.725        0.106      111.255       17.743        0.025      333.381        2.658      864.436
10/28/2014  04:45:00     -112.609      -27.955       -3.765       29.904       21.398       15.358      894.253      457.865      235.879        0.753        0.079      116.027       12.656        0.012      333.382        2.660      864.448
10/28/2014  04:46:00     -118.255      -41.575        4.056       27.941       23.810       17.382      780.675      566.931      302.121        0.869        0.082      125.350       15.455        0.015      333.437        2.751      864.456
10/28/2014  04:47:00     -116.899      -58.118        3.373       27.547       20.124       14.962      758.848      404.982      223.849        0.922        0.069      130.549       14.589        0.012      333.522        2.892      864.461
10/28/2014  04:48:00      -65.860      -56.478        6.994       50.312       35.659       21.635     2531.278     1271.594      468.066        0.592        0.214       86.760       25.250        0.085      333.556        2.948      864.477
10/28/2014  04:49:00        5.212      -26.802       23.553       30.275       31.885       20.485      916.599     1016.656      419.616        0.183        0.118       27.304       19.054        0.487      333.664        3.128      864.485
10/28/2014  04:50:00     -107.994      -45.780       -4.114       38.397       30.809       19.432     1474.334      949.222      377.610        0.829        0.140      117.297       18.385        0.025      333.500        2.855      864.488
10/28/2014  04:51:00      -78.252      -42.236        3.353       33.080       22.822       14.194     1094.292      520.821      201.468        0.487        0.091       88.923       15.020        0.029      333.413        2.710      864.481
10/28/2014  04:52:00      -80.365      -53.034       -3.179       30.267       29.342       18.028      916.090      860.934      325.015        0.569        0.105       96.287       18.729        0.038      333.484        2.829      864.478
10/28/2014  04:53:00      -26.648      -40.962       18.599       61.813       31.940       23.570     3820.857     1020.171      555.551        0.406        0.270       48.868       35.214        0.519      333.562        2.957      864.461
10/28/2014  04:54:00      -44.642      -25.156        8.687       41.540       24.733       16.581     1725.590      611.733      274.941        0.266        0.131       51.242       14.815        0.084      333.526        2.898      864.462
10/28/2014  04:55:00      -61.739      -69.134        3.250       35.486       27.983       20.789     1259.265      783.040      432.183        0.554        0.124       92.689       15.754        0.029      333.487        2.832      864.454
10/28/2014  04:56:00      -78.960      -60.789       -2.676       27.251       27.406       15.687      742.618      751.079      246.088        0.584        0.087       99.650       13.271        0.018      333.527        2.900      864.440
10/28/2014  04:57:00      -84.929      -49.182        3.345       28.460       21.061       16.359      809.975      443.551      267.604        0.558        0.076       98.142       13.605        0.019      333.524        2.894      864.436
10/28/2014  04:58:00      -63.770      -38.432        2.988       37.188       20.150       16.143     1382.966      406.004      260.587        0.380        0.102       74.456       16.024        0.046      333.446        2.766      864.429
10/28/2014  04:59:00      -61.989      -37.797        2.785       34.182       17.089       15.119     1168.376      292.028      228.573        0.348        0.084       72.603       14.874        0.042      333.409        2.705      864.432
10/28/2014  05:00:00      -30.492      -38.949        7.409       34.502       23.857       16.990     1190.364      569.142      288.649        0.227        0.102       49.465       20.726        0.176      333.534        2.911      864.437
10/28/2014  05:01:00      -26.244      -26.809       -0.086       27.623       19.640       14.169      763.016      385.743      200.767        0.138        0.067       37.516       14.921        0.158      333.512        2.875      864.445
10/28/2014  05:02:00      -51.172      -37.095       -1.265       24.984       15.648       13.133      624.218      244.862      172.480        0.252        0.052       63.203       12.581        0.040      333.494        2.844      864.440
10/28/2014  05:03:00      -51.234      -38.814       -6.504       25.384       12.693       11.969      644.337      161.110      143.268        0.256        0.047       64.276       10.966        0.029      333.529        2.901      864.436
10/28/2014  05:04:00      -55.831      -30.295      -10.047       16.863       11.712        7.838      284.350      137.161       61.429        0.231        0.024       63.521        3.741        0.003      333.511        2.873      864.436
10/28/2014  05:05:00      -41.901      -22.216       -6.875       11.313       13.045        8.383      127.983      170.159       70.277        0.133        0.018       47.426        8.518        0.032      333.561        2.955      864.432
10/28/2014  05:06:00      -52.542      -17.846       -3.307       11.593       13.073        7.897      134.389      170.914       62.367        0.173        0.018       55.490        4.275        0.006      333.506        2.864      864.439
10/28/2014  05:07:00      -58.827      -21.217       -9.539       11.248       10.567        9.781      126.516      111.660       95.668        0.217        0.017       62.536        8.011        0.016      333.475        2.814      864.456
10/28/2014  05:08:00      -34.452      -31.569        1.584       27.253       14.555       11.119      742.707      211.845      123.641        0.163        0.054       46.729       12.536        0.072      333.498        2.852      864.484
10/28/2014  05:09:00      -21.644      -22.002       -2.454       19.624       16.059       11.427      385.093      257.885      130.567        0.087        0.039       30.864        5.581        0.033      333.512        2.875      864.513
10/28/2014  05:10:00      -50.268      -29.827        0.170       21.096       14.056       14.934      445.060      197.567      223.036        0.214        0.043       58.451       13.678        0.055      333.450        2.772      864.534
10/28/2014  05:11:00      -23.414      -17.318        1.944       24.893       13.188       12.796      619.681      173.917      163.746        0.090        0.048       29.123       15.203        0.273      333.426        2.733      864.537
10/28/2014  05:12:00      -58.806      -30.260       -8.024       26.743       15.742        8.515      715.206      247.799       72.503        0.274        0.052       66.134        5.059        0.006      333.440        2.755      864.535
10/28/2014  05:13:00      -44.683      -17.010       -0.681       19.700       19.890       13.481      388.105      395.601      181.737        0.163        0.048       47.811       12.056        0.064      333.419        2.719      864.536
10/28/2014  05:14:00      -58.492       -4.319       -4.888       30.276       14.331       12.661      916.608      205.381      160.301        0.237        0.064       58.651       14.337        0.060      333.342        2.595      864.533
10/28/2014  05:15:00      -65.964       -9.270       -0.982       25.818       17.434       11.718      666.563      303.933      137.310        0.277        0.055       66.613       14.592        0.048      333.304        2.531      864.540
10/28/2014  05:16:00      -58.045      -28.851       -0.751       29.188       18.311       15.873      851.942      335.292      251.954        0.282        0.072       64.820       17.850        0.076      333.380        2.656      864.556
10/28/2014  05:17:00      -55.272      -15.273       -5.571       23.839       14.263        8.935      568.316      203.436       79.827        0.209        0.043       57.343        9.185        0.026      333.390        2.674      864.571
10/28/2014  05:18:00      -64.516      -20.262       -9.664       18.190       12.461        8.117      330.887      155.282       65.884        0.261        0.028       67.624        4.856        0.005      333.432        2.742      864.577
10/28/2014  05:19:00      -54.763      -10.429       -3.157       18.039       17.325        9.114      325.419      300.147       83.064        0.191        0.035       55.747        6.545        0.014      333.355        2.613      864.584
10/28/2014  05:20:00      -81.412       -4.361       -4.757       12.954       10.044        7.963      167.796      100.881       63.411        0.350        0.017       81.529        3.948        0.002      333.375        2.649      864.578
10/28/2014  05:21:00      -64.854       -4.702       -1.160       19.168       16.369       12.140      367.401      267.930      147.382        0.251        0.039       65.025        8.814        0.018      333.306        2.534      864.570
10/28/2014  05:22:00      -74.384      -25.541       -7.298       18.004       13.240        9.140      324.142      175.293       83.545        0.341        0.029       78.646        6.725        0.007      333.329        2.572      864.572
10/28/2014  05:23:00      -57.579      -21.115       -1.549       23.995       14.649       13.075      575.756      214.591      170.947        0.236        0.048       61.328       13.320        0.047      333.337        2.585      864.581
10/28/2014  05:24:00      -67.088      -11.519        0.696       29.303       17.031       14.154      858.660      290.054      200.326        0.299        0.067       68.070       15.628        0.053      333.327        2.570      864.593
10/28/2014  05:25:00      -67.252       -3.498       -0.543       26.445       16.163       14.399      699.317      261.257      207.327        0.285        0.058       67.343       14.129        0.044      333.232        2.410      864.605
10/28/2014  05:26:00      -54.771       -4.581       -2.402       22.663       14.094       11.567      513.634      198.645      133.798        0.194        0.042       54.962       10.232        0.035      333.266        2.468      864.614
10/28/2014  05:27:00      -57.219       -2.159       -2.259       26.620       12.781       10.765      708.600      163.343      115.880        0.214        0.049       57.260        9.488        0.027      333.286        2.501      864.626
10/28/2014  05:28:00      -45.271       -3.905       -4.860       19.557       13.874       11.802      382.489      192.494      139.276        0.140        0.036       45.439       11.083        0.059      333.245        2.432      864.637
10/28/2014  05:29:00      -48.524      -17.702       -3.565       17.670       13.751        8.198      312.213      189.097       67.200        0.162        0.028       51.652        8.997        0.030      333.295        2.515      864.650
10/28/2014  05:30:00      -57.418      -27.720       -6.950       12.671       12.957        8.214      160.555      167.887       67.467        0.225        0.020       63.759        0.955        0.000      333.320        2.557      864.658
10/28/2014  05:31:00      -64.446      -15.021       -7.009       13.542       11.095        7.003      183.373      123.096       49.038        0.239        0.018       66.173        3.866        0.003      333.227        2.402      864.665
10/28/2014  05:32:00      -27.202       -8.938       -2.322       17.239        6.715        8.275      297.179       45.088       68.483        0.062        0.021       28.633        4.401        0.024      333.252        2.445      864.670
10/28/2014  05:33:00      -19.339        2.327       -2.747        7.680        5.168        4.533       58.977       26.707       20.549        0.025        0.005       19.479        2.449        0.016      333.386        2.667      864.667
10/28/2014  05:34:00       -1.514        7.207       -0.044        6.259        8.527        5.504       39.175       72.715       30.298        0.010        0.007        7.365        3.060        0.173      333.409        2.706      864.668
10/28/2014  05:35:00       -2.655       -6.232        5.734       10.222        6.180        6.670      104.498       38.189       44.489        0.013        0.009        6.774        5.435        0.644      333.418        2.719      864.671
10/28/2014  05:36:00      -20.335       -1.671       -5.217        5.260        8.232        6.394       27.666       67.766       40.880        0.029        0.007       20.404        3.380        0.027      333.444        2.761      864.677
10/28/2014  05:37:00       -4.777        1.678       -1.151        4.434        4.811        4.936       19.661       23.142       24.361        0.005        0.003        5.063        2.670        0.278      333.441        2.755      864.677
10/28/2014  05:38:00       -6.515       11.110       -1.021        6.504        6.973        7.429       42.307       48.622       55.192        0.016        0.007       12.879        6.733        0.273      333.393        2.676      864.681
10/28/2014  05:39:00        3.936       11.420        2.905       10.444        4.573        6.051      109.077       20.915       36.610        0.016        0.008       12.080        5.819        0.232      333.442        2.760      864.686
10/28/2014  05:40:00       12.902       24.216        3.731        7.423        4.176        7.901       55.101       17.436       62.421        0.045        0.007       27.439        4.165        0.023      333.493        2.843      864.684
10/28/2014  05:41:00       18.570       16.261       10.019        7.372        7.649        8.620       54.353       58.505       74.300        0.045        0.009       24.684        2.990        0.015      333.400        2.690      864.698
10/28/2014  05:42:00        0.828       12.353        6.256       10.888        6.922        7.477      118.547       47.920       55.907        0.021        0.011       12.381        2.524        0.042      333.312        2.544      864.723
10/28/2014  05:43:00      -10.420        8.530        3.281        7.447        8.020        6.153       55.454       64.315       37.859        0.017        0.008       13.466        6.524        0.235      333.367        2.633      864.748
10/28/2014  05:44:00      -32.318        3.762       -3.087       11.998        4.388        3.970      143.940       19.254       15.763        0.062        0.009       32.536        3.000        0.008      333.410        2.705      864.771
10/28/2014  05:45:00      -47.236       -4.971       -4.456       11.250        7.772        7.744      126.574       60.401       59.967        0.126        0.012       47.496        6.553        0.019      333.366        2.633      864.782
10/28/2014  05:46:00      -60.628      -27.755       -1.456       23.633       14.121        8.468      558.535      199.392       71.706        0.264        0.041       66.679        9.242        0.019      333.370        2.641      864.788
10/28/2014  05:47:00      -51.823      -27.520       -5.335       32.422       15.532       10.009     1051.217      241.248      100.174        0.243        0.070       58.677       10.385        0.031      333.341        2.593      864.791
10/28/2014  05:48:00      -24.721      -17.208       -4.936       16.892       12.359        8.658      285.335      152.753       74.952        0.072        0.026       30.120        9.457        0.099      333.283        2.496      864.792
10/28/2014  05:49:00      -17.302      -11.055        1.929       19.605       15.498        9.118      384.338      240.174       83.142        0.057        0.035       20.532       10.718        0.273      333.314        2.546      864.802
10/28/2014  05:50:00      -38.014       -2.773       -1.099       10.474       10.789        7.362      109.701      116.410       54.196        0.087        0.014       38.115        6.582        0.030      333.285        2.500      864.819
10/28/2014  05:51:00      -62.698        3.992       -6.243       10.714        9.218        9.344      114.795       84.963       87.301        0.214        0.014       62.825        3.691        0.003      333.260        2.456      864.836
10/28/2014  05:52:00      -77.434       10.978       -8.809       14.063       10.266        9.238      197.757      105.399       85.336        0.329        0.019       78.209        5.904        0.006      333.219        2.389      864.849
10/28/2014  05:53:00      -72.075        6.464       -4.980       27.329        9.968       10.973      746.857       99.352      120.412        0.311        0.048       72.364       13.959        0.037      333.158        2.288      864.852
10/28/2014  05:54:00      -34.353       -4.019       -3.418       23.768       15.734        9.935      564.928      247.569       98.713        0.106        0.046       34.587       12.294        0.126      333.062        2.130      864.862
10/28/2014  05:55:00      -29.124        0.054        3.094       23.229       13.054       12.065      539.600      170.402      145.571        0.086        0.043       29.124       10.083        0.120      333.065        2.138      864.865
10/28/2014  05:56:00      -23.488        8.787        0.855       11.824       13.484        8.398      139.808      181.817       70.527        0.051        0.020       25.078        7.328        0.085      333.081        2.162      864.880
10/28/2014  05:57:00      -33.395        8.284        1.584       14.750       14.796       11.951      217.555      218.935      142.815        0.088        0.029       34.407        9.828        0.082      333.125        2.237      864.896
10/28/2014  05:58:00      -65.208        3.285      -10.013       21.760       11.518        9.102      473.482      132.670       82.840        0.253        0.034       65.291        8.845        0.018      333.136        2.254      864.919
10/28/2014  05:59:00      -55.868        0.326       -5.270       19.509       12.218        8.856      380.615      149.273       78.425        0.188        0.030       55.869        7.264        0.017      333.133        2.247      864.940
10/28/2014  06:00:00      -69.870       -5.373       -3.760       16.277       18.051       11.523      264.939      325.846      132.771        0.282        0.036       70.077       10.946        0.024      333.139        2.258      864.949
10/28/2014  06:01:00      -68.553       -4.574       -4.383       15.188       16.109       10.991      230.678      259.505      120.806        0.268        0.031       68.705        8.027        0.014      333.105        2.201      864.956
10/28/2014  06:02:00      -37.460       -2.086       -0.644       22.825       13.081        9.737      520.983      171.108       94.817        0.110        0.039       37.518        9.304        0.061      333.033        2.083      864.961
10/28/2014  06:03:00      -33.949      -20.051        2.249       21.706       16.811       11.392      471.138      282.606      129.786        0.122        0.044       39.428       10.960        0.077      333.115        2.218      864.974
10/28/2014  06:04:00      -15.903       -4.585        3.593       16.328       12.650       11.014      266.607      160.010      121.299        0.042        0.027       16.550        8.775        0.281      333.012        2.049      864.978
10/28/2014  06:05:00      -12.314        4.111       -2.002       10.751       11.829        7.976      115.583      139.931       63.616        0.025        0.016       12.982        6.955        0.287      333.047        2.107      864.987
10/28/2014  06:06:00      -13.208        0.400        2.401       19.915        5.878       10.804      396.618       34.546      116.727        0.036        0.027       13.214       12.777        0.935      333.113        2.216      864.984
10/28/2014  06:07:00      -60.343        4.667       -7.721       16.269        8.536        8.576      264.670       72.858       73.543        0.207        0.021       60.523        8.010        0.018      333.212        2.378      864.972
10/28/2014  06:08:00      -68.604       -2.310       -8.661       14.904       12.776       11.209      222.141      163.237      125.643        0.265        0.026       68.643        8.504        0.015      333.164        2.298      864.965
10/28/2014  06:09:00      -85.351       -2.501      -11.437        9.945        9.827        9.895       98.894       96.568       97.903        0.386        0.015       85.387        7.513        0.008      333.132        2.247      864.960
10/28/2014  06:10:00      -71.123      -21.416       -9.992       14.717       10.964       11.223      216.587      120.214      125.945        0.304        0.023       74.278        9.133        0.015      333.150        2.276      864.974
10/28/2014  06:11:00      -82.459      -19.761      -12.616       13.311       11.319        8.710      177.176      128.127       75.872        0.387        0.019       84.794        7.812        0.008      333.121        2.229      864.979
10/28/2014  06:12:00      -81.843       -6.971       -9.795       14.792       13.522       11.741      218.816      182.832      137.860        0.369        0.027       82.139        8.845        0.012      333.057        2.123      864.991
10/28/2014  06:13:00      -84.993       -3.673       -8.846       20.778       11.756       12.305      431.731      138.198      151.402        0.402        0.036       85.072       11.805        0.019      333.031        2.080      864.991
10/28/2014  06:14:00      -91.711       -1.244      -13.049       12.051        8.165        7.116      145.224       66.659       50.642        0.442        0.013       91.719        3.695        0.002      333.053        2.117      865.009
10/28/2014  06:15:00     -106.176       -3.217      -13.155       12.853        8.917        7.442      165.210       79.513       55.386        0.588        0.015      106.225        4.916        0.002      333.064        2.133      865.030
10/28/2014  06:16:00      -97.929       -2.113      -19.141       15.550       13.186        8.964      241.816      173.875       80.360        0.523        0.025       97.951        4.883        0.002      333.014        2.050      865.054
10/28/2014  06:17:00      -55.800       -1.733      -11.644       23.024       13.744       10.939      530.084      188.901      119.666        0.205        0.042       55.827        9.520        0.029      332.984        2.003      865.070
10/28/2014  06:18:00      -44.060      -11.425       -9.944       11.559       13.206        7.424      133.620      174.393       55.120        0.127        0.018       45.517        6.878        0.023      333.139        2.258      865.083
10/28/2014  06:19:00      -42.597      -16.999       -5.790       12.132       14.305        8.522      147.177      204.620       72.617        0.128        0.021       45.864        8.897        0.038      333.196        2.352      865.094
10/28/2014  06:20:00      -55.016      -16.739      -11.683       12.091       12.642        8.897      146.187      159.824       79.161        0.191        0.019       57.506        5.746        0.010      333.119        2.227      865.111
10/28/2014  06:21:00      -73.715      -13.905      -13.418        9.038       11.920        9.675       81.679      142.084       93.598        0.306        0.016       75.015        5.173        0.005      333.051        2.114      865.127
10/28/2014  06:22:00      -69.492      -14.759      -15.156       20.313       15.874        9.726      412.599      251.994       94.598        0.302        0.038       71.042        6.456        0.008      333.047        2.106      865.137
10/28/2014  06:23:00      -65.321      -17.423      -14.237       21.692       12.571       11.041      470.555      158.024      121.895        0.276        0.038       67.605        8.527        0.016      332.946        1.940      865.143
10/28/2014  06:24:00      -48.619      -27.956      -12.523       19.034       17.820        8.177      362.307      317.550       66.859        0.202        0.037       56.084        4.997        0.008      332.939        1.930      865.140
10/28/2014  06:25:00      -42.339      -26.496      -15.395       13.542       14.183       11.748      183.375      201.145      138.022        0.163        0.026       49.946        3.655        0.005      333.026        2.071      865.133
10/28/2014  06:26:00      -70.683       -9.035      -15.019       16.859       11.942       14.110      284.229      142.611      199.086        0.296        0.031       71.258        9.871        0.019      332.957        1.957      865.133
10/28/2014  06:27:00      -44.172      -10.611       -3.395       22.757       24.362       12.486      517.899      593.513      155.896        0.167        0.063       45.429        6.807        0.022      332.979        1.993      865.141
10/28/2014  06:28:00      -42.739       -4.813      -13.822       25.043       18.368       14.913      627.167      337.382      222.393        0.161        0.059       43.009       13.397        0.097      332.998        2.027      865.149
10/28/2014  06:29:00      -26.435      -11.520      -12.635       24.619       18.602       15.106      606.086      346.022      228.189        0.109        0.059       28.836       15.013        0.271      333.050        2.112      865.169
10/28/2014  06:30:00      -34.206      -10.892      -15.122       18.659       14.815       11.082      348.148      219.493      122.806        0.110        0.035       35.898        9.801        0.075      333.098        2.191      865.185
10/28/2014  06:31:00      -27.977      -30.486       -6.014       13.495       25.639       14.803      182.116      657.348      219.129        0.140        0.053       41.378       11.801        0.081      333.065        2.135      865.203
10/28/2014  06:32:00      -60.399      -17.381      -16.502       26.261       14.718       11.501      689.617      216.622      132.275        0.263        0.052       62.850        9.240        0.022      332.998        2.026      865.212
10/28/2014  06:33:00      -63.405      -18.231      -11.406       28.693       19.050       12.221      823.266      362.908      149.360        0.291        0.067       65.974       10.069        0.023      332.982        1.999      865.225
10/28/2014  06:34:00      -89.869      -23.012      -11.444       26.840       16.816       12.121      720.380      282.787      146.930        0.494        0.058       92.768        5.851        0.004      332.947        1.942      865.231
10/28/2014  06:35:00      -82.111      -23.198      -13.946       14.175       15.187       11.343      200.937      230.656      128.656        0.402        0.028       85.325        5.374        0.004      332.947        1.941      865.230
10/28/2014  06:36:00      -56.203      -13.108       -8.851       28.842       17.624       14.525      831.855      310.607      210.965        0.238        0.068       57.712       13.815        0.057      332.988        2.008      865.233
10/28/2014  06:37:00      -29.805      -14.662       -3.085       11.408        8.988        7.349      130.152       80.779       54.009        0.069        0.013       33.216        4.039        0.015      333.090        2.178      865.238
10/28/2014  06:38:00      -36.345      -31.105       -4.896       12.716       11.264       11.124      161.704      126.878      123.749        0.136        0.021       47.838        7.572        0.025      333.162        2.295      865.251
10/28/2014  06:39:00      -62.722      -16.482       -4.391       11.638       12.346       11.535      135.447      152.425      133.046        0.232        0.021       64.852        6.414        0.010      333.182        2.327      865.268
10/28/2014  06:40:00      -81.859       -8.551       -9.328       18.564        9.527       12.759      344.610       90.766      162.803        0.373        0.030       82.304        6.540        0.006      333.178        2.321      865.284
10/28/2014  06:41:00     -100.319      -11.816      -16.098       14.505       10.613        7.206      210.384      112.629       51.930        0.542        0.019      101.012        5.713        0.003      333.156        2.286      865.300
10/28/2014  06:42:00      -77.699      -10.536      -13.849       13.216       11.198       11.071      174.672      125.388      122.571        0.338        0.021       78.410        7.098        0.008      333.128        2.240      865.315
10/28/2014  06:43:00      -96.328      -17.407       -9.913       18.842       16.412       13.224      355.023      269.340      174.868        0.524        0.040       97.888       10.133        0.011      333.163        2.297      865.307
10/28/2014  06:44:00      -70.229      -28.704      -12.034       19.400       17.308       13.777      376.344      299.569      189.801        0.338        0.043       75.869        8.737        0.013      333.205        2.366      865.309
10/28/2014  06:45:00      -72.961      -27.047       -3.650       19.601       18.810       11.642      384.201      353.818      135.547        0.347        0.044       77.813        7.457        0.009      333.198        2.354      865.317
10/28/2014  06:46:00      -79.777      -12.957       -8.418       27.290       16.863       18.610      744.727      284.361      346.342        0.399        0.069       80.823       13.548        0.028      333.201        2.359      865.316
10/28/2014  06:47:00      -38.890      -17.656       -5.817       24.832       12.353       10.975      616.616      152.588      120.447        0.137        0.044       42.711        5.619        0.017      333.254        2.447      865.314
10/28/2014  06:48:00      -46.601      -20.312       -7.730       23.385       18.688       15.006      546.866      349.240      225.185        0.188        0.056       50.835       12.783        0.063      333.272        2.478      865.316
10/28/2014  06:49:00      -19.259      -14.054        2.025       19.655       19.339       12.466      386.303      373.985      155.394        0.074        0.046       23.841        4.984        0.044      333.271        2.477      865.328
10/28/2014  06:50:00      -65.600      -38.444       -8.167       34.192       20.087       13.229     1169.113      403.505      175.015        0.380        0.087       76.035       18.380        0.058      333.256        2.452      865.345
10/28/2014  06:51:00      -78.070      -42.793      -11.898       15.898       18.465        9.385      252.752      340.946       88.077        0.437        0.034       89.029        8.369        0.009      333.296        2.517      865.369
10/28/2014  06:52:00      -69.761      -36.828       -4.866       19.440       18.372       10.226      377.921      337.532      104.571        0.353        0.041       78.886        3.826        0.002      333.347        2.602      865.392
10/28/2014  06:53:00      -78.706      -34.487       -5.962       19.600       21.488        9.633      384.145      461.714       92.791        0.418        0.047       85.930        6.693        0.006      333.306        2.534      865.407
10/28/2014  06:54:00      -67.043      -37.146       -4.350       16.256       16.937       11.123      264.269      286.864      123.724        0.328        0.034       76.646        8.114        0.011      333.235        2.415      865.413
10/28/2014  06:55:00      -42.275      -24.949        4.878       36.365       23.690       16.867     1322.448      561.218      284.484        0.230        0.108       49.088       17.765        0.131      333.183        2.329      865.415
10/28/2014  06:56:00      -45.184      -37.653        3.836       38.665       19.718       17.667     1494.972      388.783      312.123        0.283        0.110       58.816       19.710        0.112      333.215        2.384      865.407
10/28/2014  06:57:00      -78.901      -32.212       -2.581       21.120       14.848       14.294      446.063      220.471      204.304        0.407        0.044       85.223        8.355        0.010      333.268        2.470      865.400
10/28/2014  06:58:00      -68.141      -30.947       -4.510       23.303       19.472       14.543      543.020      379.178      211.503        0.338        0.057       74.839       11.131        0.022      333.191        2.343      865.395
10/28/2014  06:59:00      -77.673      -44.819       -1.601       27.216       16.539       12.030      740.730      273.533      144.716        0.460        0.058       89.676       10.682        0.014      333.186        2.335      865.404
10/28/2014  07:00:00      -81.297      -38.061       -8.056       24.133       18.512       15.397      582.410      342.681      237.079        0.464        0.058       89.765       12.582        0.020      333.193        2.347      865.424
10/28/2014  07:01:00     -101.076      -49.045       -4.715       16.704       17.751       12.311      279.030      315.098      151.556        0.669        0.037      112.347        8.232        0.005      333.164        2.299      865.440
10/28/2014  07:02:00     -106.142      -23.506      -11.284       24.430       18.665       15.468      596.810      348.381      239.251        0.656        0.059      108.714       12.722        0.014      333.172        2.311      865.455
10/28/2014  07:03:00      -89.372      -17.157       -5.035       20.277       19.068       13.247      411.161      363.592      175.483        0.463        0.048       91.004        9.886        0.012      333.053        2.117      865.468
10/28/2014  07:04:00      -71.893      -30.514       -0.194       24.087       30.577       12.559      580.192      934.965      157.732        0.389        0.084       78.100        7.214        0.009      333.107        2.206      865.486
10/28/2014  07:05:00      -63.277      -27.719        4.958       31.606       20.413       14.875      998.942      416.676      221.275        0.322        0.082       69.082       14.988        0.047      332.951        1.947      865.499
10/28/2014  07:06:00     -104.805      -27.901        0.600       27.597       30.360       16.881      761.573      921.730      284.978        0.687        0.098      108.455       15.213        0.020      332.941        1.930      865.517
10/28/2014  07:07:00      -68.642      -45.232        3.954       35.618       29.866       18.629     1268.644      891.968      347.036        0.464        0.125       82.205       13.705        0.028      333.112        2.213      865.542
10/28/2014  07:08:00      -36.443      -30.536        6.025       35.763       27.840       18.278     1279.008      775.063      334.095        0.234        0.119       47.545       18.915        0.158      333.199        2.358      865.568
10/28/2014  07:09:00      -31.446      -12.128        5.223       24.768       24.130       14.207      613.452      582.253      201.836        0.128        0.070       33.704       12.947        0.148      333.164        2.298      865.588
10/28/2014  07:10:00      -86.134       13.055       -5.930       18.810       15.777       10.813      353.806      248.924      116.910        0.417        0.036       87.118        6.938        0.006      332.965        1.971      865.617
10/28/2014  07:11:00      -95.769      -11.354       -6.106       31.882       21.087       15.580     1016.443      444.662      242.734        0.552        0.085       96.439       18.283        0.036      333.016        2.055      865.631
10/28/2014  07:12:00      -76.554      -18.219       -4.842       22.664       20.358       13.963      513.666      414.458      194.954        0.367        0.056       78.692       11.730        0.022      332.996        2.022      865.646
10/28/2014  07:13:00      -77.348       -8.737       -6.864       23.793       17.725       12.160      566.130      314.187      147.857        0.357        0.051       77.840       10.572        0.018      332.980        1.995      865.652
10/28/2014  07:14:00      -70.855       -5.790       -3.815       20.968       16.701       13.561      439.646      278.938      183.911        0.299        0.045       71.092       11.966        0.028      333.055        2.121      865.660
10/28/2014  07:15:00      -83.187       -9.257       -7.633       31.101       15.900       15.271      967.288      252.811      233.218        0.426        0.073       83.700       16.116        0.037      333.055        2.120      865.675
10/28/2014  07:16:00     -111.629      -13.941      -11.954       24.852       19.026       14.148      617.601      361.991      200.157        0.699        0.059      112.497        7.380        0.004      333.019        2.060      865.689
10/28/2014  07:17:00      -71.328      -23.036       -7.653       26.290       20.898       17.347      691.180      436.706      300.921        0.355        0.071       74.955       14.945        0.040      332.979        1.993      865.693
10/28/2014  07:18:00      -56.798      -35.299       -3.252       18.437       18.740       14.898      339.912      351.200      221.949        0.270        0.046       66.874        8.674        0.017      333.031        2.079      865.698
10/28/2014  07:19:00      -71.539      -19.369       -5.333       18.476       16.903       16.075      341.358      285.712      258.393        0.320        0.044       74.115       11.855        0.026      333.002        2.030      865.699
10/28/2014  07:20:00      -94.976      -12.016      -11.079       19.201       17.400       15.297      368.673      302.754      233.985        0.510        0.045       95.733       11.873        0.015      332.967        1.972      865.701
10/28/2014  07:21:00      -77.216      -11.621       -7.587       27.400       18.595       16.613      750.740      345.789      275.995        0.376        0.069       78.086       12.187        0.024      332.991        2.014      865.708
10/28/2014  07:22:00      -85.361      -11.747      -17.341       23.635       13.525        9.859      558.590      182.924       97.197        0.428        0.042       86.166        5.142        0.004      332.979        1.994      865.714
10/28/2014  07:23:00      -68.465      -22.881      -11.882       17.977       15.873       13.081      323.190      251.966      171.104        0.305        0.037       72.188        9.549        0.017      333.024        2.068      865.727
10/28/2014  07:24:00      -69.696      -12.022      -10.871       17.688       11.193       13.243      312.863      125.273      175.388        0.287        0.031       70.725       11.655        0.027      333.011        2.047      865.740
10/28/2014  07:25:00      -72.164       -5.478       -9.011       13.651       14.614       11.115      186.360      213.584      123.544        0.292        0.026       72.372        7.253        0.010      333.057        2.124      865.755
10/28/2014  07:26:00      -72.986      -10.047      -15.101       10.460        9.681        7.548      109.403       93.716       56.973        0.296        0.013       73.674        2.313        0.001      333.059        2.127      865.765
10/28/2014  07:27:00      -75.524      -14.739       -8.815       19.304       14.247        9.964      372.640      202.985       99.281        0.334        0.034       76.948        9.474        0.015      333.086        2.171      865.764
10/28/2014  07:28:00      -79.628       -5.349       -7.376       14.722       12.213       11.311      216.749      149.160      127.938        0.346        0.025       79.808        7.448        0.009      333.028        2.076      865.765
10/28/2014  07:29:00      -49.975      -13.846      -11.393       10.642        9.968       11.183      113.253       99.370      125.061        0.158        0.017       51.857        7.289        0.020      333.142        2.263      865.770
10/28/2014  07:30:00      -56.665      -15.992      -12.411       13.530        9.634        8.752      183.060       92.812       76.606        0.199        0.018       58.879        6.059        0.011      333.097        2.190      865.782
10/28/2014  07:31:00      -85.729      -12.237      -10.754       13.537       10.398       10.361      183.259      108.128      107.355        0.401        0.020       86.598        7.785        0.008      333.125        2.235      865.803
10/28/2014  07:32:00      -83.913      -13.664       -7.295       15.842       15.581       12.656      250.955      242.752      160.177        0.397        0.033       85.018        4.902        0.003      333.094        2.183      865.819
10/28/2014  07:33:00      -67.744      -15.423       -3.531       23.357       12.457       10.174      545.545      155.165      103.520        0.282        0.040       69.478       13.158        0.036      333.081        2.163      865.835
10/28/2014  07:34:00      -66.192      -20.697      -10.138       18.317       17.557        9.307      335.511      308.249       86.617        0.282        0.037       69.352        9.573        0.019      333.162        2.296      865.840
10/28/2014  07:35:00      -41.697      -32.789       -3.031       18.243       15.000       12.623      332.824      225.008      159.328        0.177        0.036       53.045        8.979        0.029      333.228        2.403      865.842
10/28/2014  07:36:00      -26.312      -25.331        1.335       19.101       21.475       18.855      364.849      461.184      355.521        0.126        0.059       36.523       15.424        0.178      333.171        2.309      865.854
10/28/2014  07:37:00      -40.598      -20.144       -3.333       17.609       13.849        9.173      310.092      191.802       84.136        0.133        0.029       45.321        7.845        0.030      333.179        2.322      865.871
10/28/2014  07:38:00      -51.644      -14.392       -7.265       12.205       12.988        8.219      148.962      168.678       67.554        0.166        0.019       53.612        5.911        0.012      333.222        2.394      865.888
10/28/2014  07:39:00      -48.720      -28.281       -4.426       22.214       16.465       13.577      493.482      271.089      184.344        0.207        0.047       56.333        9.605        0.029      333.246        2.435      865.899
10/28/2014  07:40:00      -69.141      -33.376      -11.214       22.359       11.824       11.292      499.937      139.812      127.519        0.339        0.038       76.775       10.853        0.020      333.296        2.517      865.909
10/28/2014  07:41:00      -68.004      -25.643       -4.556       18.929       18.770       13.692      358.322      352.311      187.472        0.310        0.045       72.678       11.207        0.024      333.335        2.583      865.918
10/28/2014  07:42:00      -74.327      -13.932       -4.690       16.175       11.550       10.445      261.638      133.410      109.094        0.312        0.025       75.622        7.138        0.009      333.365        2.631      865.939
10/28/2014  07:43:00      -89.690       -1.503      -12.781       11.721        7.082        7.718      137.374       50.152       59.568        0.423        0.012       89.703        6.344        0.005      333.360        2.624      865.959
10/28/2014  07:44:00      -74.637       -7.445       -8.171       11.512        8.564        8.211      132.529       73.337       67.422        0.298        0.014       75.008        5.006        0.004      333.469        2.804      865.973
10/28/2014  07:45:00      -67.642       -2.557       -4.934       14.518       12.024       11.283      210.762      144.570      127.313        0.254        0.024       67.691        5.899        0.008      333.458        2.785      865.978
10/28/2014  07:46:00      -76.909       -7.706       -9.810       12.942       10.647       10.510      167.488      113.350      110.459        0.323        0.020       77.294        6.406        0.007      333.454        2.778      865.977
10/28/2014  07:47:00      -68.652       -5.107       -9.005       13.642       11.341        9.477      186.116      128.615       89.804        0.261        0.020       68.842        7.254        0.011      333.459        2.787      865.991
10/28/2014  07:48:00      -64.677        3.440       -6.065       14.164       10.399        9.357      200.612      108.145       87.545        0.231        0.020       64.769        4.552        0.005      333.438        2.751      865.994
10/28/2014  07:49:00      -66.667       -4.555       -7.232       19.902       12.723       10.299      396.080      161.887      106.078        0.259        0.033       66.822        6.208        0.009      333.435        2.747      866.010
10/28/2014  07:50:00      -71.309        1.207       -7.094       18.797        9.666       10.958      353.333       93.435      120.077        0.285        0.028       71.319        9.119        0.016      333.445        2.763      866.023
10/28/2014  07:51:00      -73.289        1.459       -4.352       28.397       17.031       13.664      806.381      290.064      186.694        0.334        0.064       73.304       14.880        0.041      333.411        2.708      866.032
10/28/2014  07:52:00      -55.107       -8.454       -6.434       22.559       18.422       17.740      508.930      339.355      314.710        0.216        0.058       55.752       15.041        0.073      333.462        2.790      866.044
10/28/2014  07:53:00      -85.313       -4.663       -8.805       27.526       10.733       13.168      757.684      115.197      173.388        0.421        0.052       85.440       14.335        0.028      333.487        2.834      866.041
10/28/2014  07:54:00      -86.849       -9.371       -8.752       18.075       18.733       10.943      326.712      350.924      119.741        0.425        0.040       87.353        9.047        0.011      333.453        2.777      866.059
10/28/2014  07:55:00      -51.021      -36.523        5.487       30.636       20.917       16.677      938.553      437.518      278.110        0.281        0.083       62.746       17.491        0.078      333.607        3.033      866.072
10/28/2014  07:56:00      -66.230      -26.935       -0.591       16.756       16.555       13.491      280.770      274.064      182.000        0.292        0.037       71.497        6.566        0.008      333.520        2.888      866.089
10/28/2014  07:57:00      -65.064      -29.306       -4.011       21.888       12.976       10.359      479.071      168.387      107.316        0.293        0.038       71.360        7.061        0.010      333.567        2.966      866.104
10/28/2014  07:58:00      -54.116      -20.531       -2.285       22.390       13.902       10.162      501.291      193.274      103.259        0.208        0.040       57.880       13.320        0.053      333.612        3.042      866.134
10/28/2014  07:59:00      -65.226       -3.076       -3.761       10.645       10.296        6.638      113.313      106.003       44.065        0.227        0.013       65.298        4.402        0.005      333.629        3.069      866.163
10/28/2014  08:00:00      -38.313       -2.887       -0.107       16.649       12.700       11.062      277.186      161.302      122.360        0.102        0.028       38.422       11.747        0.093      333.711        3.206      866.190
10/28/2014  08:01:00      -34.241       -1.753        1.336       10.280       13.323        7.755      105.679      177.505       60.141        0.076        0.017       34.285        5.079        0.022      333.778        3.317      866.206
10/28/2014  08:02:00      -21.191        0.273        4.602       13.466       11.661       10.718      181.327      135.981      114.876        0.045        0.022       21.193        8.573        0.164      333.957        3.613      866.227
10/28/2014  08:03:00      -21.852        0.619       -0.361        9.165        5.006        6.105       84.004       25.062       37.274        0.031        0.007       21.860        6.219        0.081      333.932        3.574      866.244
10/28/2014  08:04:00      -38.478        8.696       -2.612        5.087        5.207        3.921       25.879       27.113       15.374        0.082        0.003       39.448        1.977        0.003      333.835        3.411      866.260
10/28/2014  08:05:00      -27.163        1.081       -1.195        7.765        2.827        2.685       60.290        7.989        7.212        0.041        0.004       27.185        1.018        0.001      333.892        3.506      866.276
10/28/2014  08:06:00       -2.779        2.593        6.733        5.170        7.543        6.391       26.731       56.899       40.849        0.009        0.006        3.801        3.924        1.066      334.335        4.240      866.288
10/28/2014  08:07:00       -5.430       10.158        0.971        5.858        7.682        7.772       34.321       59.015       60.411        0.014        0.008       11.519        5.616        0.238      334.190        3.999      866.303
10/28/2014  08:08:00       -8.958        9.050       -1.552       14.989        5.999        6.715      224.676       35.987       45.092        0.024        0.015       12.734        4.157        0.107      334.115        3.873      866.322
10/28/2014  08:09:00      -34.126       -1.030       -6.155        4.600        3.290        4.400       21.159       10.826       19.363        0.063        0.003       34.141        2.536        0.006      334.039        3.749      866.341
10/28/2014  08:10:00      -38.620        3.993       -1.926        8.384        7.104        7.241       70.296       50.468       52.433        0.084        0.009       38.825        6.399        0.027      334.085        3.826      866.354
10/28/2014  08:11:00      -28.690        8.163       -5.471        6.932        7.844        6.088       48.050       61.525       37.062        0.053        0.007       29.829        3.721        0.016      334.087        3.828      866.367
10/28/2014  08:12:00      -23.232       11.514       -9.178       11.376       11.104        7.616      129.424      123.288       58.002        0.053        0.016       25.928        8.140        0.099      334.202        4.021      866.380
10/28/2014  08:13:00      -17.940        0.722        0.436        9.817        4.577       10.164       96.382       20.945      103.315        0.027        0.011       17.955        8.053        0.201      334.277        4.145      866.393
10/28/2014  08:14:00        0.172        2.962        8.629       11.745        8.123        7.929      137.950       65.990       62.866        0.017        0.013        2.967        4.605        2.409      334.597        4.675      866.412
10/28/2014  08:15:00       -7.834       11.603        8.701       14.488       13.049       11.528      209.916      170.271      132.896        0.039        0.026       14.000        9.700        0.480      334.502        4.517      866.430
10/28/2014  08:16:00        4.465       -0.026       10.031       17.399        7.258        7.307      302.711       52.674       53.391        0.026        0.020        4.465        7.156        2.569      334.593        4.668      866.454
10/28/2014  08:17:00       37.645       21.790        0.536       15.071        8.940       13.194      227.121       79.932      174.083        0.119        0.024       43.496        6.827        0.025      334.303        4.187      866.470
10/28/2014  08:18:00       61.920       30.120        0.498       14.993       19.839       17.233      224.802      393.583      296.971        0.283        0.046       68.857       11.399        0.027      334.315        4.206      866.486
10/28/2014  08:19:00       57.438       52.572        7.357       15.258       13.274       13.060      232.811      176.186      170.566        0.335        0.029       77.865        5.941        0.006      334.292        4.168      866.497
10/28/2014  08:20:00       17.979       24.169       19.193       26.110       25.724       17.466      681.735      661.744      305.076        0.146        0.082       30.123       14.512        0.232      334.673        4.801      866.507
10/28/2014  08:21:00       59.597       42.748        7.139       19.737       19.209       18.484      389.553      368.983      341.656        0.326        0.055       73.343       12.411        0.029      334.356        4.275      866.523
10/28/2014  08:22:00       69.069       46.518        5.059       18.987       16.924       18.025      360.491      286.437      324.888        0.397        0.049       83.273       10.086        0.015      334.386        4.325      866.543
10/28/2014  08:23:00       90.634       57.036       -1.018       14.640       15.638       16.727      214.343      244.560      279.788        0.610        0.037      107.087        8.965        0.007      334.319        4.215      866.556
10/28/2014  08:24:00       69.471       46.272       -1.901       16.535       14.403       17.849      273.416      207.433      318.588        0.389        0.040       83.471        4.767        0.003      334.351        4.267      866.574
10/28/2014  08:25:00       82.552       59.738       -3.900       13.723       12.641       17.689      188.317      159.794      312.906        0.553        0.033      101.900        8.405        0.007      334.330        4.232      866.584
10/28/2014  08:26:00       65.897       51.928       12.282       16.430       12.304       18.527      269.935      151.394      343.248        0.398        0.038       83.898        8.264        0.010      334.416        4.375      866.607
10/28/2014  08:27:00       68.942       53.453        5.064       11.832       10.334       15.054      139.989      106.781      226.627        0.405        0.024       87.236        6.509        0.006      334.365        4.290      866.609
10/28/2014  08:28:00       54.912       33.369       -5.368       16.014       14.397       14.367      256.446      207.281      206.424        0.241        0.034       64.256       10.445        0.026      334.404        4.353      866.606
10/28/2014  08:29:00       53.046       37.845       18.573       22.494       19.653       17.753      505.979      386.221      315.184        0.290        0.060       65.162       14.150        0.047      334.559        4.612      866.607
10/28/2014  08:30:00       30.247       33.501        9.304       27.339       21.713       16.957      747.417      471.466      287.555        0.181        0.075       45.135        6.300        0.019      334.723        4.884      866.601
10/28/2014  08:31:00       29.572       22.281       18.115       25.259       25.072       21.311      638.038      628.601      454.157        0.171        0.086       37.027       18.204        0.242      334.822        5.048      866.602
10/28/2014  08:32:00       49.826       36.477       12.471       28.649       24.423       19.641      820.794      596.487      385.760        0.289        0.090       61.751       15.758        0.065      334.780        4.979      866.605
10/28/2014  08:33:00       49.835       27.366        7.201       19.282       21.584       21.584      371.804      465.858      465.880        0.229        0.065       56.855        5.935        0.011      334.800        5.012      866.614
10/28/2014  08:34:00        2.902       13.506       24.732       22.188       25.043       24.357      492.324      627.167      593.279        0.126        0.086       13.815       15.529        1.264      335.115        5.536      866.613
10/28/2014  08:35:00        5.074       58.074       69.472       22.191       28.381       19.593      492.419      805.499      383.877        0.495        0.084       58.295       20.892        0.128      334.966        5.288      866.606
10/28/2014  08:36:00       12.616       56.490       61.464       21.980       25.360       11.200      483.107      643.123      125.431        0.419        0.063       57.881       10.016        0.030      334.903        5.184      866.600
10/28/2014  08:37:00        0.744       -1.477       31.213       18.650       37.969       18.851      347.841     1441.655      355.361        0.156        0.107        1.654       22.842      190.775      335.005        5.352      866.592
10/28/2014  08:38:00        8.189      -10.675       18.561       21.675       36.139       26.624      469.804     1306.054      708.814        0.150        0.124       13.454       17.787        1.748      335.166        5.619      866.582
10/28/2014  08:39:00       13.950       -5.800       22.779       25.698       23.302       23.081      660.408      543.002      532.754        0.124        0.087       15.108       18.870        1.560      335.219        5.708      866.581
10/28/2014  08:40:00        1.224       21.166       27.832       11.762       19.551       21.160      138.341      382.222      447.760        0.110        0.048       21.202       12.321        0.338      335.272        5.796      866.591
10/28/2014  08:41:00       41.477       45.761       40.286       29.020       20.636       21.280      842.136      425.837      452.823        0.358        0.086       61.761       18.836        0.093      334.927        5.221      866.596
10/28/2014  08:42:00       12.401       30.998       38.735       20.429       18.307       11.948      417.359      335.151      142.760        0.175        0.045       33.387       10.297        0.095      335.116        5.536      866.615
10/28/2014  08:43:00       99.345       48.857       20.381       36.469       34.139       23.041     1330.008     1165.442      530.894        0.785        0.151      110.709       15.552        0.020      334.798        5.007      866.631
10/28/2014  08:44:00       59.892       44.949       18.000       42.109       34.005       23.913     1773.196     1156.351      571.855        0.472        0.175       74.883        7.737        0.011      334.949        5.261      866.636
10/28/2014  08:45:00       70.586       55.902       31.373       40.993       30.888       26.009     1680.437      954.092      676.449        0.620        0.166       90.041       15.892        0.031      335.027        5.389      866.643
10/28/2014  08:46:00       88.685       50.857        4.859       30.391       26.690       29.122      923.620      712.376      848.116        0.648        0.124      102.232       15.866        0.024      334.890        5.163      866.657
10/28/2014  08:47:00       74.226       45.096        8.185       31.508       28.544       32.024      992.755      814.773     1025.545        0.522        0.142       86.852       14.929        0.030      335.033        5.399      866.667
10/28/2014  08:48:00       64.174       23.773        4.517       31.958       29.146       25.620     1021.331      849.505      656.404        0.362        0.126       68.436       12.500        0.033      334.973        5.300      866.675
10/28/2014  08:49:00       35.159       42.759       17.591       29.106       24.365       22.109      847.169      593.676      488.802        0.265        0.096       55.358       13.964        0.064      335.258        5.772      866.683
10/28/2014  08:50:00       43.266       50.133       27.645       24.846       21.662       26.729      617.306      469.239      714.455        0.347        0.090       66.221       15.672        0.056      335.190        5.659      866.698
10/28/2014  08:51:00       46.564       23.556       10.692       26.767       33.200       23.585      716.466     1102.232      556.259        0.261        0.119       52.184       20.531        0.155      335.290        5.827      866.705
10/28/2014  08:52:00       51.221       13.953       19.159       40.878       46.047       33.083     1671.013     2120.318     1094.452        0.403        0.244       53.088       34.175        0.414      335.235        5.735      866.708
10/28/2014  08:53:00       57.351       56.530       13.006       19.825       19.260       18.344      393.022      370.934      336.499        0.388        0.055       80.528        5.576        0.005      334.980        5.311      866.707
10/28/2014  08:54:00       36.242       36.085       28.746       38.911       31.426       26.918     1514.054      987.589      724.570        0.333        0.161       51.143       23.303        0.208      335.495        6.167      866.707
10/28/2014  08:55:00       20.659       49.149       65.019       34.188       43.033       21.071     1168.804     1851.813      443.984        0.527        0.173       53.314       28.434        0.284      335.541        6.245      866.708
10/28/2014  08:56:00       42.445       36.184       58.648       35.475       26.841       31.007     1258.478      720.435      961.441        0.474        0.147       55.774       24.399        0.191      335.307        5.854      866.718
10/28/2014  08:57:00       22.440       45.207       53.436       35.748       39.892       32.437     1277.949     1591.384     1052.152        0.466        0.196       50.470       28.415        0.317      335.283        5.814      866.732
10/28/2014  08:58:00       55.778       13.461       34.559       36.387       58.066       34.698     1324.032     3371.684     1203.985        0.519        0.295       57.380       36.222        0.398      335.241        5.745      866.735
10/28/2014  08:59:00       51.940       25.347       32.485       49.549       46.593       27.056     2455.063     2170.951      732.025        0.488        0.268       57.794       28.986        0.252      335.322        5.879      866.750
10/28/2014  09:00:00       89.745       63.966        8.665       34.830       38.092       34.520     1213.100     1450.998     1191.606        0.804        0.193      110.208       20.800        0.036      335.161        5.611      866.767
10/28/2014  09:01:00       94.204       56.678       -2.102       29.138       32.983       22.861      849.042     1087.870      522.627        0.727        0.123      109.940       15.873        0.021      335.023        5.381      866.788
10/28/2014  09:02:00       41.873       44.193       19.731       33.611       34.417       32.106     1129.677     1184.513     1030.786        0.372        0.167       60.880       23.504        0.149      335.448        6.089      866.811
10/28/2014  09:03:00       69.357       62.657      -12.807       40.286       40.961       27.209     1622.923     1677.829      740.350        0.647        0.202       93.469       22.275        0.057      335.415        6.035      866.831
10/28/2014  09:04:00       83.946       62.287        5.217       38.987       29.314       28.644     1519.954      859.318      820.465        0.708        0.160      104.531       18.026        0.030      335.366        5.951      866.851
10/28/2014  09:05:00       78.536       57.770       10.505       36.414       22.499       28.943     1326.014      506.216      837.687        0.614        0.133       97.495       13.016        0.018      335.365        5.952      866.864
10/28/2014  09:06:00       55.567       82.740      -13.469       31.040       28.564       20.910      963.492      815.915      437.233        0.617        0.111       99.668       15.867        0.025      335.268        5.788      866.872
10/28/2014  09:07:00       56.599       41.070        1.731       25.860       21.701       24.732      668.749      470.943      611.671        0.332        0.088       69.930       13.558        0.038      335.203        5.681      866.879
10/28/2014  09:08:00       49.770       23.451        3.604       27.341       25.602       23.248      747.552      655.455      540.492        0.249        0.097       55.018       10.471        0.036      335.302        5.845      866.884
10/28/2014  09:09:00       76.027       62.405        7.205       27.983       23.886       23.589      783.045      570.538      556.435        0.582        0.096       98.359       11.223        0.013      335.379        5.974      866.876
10/28/2014  09:10:00       54.106       54.636        4.770       29.042       23.101       20.894      843.464      533.641      436.560        0.387        0.091       76.893       12.151        0.025      335.402        6.011      866.875
10/28/2014  09:11:00       76.238       58.341        5.874       31.877       20.381       25.103     1016.148      415.375      630.178        0.566        0.103       96.000       20.596        0.046      335.366        5.953      866.881
10/28/2014  09:12:00       72.052       60.855        8.875       22.568       15.275       19.538      509.333      233.312      381.752        0.505        0.056       94.312       15.761        0.028      335.333        5.898      866.882
10/28/2014  09:13:00       62.562       61.270        4.100       23.978       25.482       23.903      574.960      649.337      571.371        0.474        0.090       87.567       17.507        0.040      335.417        6.036      866.881
10/28/2014  09:14:00       25.707       67.931        3.292       36.581       45.293       33.478     1338.189     2051.412     1120.745        0.490        0.226       72.632       30.419        0.175      335.622        6.378      866.877
10/28/2014  09:15:00      -10.710       29.424       11.562       23.952       49.046       22.709      573.685     2405.489      515.714        0.230        0.175       31.312       20.818        0.442      335.829        6.722      866.885
10/28/2014  09:16:00        7.826       24.079       44.778       22.228       24.645       21.369      494.095      607.400      456.634        0.210        0.078       25.319       14.804        0.342      336.170        7.293      866.893
10/28/2014  09:17:00       21.752       52.016       60.149       29.777       27.254       15.840      886.661      742.801      250.902        0.434        0.094       56.380       14.762        0.069      335.840        6.742      866.899
10/28/2014  09:18:00       28.423       30.253       50.614       18.476       26.325       14.297      341.376      693.020      204.417        0.276        0.062       41.510       15.237        0.135      335.776        6.635      866.916
10/28/2014  09:19:00       16.371       25.299       41.765       22.163       23.004       14.013      491.213      529.204      196.357        0.193        0.061       30.134        5.809        0.037      336.010        7.024      866.923
10/28/2014  09:20:00       22.603       26.933       18.746       26.305       15.378       21.129      691.936      236.490      446.423        0.148        0.069       35.160       18.057        0.264      335.981        6.976      866.935
10/28/2014  09:21:00       -7.536       20.123       36.294       22.044       21.345       18.849      485.918      455.589      355.267        0.154        0.065       21.488       15.636        0.529      336.415        7.701      866.933
10/28/2014  09:22:00       -3.651       20.721       57.495       19.255       34.704       21.906      370.753     1204.369      479.893        0.290        0.103       21.041       20.551        0.954      336.399        7.674      866.926
10/28/2014  09:23:00       68.317       74.741       65.641       30.124       20.066       23.932      907.434      402.640      572.742        0.822        0.094      101.259       13.926        0.019      335.703        6.514      866.920
10/28/2014  09:24:00       56.074       40.374       18.281       30.992       26.256       34.801      960.520      689.390     1211.141        0.398        0.143       69.096       18.221        0.070      335.770        6.628      866.916
10/28/2014  09:25:00       32.740       18.006       32.805       24.488       45.235       30.500      599.686     2046.213      930.223        0.302        0.179       37.365       30.002        0.645      335.875        6.800      866.906
10/28/2014  09:26:00       35.096       33.024       16.485       30.525       16.501       21.778      931.753      272.276      474.271        0.214        0.084       48.190       10.984        0.052      335.799        6.673      866.894
10/28/2014  09:27:00       19.143       30.454       40.436       26.465       28.020       20.574      700.404      785.128      423.275        0.242        0.095       35.970       14.290        0.158      336.230        7.392      866.890
10/28/2014  09:28:00       29.026        4.722       41.345       34.145       27.405       28.739     1165.863      751.054      825.955        0.266        0.137       29.408       25.120        0.730      336.207        7.354      866.893
10/28/2014  09:29:00       10.510      -32.835       23.326       35.971       57.242       33.416     1293.904     3276.677     1116.624        0.371        0.284       34.476       34.643        1.010      336.341        7.577      866.880
10/28/2014  09:30:00        9.223      -15.064       49.346       28.406       63.221       37.216      806.898     3996.840     1385.031        0.447        0.309       17.663       43.122        5.960      336.409        7.691      866.869
10/28/2014  09:31:00       24.464       47.999       57.904       35.895       30.624       23.041     1288.442      937.810      530.877        0.451        0.138       53.874        5.494        0.010      336.319        7.541      866.879
10/28/2014  09:32:00       40.861       20.075       37.700       41.706       27.241       26.886     1739.370      742.063      722.872        0.335        0.160       45.526       25.046        0.303      336.317        7.538      866.892
10/28/2014  09:33:00       14.590       48.959       62.497       32.500       40.598       26.045     1056.251     1648.169      678.356        0.495        0.169       51.087       17.289        0.115      336.437        7.739      866.895
10/28/2014  09:34:00        8.784       23.687       69.080       29.012       42.517       17.662      841.718     1807.688      311.932        0.419        0.148       25.263       23.241        0.846      336.281        7.478      866.899
10/28/2014  09:35:00       47.745       56.825       78.054       52.823       36.700       36.407     2790.218     1346.924     1325.486        0.853        0.273       74.220       14.915        0.040      336.270        7.458      866.898
10/28/2014  09:36:00       80.798       59.589       12.595       31.790       32.004       37.183     1010.590     1024.225     1382.548        0.683        0.171      100.395       12.191        0.015      336.191        7.326      866.901
10/28/2014  09:37:00      104.783       77.586       18.243       46.735       34.897       42.527     2184.175     1217.814     1808.505        1.127        0.261      130.381       28.675        0.048      336.148        7.256      866.895
10/28/2014  09:38:00       86.652       66.711       60.836       54.348       38.617       32.694     2953.732     1491.309     1068.904        1.059        0.276      109.357       13.906        0.016      336.239        7.407      866.891
10/28/2014  09:39:00      113.051       65.153        9.878       39.643       39.847       37.220     1571.597     1587.799     1385.359        1.083        0.227      130.482       24.869        0.036      336.105        7.182      866.869
10/28/2014  09:40:00       82.009       83.714       18.139       50.630       42.866       29.768     2563.366     1837.458      886.131        0.967        0.264      117.190       23.278        0.039      336.201        7.343      866.850
10/28/2014  09:41:00       78.982       63.029        6.147       42.851       38.621       35.328     1836.244     1491.562     1248.082        0.741        0.229      101.049       20.546        0.041      336.325        7.550      866.840
10/28/2014  09:42:00        9.731       46.989       -0.620       32.906       35.307       28.040     1082.824     1246.584      786.263        0.271        0.156       47.986       17.041        0.126      336.518        7.873      866.838
10/28/2014  09:43:00       72.354       71.696       19.777       39.365       46.521       38.987     1549.633     2164.225     1519.960        0.800        0.262      101.860       26.090        0.066      336.494        7.833      866.826
10/28/2014  09:44:00       74.402       65.968       23.841       45.346       34.860       38.914     2056.252     1215.216     1514.283        0.762        0.239       99.435       22.012        0.049      336.303        7.515      866.821
10/28/2014  09:45:00       72.697       61.365       -2.150       27.938       26.582       26.049      780.538      706.602      678.544        0.561        0.108       95.134       13.111        0.019      336.266        7.451      866.817
10/28/2014  09:46:00       54.132       58.070       11.974       27.611       21.993       27.896      762.385      483.686      778.205        0.423        0.101       79.388       11.375        0.021      336.335        7.569      866.809
10/28/2014  09:47:00       70.717       73.718        5.011       35.056       34.599       28.234     1228.928     1197.116      797.163        0.684        0.161      102.153       21.554        0.045      336.344        7.582      866.804
10/28/2014  09:48:00       61.279       68.693       11.886       45.558       33.670       30.012     2075.533     1133.680      900.698        0.636        0.205       92.054       29.826        0.105      336.486        7.820      866.799
10/28/2014  09:49:00       60.224       61.374       75.074       50.381       43.681       32.094     2538.226     1908.001     1030.005        0.925        0.274       85.987       32.438        0.142      336.483        7.815      866.789
10/28/2014  09:50:00       53.204       51.887       60.033       42.481       35.813       28.625     1804.664     1282.545      819.394        0.652        0.195       74.316       25.026        0.113      336.356        7.604      866.774
10/28/2014  09:51:00       27.376       48.342       62.197       30.749       21.689       17.307      945.473      470.416      299.543        0.433        0.086       55.555       12.653        0.052      336.511        7.862      866.756
10/28/2014  09:52:00       14.106       42.773       74.237       35.514       29.767       21.254     1261.278      886.092      451.724        0.507        0.130       45.039       14.176        0.099      336.818        8.375      866.737
10/28/2014  09:53:00       89.636       67.442       52.423       70.701       58.243       50.709     4998.620     3392.198     2571.434        1.314        0.548      112.174       43.966        0.154      336.490        7.827      866.725
10/28/2014  09:54:00       90.141       53.656        2.737       44.070       51.333       37.834     1942.138     2635.068     1431.441        0.851        0.300      104.902       12.689        0.015      336.710        8.195      866.722
10/28/2014  09:55:00       27.452       13.276       38.645       33.391       45.701       27.774     1114.929     2088.577      771.375        0.320        0.199       30.494       15.975        0.274      337.012        8.700      866.724
10/28/2014  09:56:00       32.236      -44.506       21.427       43.380       67.130       33.719     1881.836     4506.500     1136.947        0.550        0.376       54.954       37.611        0.468      337.054        8.769      866.728
10/28/2014  09:57:00       45.044      -43.838       19.779       55.973       70.021       48.599     3132.950     4902.911     2361.877        0.737        0.520       62.855       58.167        0.856      336.901        8.514      866.729
10/28/2014  09:58:00       -3.584       45.545       60.185       19.204       26.455       18.468      368.792      699.859      341.055        0.356        0.070       45.686       15.717        0.118      337.051        8.764      866.724
10/28/2014  09:59:00       14.634       18.610       29.560       23.892       37.169       27.273      570.815     1381.509      743.823        0.206        0.135       23.674       26.712        1.273      336.883        8.483      866.716
10/28/2014  10:00:00        3.740       33.088       59.989       39.620       51.242       38.914     1569.747     2625.702     1514.285        0.521        0.285       33.299       29.497        0.785      337.079        8.810      866.716
10/28/2014  10:01:00       81.096       98.687       65.904       48.740       38.730       49.317     2375.547     1500.023     2432.184        1.348        0.315      127.733       25.460        0.040      336.575        7.970      866.704
10/28/2014  10:02:00      120.198      113.971       75.911       47.136       42.064       48.458     2221.757     1769.406     2348.135        1.977        0.317      165.641       36.774        0.049      336.538        7.906      866.693
10/28/2014  10:03:00       81.568       89.563       77.487       54.459       52.152       47.764     2965.828     2719.831     2281.405        1.432        0.398      121.140       36.853        0.093      336.693        8.166      866.677
10/28/2014  10:04:00      122.430       77.620       33.327       34.168       32.366       33.815     1167.477     1047.536     1143.471        1.274        0.168      144.962       19.722        0.019      336.469        7.793      866.664
10/28/2014  10:05:00       89.035       92.505       48.121       41.682       32.752       39.356     1737.362     1072.688     1548.933        1.158        0.218      128.392       30.648        0.057      336.543        7.916      866.651
10/28/2014  10:06:00       70.199       70.071       12.617       26.839       24.530       27.778      720.341      601.699      771.604        0.604        0.105       99.186       19.520        0.039      336.569        7.960      866.645
10/28/2014  10:07:00       24.062       42.620       -0.258       27.646       30.627       26.891      764.325      938.022      723.137        0.241        0.121       48.944       18.553        0.144      337.049        8.761      866.627
10/28/2014  10:08:00        4.972        6.268       22.313       27.734       20.550       20.447      769.189      422.292      418.090        0.109        0.080        8.001       17.008        4.519      337.376        9.308      866.601
10/28/2014  10:09:00       43.471       68.505       69.484       62.839       48.745       42.151     3948.743     2376.044     1776.733        0.975        0.405       81.134       39.837        0.241      337.098        8.844      866.599
10/28/2014  10:10:00       52.297       45.095       58.990       35.541       33.890       19.472     1263.149     1148.537      379.165        0.552        0.140       69.055       16.914        0.060      337.037        8.742      866.589
10/28/2014  10:11:00       18.666       16.497       16.654       53.356       29.899       24.848     2846.860      893.961      617.417        0.263        0.218       24.911       13.941        0.313      337.251        9.100      866.589
10/28/2014  10:12:00       33.423       62.185       58.021       40.483       37.851       31.173     1638.884     1432.707      971.732        0.620        0.202       70.598       28.684        0.165      337.153        8.934      866.589
10/28/2014  10:13:00       20.431       59.720        5.240       32.149       38.618       23.920     1033.566     1491.345      572.156        0.355        0.155       63.118       16.986        0.072      337.192        9.000      866.588
10/28/2014  10:14:00       87.265       61.697       24.944       29.177       33.785       33.063      851.303     1141.420     1093.147        0.756        0.154      106.872       11.544        0.012      337.030        8.731      866.583
10/28/2014  10:15:00       43.997       56.049       37.674       48.699       36.147       39.079     2371.564     1306.592     1527.150        0.585        0.260       71.255       33.980        0.227      337.275        9.139      866.574
10/28/2014  10:16:00       -0.539       42.003       57.073       12.524       33.689       18.550      156.853     1134.923      344.086        0.333        0.082       42.006       22.199        0.279      337.240        9.080      866.558
10/28/2014  10:17:00       29.056      -12.238        9.072       24.928       30.148       29.493      621.405      908.886      869.844        0.174        0.120       31.528       18.270        0.336      337.272        9.135      866.570
10/28/2014  10:18:00       -1.144      -30.251       -6.674       20.067       29.864       23.616      402.681      891.840      557.731        0.141        0.093       30.273       19.308        0.407      336.991        8.664      866.575
10/28/2014  10:19:00      -55.728       -2.678       -1.896       16.484       17.136       19.927      271.712      293.660      397.075        0.204        0.048       55.792        8.514        0.023      336.895        8.505      866.588
10/28/2014  10:20:00        5.309      -12.849       20.388       20.507       23.325       18.718      420.556      544.068      350.374        0.096        0.066       13.903       12.700        0.834      337.348        9.262      866.592
10/28/2014  10:21:00      -11.943      -30.808        3.028       19.276       15.180       13.266      371.566      230.421      175.984        0.094        0.039       33.042       10.721        0.105      337.121        8.881      866.589
10/28/2014  10:22:00      -18.732       -6.807       17.776       19.294       12.307       10.298      372.253      151.466      106.056        0.067        0.031       19.931        9.860        0.245      337.740        9.919      866.581
10/28/2014  10:23:00       -3.747      -44.070       -1.142       23.794       27.652       17.463      566.139      764.618      304.958        0.180        0.082       44.229       13.387        0.092      337.254        9.104      866.563
10/28/2014  10:24:00      -10.237        2.142       11.100       21.384       18.870       16.123      457.265      356.071      259.958        0.065        0.054       10.459       10.339        0.977      337.609        9.699      866.557
10/28/2014  10:25:00      -75.836      -19.323       -4.577       17.513       28.185       13.722      306.712      794.415      188.283        0.372        0.064       78.259        9.390        0.014      337.083        8.817      866.544
10/28/2014  10:26:00      -26.619        4.268       11.838       24.886       12.044       15.521      619.288      145.047      240.907        0.094        0.050       26.959       11.191        0.172      337.524        9.557      866.519
10/28/2014  10:27:00      -34.563      -49.342        3.840       26.987       20.273       19.522      728.315      410.980      381.119        0.258        0.076       60.243       17.140        0.081      337.110        8.863      866.508
10/28/2014  10:28:00      -27.204      -50.004        0.495       43.022       34.231       22.896     1850.851     1171.739      524.248        0.339        0.177       56.925       26.503        0.217      337.117        8.876      866.485
10/28/2014  10:29:00      -70.895      -64.377       -6.139       26.563       22.017       18.627      705.606      484.737      346.965        0.537        0.077       95.763       15.380        0.026      337.059        8.776      866.470
10/28/2014  10:30:00      -65.845      -68.870       -4.235       32.524       32.982       22.803     1057.842     1087.806      519.982        0.588        0.133       95.282       18.131        0.036      337.078        8.808      866.457
10/28/2014  10:31:00      -67.090      -46.232       -8.926       17.245       35.421       20.312      297.386     1254.653      412.580        0.434        0.098       81.477       12.945        0.025      337.109        8.861      866.439
10/28/2014  10:32:00      -75.337      -35.066      -11.582       23.359       24.661       20.155      545.649      608.159      406.235        0.430        0.078       83.098       16.723        0.041      337.167        8.957      866.441
10/28/2014  10:33:00      -42.539      -32.318        2.038       33.243       29.663       21.422     1105.127      879.901      458.906        0.265        0.122       53.423       17.649        0.109      337.396        9.342      866.429
10/28/2014  10:34:00      -16.323      -12.916       16.370       22.316       24.361       23.278      497.983      593.447      541.875        0.117        0.082       20.815       16.452        0.625      337.920       10.219      866.414
10/28/2014  10:35:00      -37.218      -19.031        5.141       20.737       19.985       11.897      430.016      399.388      141.543        0.137        0.049       41.801        9.818        0.055      337.401        9.351      866.413
10/28/2014  10:36:00      -19.154        6.500        4.464       23.877       50.795       21.043      570.126     2580.136      442.799        0.201        0.180       20.227       23.943        1.401      337.762        9.955      866.397
10/28/2014  10:37:00       30.206       45.519       31.096       41.263       36.066       40.433     1702.662     1300.752     1634.827        0.429        0.232       54.629       35.039        0.411      338.081       10.490      866.375
10/28/2014  10:38:00        8.195       51.500       60.339       32.854       42.877       32.584     1079.402     1838.456     1061.703        0.517        0.199       52.148       18.845        0.131      338.424       11.067      866.359
10/28/2014  10:39:00       38.396       33.235       84.608       47.533       57.941       34.982     2259.372     3357.186     1223.754        0.829        0.342       50.782       38.864        0.586      337.963       10.293      866.335
10/28/2014  10:40:00       12.982       50.334       80.022       31.193       42.637       20.895      973.024     1817.882      436.603        0.617        0.161       51.982       24.541        0.223      338.115       10.547      866.331
10/28/2014  10:41:00       40.779        0.765       25.728       46.441       27.834       29.283     2156.767      774.711      857.516        0.306        0.189       40.786       21.760        0.285      337.912       10.207      866.332
10/28/2014  10:42:00       28.637      -52.278       -9.163       32.516       58.134       35.344     1057.310     3379.609     1249.222        0.466        0.284       59.607       25.056        0.177      337.887       10.165      866.311
10/28/2014  10:43:00       15.846      -27.223        0.997       21.750       40.273       25.056      473.069     1621.945      627.783        0.186        0.136       31.499       26.259        0.695      338.096       10.514      866.314
10/28/2014  10:44:00      -15.168       -2.884        3.322       22.619       23.931       32.682      511.612      572.696     1068.096        0.120        0.108       15.440       25.791        2.790      338.637       11.423      866.312
10/28/2014  10:45:00        2.403       13.582       12.191       23.596       17.756       20.625      556.769      315.285      425.399        0.082        0.065       13.793        4.204        0.093      338.486       11.172      866.322
10/28/2014  10:46:00      -70.681      -28.770        1.632       35.696       34.474       23.839     1274.169     1188.453      568.282        0.443        0.152       76.312       21.075        0.076      337.829       10.067      866.326
10/28/2014  10:47:00       -3.249        4.622       17.875       22.216       20.381       15.842      493.544      415.392      250.954        0.076        0.058        5.650       11.367        4.048      338.591       11.347      866.335
10/28/2014  10:48:00       10.258       16.762        4.362       29.949       39.003       31.714      896.965     1521.233     1005.781        0.191        0.171       19.651       22.389        1.298      338.244       10.765      866.338
10/28/2014  10:49:00       14.540      -17.757       18.848       40.644       40.612       26.495     1651.905     1649.294      701.993        0.244        0.200       22.950       17.354        0.572      338.456       11.121      866.338
10/28/2014  10:50:00        8.053      -67.484        4.561       34.430       70.330       43.932     1185.459     4946.244     1930.042        0.635        0.403       67.963       39.640        0.340      338.379       10.991      866.340
10/28/2014  10:51:00        4.918       -5.082       52.932       26.393       48.964       34.608      696.603     2397.505     1197.719        0.357        0.215        7.072       31.918       20.369      338.722       11.566      866.330
10/28/2014  10:52:00       17.971       15.310       37.440       28.010       39.083       31.362      784.586     1527.497      983.559        0.263        0.165       23.608       26.809        1.290      338.382       10.995      866.319
10/28/2014  10:53:00       17.909      -40.793       -3.560       40.562       44.225       37.845     1645.309     1955.847     1432.262        0.351        0.252       44.551       33.196        0.555      338.240       10.758      866.300
10/28/2014  10:54:00      -16.645      -20.957        4.768       23.920       39.261       19.880      572.149     1541.427      395.230        0.162        0.125       26.763        8.239        0.095      338.457       11.121      866.271
10/28/2014  10:55:00      -17.284      -47.600        4.381       27.194       42.022       20.428      739.537     1765.833      417.320        0.275        0.146       50.641       20.679        0.167      338.434       11.083      866.259
10/28/2014  10:56:00        2.985      -13.054       17.857       23.729       24.909       17.465      563.074      620.453      305.030        0.099        0.074       13.391       13.743        1.053      338.810       11.714      866.231
10/28/2014  10:57:00      -20.228       22.572       41.958       30.750       32.157       23.275      945.561     1034.079      541.722        0.260        0.126       30.310       19.635        0.420      338.745       11.605      866.226
10/28/2014  10:58:00      -24.584       28.362        5.116       30.607       19.025       18.248      936.778      361.946      333.008        0.153        0.082       37.534       11.311        0.091      338.593       11.349      866.214
10/28/2014  10:59:00       19.597       31.530       29.087       45.593       33.454       31.327     2078.725     1119.174      981.358        0.320        0.209       37.123       11.207        0.091      338.823       11.737      866.215
10/28/2014  11:00:00       75.793       64.956        3.844       42.242       34.944       26.414     1784.404     1221.062      697.706        0.684        0.185       99.819       17.672        0.031      338.244       10.763      866.224
10/28/2014  11:01:00       54.372       49.484       13.513       50.999       26.006       30.429     2600.946      676.308      925.949        0.489        0.210       73.519       21.723        0.087      338.232       10.744      866.245
10/28/2014  11:02:00       67.389       46.141       14.172       51.351       51.598       33.086     2636.957     2662.330     1094.661        0.663        0.320       81.672       22.936        0.079      338.417       11.054      866.255
10/28/2014  11:03:00       22.989       23.743       18.591       42.719       23.052       34.125     1824.893      531.376     1164.548        0.248        0.176       33.049       30.361        0.844      338.884       11.840      866.263
10/28/2014  11:04:00      -36.851        0.818       11.284       20.211       20.908       14.361      408.501      437.148      206.236        0.127        0.053       36.860       11.852        0.103      338.708       11.543      866.279
10/28/2014  11:05:00       27.517       28.229        3.728       46.991       20.800       35.515     2208.161      432.651     1261.317        0.273        0.195       39.422        9.569        0.059      338.470       11.144      866.281
10/28/2014  11:06:00       22.715       35.956       21.655       47.927       34.080       24.033     2296.977     1161.435      577.587        0.316        0.202       42.530       16.266        0.146      338.578       11.324      866.293
10/28/2014  11:07:00       51.402       40.353       13.752       27.815       27.548       30.488      773.656      758.868      929.542        0.346        0.123       65.349       11.968        0.034      338.343       10.930      866.300
10/28/2014  11:08:00       37.147       39.069        0.209       24.019       19.114       21.655      576.926      365.357      468.949        0.216        0.071       53.910       12.750        0.056      338.391       11.011      866.287
10/28/2014  11:09:00       27.510       52.420       27.319       39.963       31.286       43.040     1597.037      978.808     1852.434        0.434        0.221       59.200       20.886        0.124      338.813       11.719      866.274
10/28/2014  11:10:00       60.505       49.079       31.430       23.618       24.951       34.711      557.813      622.573     1204.882        0.472        0.119       77.907       11.246        0.021      338.457       11.122      866.264
10/28/2014  11:11:00        2.551        8.504       26.660       17.993       13.887       10.533      323.746      192.862      110.955        0.071        0.031        8.878        7.317        0.679      339.302       12.542      866.256
10/28/2014  11:12:00      -18.182       -6.001        5.553       19.843       17.051       16.084      393.753      290.743      258.708        0.067        0.047       19.147       13.935        0.530      339.081       12.171      866.253
10/28/2014  11:13:00      -14.752      -20.154       11.236       31.961       21.129       18.916     1021.478      446.449      357.833        0.129        0.091       24.976       17.188        0.474      338.803       11.702      866.253
10/28/2014  11:14:00      -37.645       -2.889       -9.164       25.619       21.630       19.970      656.311      467.860      398.798        0.152        0.076       37.756       12.963        0.118      338.576       11.322      866.255
10/28/2014  11:15:00       -1.067       34.267       -3.070       41.271       27.451       29.072     1703.279      753.584      845.160        0.224        0.165       34.284       27.617        0.649      338.726       11.573      866.248
10/28/2014  11:16:00       20.353       58.402        3.390       48.850       31.192       34.759     2386.333      972.921     1208.199        0.420        0.228       61.847       33.392        0.292      338.783       11.668      866.242
10/28/2014  11:17:00       21.010       33.844       18.674       44.811       26.426       28.824     2008.048      698.313      830.837        0.274        0.177       39.835       25.931        0.424      338.757       11.625      866.229
10/28/2014  11:18:00      -20.015       10.351       15.221       29.728       25.336       26.541      883.770      641.936      704.414        0.148        0.112       22.534       15.561        0.477      338.977       11.996      866.218
10/28/2014  11:19:00        3.969       73.219       11.454       26.702       56.640       25.126      713.015     3208.045      631.336        0.503        0.228       73.327       28.621        0.152      339.081       12.171      866.204
10/28/2014  11:20:00      -24.754        8.893        7.310       21.984       22.736       20.667      483.311      516.919      427.145        0.109        0.071       26.303        5.934        0.051      339.118       12.232      866.169
10/28/2014  11:21:00      -44.249      -28.791        0.515       31.731       21.933       16.333     1006.831      481.059      266.756        0.227        0.088       52.791       20.113        0.145      338.833       11.754      866.144
10/28/2014  11:22:00      -28.106      -43.917        9.407       44.764       36.079       23.662     2003.836     1301.696      559.912        0.334        0.193       52.141       15.840        0.092      338.855       11.791      866.110
10/28/2014  11:23:00        6.678      -73.050      -12.678       22.636       33.863       31.673      512.373     1146.707     1003.186        0.410        0.133       73.355       22.051        0.090      338.919       11.898      866.105
10/28/2014  11:24:00      -73.031      -42.825       -0.900       33.197       25.379       16.898     1102.015      644.109      285.540        0.460        0.102       84.661       13.003        0.024      338.572       11.314      866.086
10/28/2014  11:25:00      -47.331      -19.353       -0.268       25.037       29.857       21.309      626.869      891.445      454.067        0.229        0.099       51.134       19.956        0.152      338.752       11.618      866.097
10/28/2014  11:26:00      -75.753      -19.309       -7.734       29.355       24.435       16.829      861.737      597.055      283.202        0.396        0.087       78.175       15.920        0.041      338.672       11.483      866.100
10/28/2014  11:27:00      -25.756      -22.749        2.406       31.786       27.529       23.076     1010.333      757.832      532.521        0.174        0.115       34.364       23.992        0.487      339.147       12.281      866.107
10/28/2014  11:28:00      -43.422       -3.547       -8.801       14.611       30.910       16.472      213.476      955.404      271.314        0.171        0.072       43.566       15.035        0.119      338.765       11.640      866.101
10/28/2014  11:29:00      -21.619        1.295       41.771       24.848       23.406       20.664      617.404      547.858      427.002        0.190        0.080       21.658       12.857        0.352      339.570       12.994      866.088
10/28/2014  11:30:00        0.979        0.609       62.912       39.771       75.121       36.692     1581.721     5643.147     1346.323        0.626        0.429        1.153       17.135      220.888      339.708       13.228      866.068
10/28/2014  11:31:00      -13.476       71.374      101.514       24.389       53.356       35.313      594.825     2846.868     1247.039        1.013        0.234       72.635       37.706        0.269      339.502       12.879      866.049
10/28/2014  11:32:00       54.445      125.801      124.991       59.323       38.524       24.443     3519.166     1484.080      597.437        2.001        0.280      137.077       27.182        0.039      338.979       11.997      866.040
10/28/2014  11:33:00      107.806      100.947       48.439       52.055       33.420       38.572     2709.758     1116.923     1487.783        1.474        0.266      147.690       28.403        0.037      338.773       11.652      866.039
10/28/2014  11:34:00       82.636      103.871       78.351       25.278       22.613       31.625      638.968      511.338     1000.143        1.295        0.108      132.732       19.748        0.022      338.694       11.522      866.029
10/28/2014  11:35:00       74.861       50.274       15.758       34.273       31.435       31.671     1174.606      988.134     1003.084        0.577        0.158       90.176       17.639        0.038      338.987       12.013      866.005
10/28/2014  11:36:00       29.611      -31.364       31.171       49.549       78.341       48.448     2455.077     6137.254     2347.202        0.688        0.547       43.133       38.947        0.815      339.646       13.123      866.008
10/28/2014  11:37:00       16.896       68.700       72.434       21.706       28.487       16.580      471.171      811.495      274.900        0.590        0.078       70.747       17.922        0.064      339.253       12.460      865.994
10/28/2014  11:38:00       15.789       14.641       31.781       32.366       43.166       30.009     1047.565     1863.331      900.540        0.264        0.191       21.533       15.896        0.545      339.222       12.408      865.993
10/28/2014  11:39:00       98.896      -67.136       22.662       85.115       80.278       58.807     7244.644     6444.521     3458.286        1.597        0.857      119.531       69.970        0.343      339.122       12.240      865.984
10/28/2014  11:40:00       85.353       54.893       33.789       50.371       59.351       48.774     2537.279     3522.485     2378.862        0.994        0.422      101.481       40.550        0.160      339.343       12.611      865.983
10/28/2014  11:41:00       59.979      -65.573       -1.888       64.866       81.011       51.438     4207.538     6562.789     2645.898        1.066        0.671       88.867       50.592        0.324      339.329       12.589      865.976
10/28/2014  11:42:00       62.090      -86.061       16.727       53.784       82.670       52.273     2892.738     6834.309     2732.474        1.200        0.623      106.121       56.765        0.286      339.383       12.680      865.962
10/28/2014  11:43:00       39.897      -32.869       14.216       42.491       53.641       36.077     1805.481     2877.312     1301.568        0.443        0.299       51.692       32.432        0.394      339.572       12.997      865.952
10/28/2014  11:44:00       36.496      -67.809        1.356       31.062       30.565       22.711      964.839      934.226      515.779        0.417        0.121       77.006       19.261        0.063      339.401       12.709      865.938
10/28/2014  11:45:00       40.012       29.333       14.616       27.941       32.916       36.246      780.699     1083.439     1313.749        0.293        0.159       49.613       18.276        0.136      339.519       12.910      865.933
10/28/2014  11:46:00        6.909       -7.951      -17.047       23.614       17.917        9.822      557.606      321.009       96.477        0.069        0.049       10.533        9.716        0.851      339.017       12.064      865.920
10/28/2014  11:47:00       17.278      -26.488      -11.543       18.589       18.564       14.119      345.540      344.621      199.358        0.101        0.044       31.625       11.321        0.128      339.084       12.176      865.923
10/28/2014  11:48:00       -0.284       20.616        4.341       17.270       17.222       17.725      298.240      296.580      314.176        0.068        0.045       20.618       12.948        0.394      339.899       13.549      865.921
10/28/2014  11:49:00        7.872      -12.936       16.633       36.730       27.878       24.364     1349.097      777.169      593.620        0.161        0.136       15.143       18.036        1.419      340.078       13.853      865.923
10/28/2014  11:50:00       10.410       18.791       38.025       34.142       29.365       25.374     1165.668      862.309      643.852        0.229        0.134       21.481       16.633        0.600      339.982       13.689      865.927
10/28/2014  11:51:00       68.626       69.084       65.688       68.724       60.630       51.212     4723.012     3676.025     2622.677        1.241        0.551       97.376       47.194        0.235      339.576       13.004      865.913
10/28/2014  11:52:00      113.755       79.634       41.214       61.770       46.220       51.458     3815.560     2136.325     2647.887        1.479        0.430      138.859       36.643        0.070      339.136       12.262      865.907
10/28/2014  11:53:00       68.414       37.986       41.000       40.630       44.512       39.805     1650.770     1981.301     1584.440        0.651        0.261       78.252       26.214        0.112      339.337       12.601      865.908
10/28/2014  11:54:00       70.534       43.433       39.484       50.834       40.360       37.334     2584.061     1628.919     1393.825        0.701        0.280       82.834       28.535        0.119      339.764       13.322      865.884
10/28/2014  11:55:00       45.054       52.752       44.178       45.325       38.139       38.009     2054.313     1454.555     1444.650        0.586        0.248       69.373       26.191        0.143      339.935       13.609      865.879
10/28/2014  11:56:00       42.485       73.910       78.790       47.362       56.424       34.407     2243.161     3183.642     1183.834        1.004        0.331       85.250       15.755        0.034      340.103       13.892      865.873
10/28/2014  11:57:00       50.010       69.425       73.139       42.242       43.547       26.526     1784.375     1896.346      703.613        0.853        0.219       85.562       28.689        0.112      339.593       13.032      865.865
10/28/2014  11:58:00       -8.629       55.254      102.689       40.066       55.850       47.678     1605.296     3119.263     2273.144        1.033        0.350       55.924       40.779        0.532      340.239       14.122      865.860
10/28/2014  11:59:00       69.306       90.898       79.107       56.461       36.918       24.717     3187.822     1362.914      610.946        1.224        0.258      114.306       17.740        0.024      339.294       12.528      865.856
10/28/2014  12:00:00       29.398       -3.853       20.986       27.156       30.554       38.983      737.423      933.521     1519.702        0.225        0.160       29.650       33.336        1.264      339.575       13.002      865.848
10/28/2014  12:01:00       40.390       35.535       29.563       44.045       35.051       37.595     1939.952     1228.587     1413.386        0.417        0.229       53.797       15.518        0.083      339.490       12.859      865.831
10/28/2014  12:02:00       25.909      -30.204       19.889       37.630       37.851       26.818     1416.027     1432.729      719.199        0.277        0.178       39.794       28.511        0.513      339.876       13.510      865.809
10/28/2014  12:03:00       -6.964        0.036       -7.725       20.466       23.735       19.889      418.846      563.328      395.557        0.074        0.069        6.964       13.239        3.614      339.643       13.118      865.806
10/28/2014  12:04:00      -13.622       40.403       -5.840       19.955       20.712       23.452      398.197      429.003      550.020        0.161        0.069       42.638       16.676        0.153      339.879       13.516      865.790
10/28/2014  12:05:00       -6.603        8.838       32.489       19.546       14.069       11.557      382.054      197.947      133.561        0.095        0.036       11.032        7.276        0.435      340.546       14.642      865.784
10/28/2014  12:06:00       21.455       20.942       12.175       26.080       27.115       16.914      680.180      735.214      286.075        0.137        0.085       29.981       14.573        0.236      340.305       14.234      865.782
10/28/2014  12:07:00       13.249       76.389       82.531       55.501       47.083       44.905     3080.361     2216.827     2016.471        1.007        0.366       77.529       40.522        0.273      340.076       13.847      865.766
10/28/2014  12:08:00       81.274       58.967        7.327       56.306       31.443       33.378     3170.401      988.693     1114.058        0.770        0.264      100.412       18.657        0.035      339.676       13.172      865.774
10/28/2014  12:09:00       22.864        1.414       20.819       40.700       52.205       33.287     1656.484     2725.399     1108.031        0.322        0.274       22.908       27.557        1.447      340.302       14.229      865.780
10/28/2014  12:10:00      -16.777       39.737       85.023       24.217       48.015       35.550      586.464     2305.447     1263.798        0.662        0.208       43.134       29.500        0.468      340.528       14.610      865.769
10/28/2014  12:11:00       45.713       79.234       52.504       53.169       54.077       51.917     2826.943     2924.306     2695.347        0.978        0.422       91.475       41.369        0.205      340.075       13.846      865.778
10/28/2014  12:12:00       65.858       55.258       13.843       52.396       38.738       35.955     2745.381     1500.671     1292.747        0.656        0.277       85.969       24.972        0.084      340.250       14.140      865.769
10/28/2014  12:13:00       61.343       37.720       19.638       54.294       45.046       32.535     2947.868     2029.131     1058.556        0.580        0.302       72.013       10.221        0.020      340.126       13.932      865.763
10/28/2014  12:14:00       20.493       20.596       47.044       50.493       74.807       41.977     2549.589     5596.050     1762.097        0.648        0.495       29.054       41.761        2.066      340.274       14.181      865.745
10/28/2014  12:15:00       35.397      -18.973       37.635       44.502       84.944       54.822     1980.463     7215.399     3005.446        0.761        0.610       40.161       60.996        2.307      340.462       14.499      865.721
10/28/2014  12:16:00       23.502      -15.976       57.956       46.967       91.358       57.203     2205.945     8346.300     3272.181        0.899        0.691       28.418       63.530        4.998      340.118       13.919      865.728
10/28/2014  12:17:00       34.340       19.698       60.513       48.423       72.151       33.552     2344.803     5205.795     1125.714        0.695        0.434       39.588       36.306        0.841      340.066       13.832      865.716
10/28/2014  12:18:00        9.259       -0.335       53.124       21.889       47.861       23.739      479.106     2290.672      563.553        0.312        0.167        9.265       27.306        8.686      340.469       14.510      865.710
10/28/2014  12:19:00       20.176        0.663       54.093       43.380       50.341       38.123     1881.781     2534.216     1453.363        0.460        0.293       20.187       32.345        2.567      340.674       14.858      865.683
10/28/2014  12:20:00      103.384      -82.494       13.186       96.705       91.168       58.443     9351.889     8311.687     3415.617        1.937        1.054      132.263       68.582        0.269      340.003       13.724      865.675
10/28/2014  12:21:00       17.134      -43.009       53.655       33.691       65.724       31.521     1135.089     4319.655      993.563        0.573        0.322       46.297       35.558        0.590      340.340       14.293      865.670
10/28/2014  12:22:00       22.806       64.590       69.765       41.569       46.281       37.855     1727.952     2141.947     1433.018        0.743        0.265       68.498       27.618        0.163      340.296       14.218      865.646
10/28/2014  12:23:00       62.760       71.544       66.099       58.710       38.479       45.213     3446.841     1480.622     2044.199        1.020        0.349       95.171       42.731        0.202      339.935       13.610      865.641
10/28/2014  12:24:00        3.029        7.195       59.611       33.008       66.025       47.948     1089.546     4359.334     2299.005        0.568        0.387        7.807       50.626       42.053      340.185       14.031      865.611
10/28/2014  12:25:00       19.793        0.990       13.379       32.654       51.919       27.028     1066.290     2695.584      730.494        0.253        0.225       19.817       27.953        1.990      340.117       13.917      865.589
10/28/2014  12:26:00       37.194       41.500       18.417       25.393       28.597       26.150      644.787      817.815      683.839        0.280        0.107       55.728       12.220        0.048      340.191       14.042      865.568
10/28/2014  12:27:00       21.922       32.122        0.543       43.362       39.289       25.865     1880.275     1543.632      668.976        0.280        0.205       38.890       22.851        0.345      340.407       14.407      865.550
10/28/2014  12:28:00       24.953       45.479        6.636       47.001       48.858       28.187     2209.058     2387.134      794.517        0.406        0.270       51.875       26.286        0.257      340.350       14.310      865.561
10/28/2014  12:29:00      -12.212       42.444       -0.402       17.528       37.538       24.720      307.219     1409.127      611.075        0.214        0.116       44.166       25.191        0.325      340.317       14.255      865.565
10/28/2014  12:30:00       -3.912        5.068       16.850       12.383       20.192       15.026      153.341      407.706      225.775        0.056        0.039        6.403       12.766        3.976      341.129       15.627      865.561
10/28/2014  12:31:00        9.661       21.624        5.683       17.454       14.558       18.662      304.656      211.925      348.256        0.073        0.043       23.684       14.504        0.375      340.555       14.657      865.561
10/28/2014  12:32:00       33.555       12.747       26.105       25.636       22.248       22.114      657.192      494.972      489.022        0.181        0.082       35.895       14.943        0.173      340.641       14.803      865.550
10/28/2014  12:33:00       20.407      -13.790      -11.691       64.693       52.453       23.559     4185.230     2751.296      555.033        0.412        0.375       24.629       14.764        0.359      340.587       14.709      865.539
10/28/2014  12:34:00       83.008      -42.645       16.967       89.612       94.322       57.872     8030.282     8896.652     3349.155        1.463        1.014       93.322       71.369        0.585      340.239       14.122      865.522
10/28/2014  12:35:00      148.282     -136.537       -3.948       77.812      108.284       57.672     6054.776    11725.385     3326.089        3.087        1.055      201.569       68.197        0.114      340.138       13.949      865.489
10/28/2014  12:36:00       62.905       15.620       68.730       70.873       94.681       65.691     5023.017     8964.472     4315.312        1.361        0.915       64.815       63.392        0.957      340.415       14.420      865.469
10/28/2014  12:37:00       53.399       42.857       75.423       80.199       56.713       43.735     6431.923     3216.318     1912.746        1.097        0.578       68.471       42.095        0.378      340.462       14.499      865.444
10/28/2014  12:38:00       30.761        5.574       46.210       44.542       56.135       36.139     1983.953     3151.131     1305.992        0.478        0.322       31.262       37.734        1.457      340.755       14.996      865.414
10/28/2014  12:39:00        3.359       22.918       70.825       37.827       57.726       31.012     1430.851     3332.291      961.719        0.564        0.286       23.163       29.678        1.642      341.101       15.581      865.394
10/28/2014  12:40:00        6.338       80.172       79.414       40.788       36.624       42.778     1663.651     1341.317     1829.965        0.880        0.242       80.422       31.968        0.158      340.621       14.767      865.383
10/28/2014  12:41:00        4.218       24.522       44.828       25.333       36.908       23.065      641.742     1362.198      532.002        0.258        0.127       24.883       14.833        0.355      340.867       15.185      865.368
10/28/2014  12:42:00       24.830       40.767       46.379       72.078       50.855       48.918     5195.181     2586.223     2392.927        0.730        0.509       47.733       47.769        1.002      340.669       14.849      865.366
10/28/2014  12:43:00       89.064      107.456       -5.919       73.296       39.183       33.802     5372.266     1535.277     1142.569        1.378        0.403      139.568       23.923        0.029      340.120       13.921      865.361
10/28/2014  12:44:00       70.595       59.135       23.853       81.976       41.009       34.903     6720.009     1681.777     1218.204        0.933        0.481       92.090       30.348        0.109      340.608       14.745      865.340
10/28/2014  12:45:00      103.965      127.167       71.487       71.252       59.105       48.465     5076.798     3493.405     2348.842        2.150        0.546      164.257       32.893        0.040      340.506       14.573      865.344
10/28/2014  12:46:00      125.154       82.902       32.231       56.424       34.982       33.421     3183.712     1223.725     1116.990        1.455        0.276      150.121       19.526        0.017      340.091       13.871      865.356
10/28/2014  12:47:00       93.684       56.763       -4.240       48.778       35.769       34.193     2379.276     1279.443     1169.190        0.842        0.241      109.539       23.021        0.044      340.146       13.965      865.337
10/28/2014  12:48:00       54.825       39.046       13.346       39.157       29.689       31.681     1533.233      881.427     1003.705        0.406        0.171       67.308       18.926        0.079      340.352       14.313      865.322
10/28/2014  12:49:00      131.464      104.010       26.844       66.797       51.925       37.572     4461.877     2696.165     1411.688        1.869        0.428      167.633       20.748        0.015      340.301       14.227      865.312
10/28/2014  12:50:00      160.604      110.585       28.161       35.435       41.534       34.400     1255.673     1725.088     1183.367        2.149        0.208      194.994       15.277        0.006      340.214       14.078      865.284
10/28/2014  12:51:00       71.545       74.464       64.899       68.080       67.275       53.587     4634.860     4525.869     2871.516        1.345        0.602      103.264       50.890        0.243      340.608       14.746      865.271
10/28/2014  12:52:00      104.367       54.059       49.219       50.251       76.485       44.581     2525.118     5850.030     1987.509        1.330        0.518      117.536       32.377        0.076      340.493       14.552      865.264
10/28/2014  12:53:00       67.911       47.792       38.320       64.738       52.274       44.878     4190.972     2732.552     2014.062        0.865        0.447       83.042       41.696        0.252      340.674       14.857      865.248
10/28/2014  12:54:00       25.861       24.106       25.814       45.078       55.905       31.181     2032.029     3125.394      972.234        0.402        0.306       35.354       24.402        0.476      340.787       15.048      865.225
10/28/2014  12:55:00        5.767      -59.878       -2.026       25.495       57.501       23.089      650.011     3306.384      533.099        0.406        0.224       60.156       26.112        0.188      340.963       15.348      865.218
10/28/2014  12:56:00       -3.347      -12.628       -5.644       19.556       22.402       21.932      382.424      501.835      481.012        0.078        0.068       13.064       10.554        0.653      340.835       15.131      865.218
10/28/2014  12:57:00        7.029      -16.151       21.495       26.579       40.094       19.090      706.437     1607.498      364.420        0.172        0.134       17.614       18.233        1.071      340.953       15.329      865.207
10/28/2014  12:58:00       -9.285        1.142       21.881       24.710       21.287       18.402      610.570      453.143      338.635        0.098        0.070        9.355        6.091        0.424      341.351       16.004      865.199
10/28/2014  12:59:00       13.421      -26.758       -4.314       29.098       30.096       21.385      846.710      905.758      457.316        0.156        0.110       29.936       17.672        0.349      340.638       14.797      865.188
10/28/2014  13:00:00       15.937       23.152        0.356       29.055       28.599       17.331      844.180      817.877      300.369        0.138        0.098       28.107       12.528        0.199      340.741       14.971      865.170
10/28/2014  13:01:00        5.799       14.794       22.153       35.054       30.974       22.649     1228.754      959.359      512.958        0.172        0.135       15.890       18.638        1.376      341.343       15.991      865.150
10/28/2014  13:02:00        7.027      -58.267       14.203       39.397       59.628       34.740     1552.090     3555.556     1206.868        0.498        0.316       58.689       28.912        0.243      341.298       15.914      865.130
10/28/2014  13:03:00       71.803     -109.765      -26.628       79.862       74.064       54.694     6377.941     5485.470     2991.404        1.638        0.743      131.164       47.116        0.129      341.011       15.426      865.110
10/28/2014  13:04:00      112.443      -87.186        9.065       71.431      103.578       51.770     5102.358    10728.458     2680.130        1.942        0.926      142.284       74.261        0.272      340.740       14.965      865.090
10/28/2014  13:05:00       36.399       36.834       38.957       51.341       57.915       35.832     2635.905     3354.173     1283.914        0.574        0.364       51.785       33.192        0.411      341.252       15.837      865.074
10/28/2014  13:06:00      157.333       83.291       21.085       48.820       44.509       54.782     2383.438     1981.065     3001.104        1.975        0.368      178.020       36.642        0.042      340.744       14.973      865.070
10/28/2014  13:07:00       63.581       38.112       30.880       48.362       49.854       42.808     2338.853     2485.385     1832.493        0.655        0.333       74.129       31.633        0.182      341.178       15.710      865.064
10/28/2014  13:08:00       50.529       66.331        4.347       42.817       29.733       34.430     1833.324      884.077     1185.457        0.544        0.195       83.384       25.232        0.092      341.038       15.474      865.051
10/28/2014  13:09:00       78.258        9.978       19.537       73.462       77.035       39.939     5396.634     5934.464     1595.163        0.976        0.646       78.891       26.936        0.117      340.970       15.358      865.042
10/28/2014  13:10:00       79.143       58.779       73.882       78.497       52.649       50.196     6161.723     2771.867     2519.641        1.331        0.573       98.583       37.898        0.148      340.892       15.227      865.031
10/28/2014  13:11:00       29.860        4.098       52.330       58.331       96.166       52.522     3402.481     9247.918     2758.544        0.952        0.770       30.140       49.285        2.674      341.264       15.856      865.009
10/28/2014  13:12:00       47.894      -70.401       42.284       66.368       83.478       55.370     4404.651     6968.659     3065.842        1.174        0.722       85.147       47.272        0.308      341.311       15.935      864.996
10/28/2014  13:13:00       21.085      -13.007       64.373       57.538      104.534       48.283     3310.571    10927.283     2331.225        1.066        0.828       24.774       53.289        4.627      341.313       15.937      864.989
10/28/2014  13:14:00       95.040      134.480       95.235       81.181       60.464       61.950     6590.434     3655.931     3837.802        2.513        0.704      164.674       58.847        0.128      340.761       15.002      864.984
10/28/2014  13:15:00       69.108      125.418      114.801       66.408       52.727       53.555     4410.009     2780.137     2868.147        2.187        0.503      143.197       48.364        0.114      340.666       14.844      864.954
10/28/2014  13:16:00      122.249      101.397       55.370       66.042       47.705       44.968     4361.568     2275.739     2022.090        1.847        0.433      158.828       28.286        0.032      340.833       15.124      864.931
10/28/2014  13:17:00       16.281        5.606       21.319       33.536       47.050       30.120     1124.631     2213.738      907.187        0.250        0.212       17.219       27.177        2.491      341.277       15.879      864.920
10/28/2014  13:18:00       48.084       97.000      102.553       66.432       61.248       43.219     4413.223     3751.345     1867.885        1.613        0.502      108.264       39.456        0.133      341.131       15.631      864.903
10/28/2014  13:19:00       47.784        5.307       37.765       56.618       80.486       38.766     3205.626     6477.949     1502.834        0.746        0.559       48.078       38.033        0.626      341.070       15.526      864.900
10/28/2014  13:20:00       31.932       -4.992       12.260       39.909       59.617       42.543     1592.726     3554.240     1809.920        0.407        0.348       32.320       40.144        1.543      341.094       15.568      864.903
10/28/2014  13:21:00       13.972       52.892       -3.717       16.607       53.103       17.424      275.793     2819.906      303.579        0.320        0.170       54.706       23.470        0.184      341.121       15.615      864.903
10/28/2014  13:22:00       42.039      -24.262      -16.165       34.787       56.747       28.105     1210.132     3220.169      789.877        0.392        0.261       48.538       16.776        0.119      340.750       14.986      864.889
10/28/2014  13:23:00       73.989       34.976       53.163       58.857       54.033       41.261     3464.197     2919.536     1702.485        0.880        0.404       81.839       31.399        0.147      340.944       15.315      864.868
10/28/2014  13:24:00       40.198      -30.486       12.097       40.748       37.433       34.329     1660.417     1401.267     1178.510        0.347        0.212       50.451       22.548        0.200      340.917       15.269      864.850
10/28/2014  13:25:00       59.350      -29.536       34.570       55.411       55.646       43.812     3070.338     3096.496     1919.451        0.684        0.404       66.293       30.258        0.208      341.084       15.551      864.840
10/28/2014  13:26:00       41.268        4.608        1.638       57.973       33.081       40.027     3360.869     1094.334     1602.185        0.389        0.303       41.524       31.519        0.576      340.975       15.367      864.835
10/28/2014  13:27:00       49.915        8.744       21.732       29.939       38.557       22.852      896.320     1486.632      522.229        0.297        0.145       50.675       13.437        0.070      341.077       15.540      864.829
10/28/2014  13:28:00       37.308      -17.423       20.362       25.718       22.446       20.517      661.398      503.826      420.936        0.185        0.079       41.176       12.895        0.098      341.154       15.670      864.837
10/28/2014  13:29:00       72.012       42.108       11.737       35.167       38.749       25.474     1236.694     1501.469      648.913        0.524        0.169       83.419        8.271        0.010      341.367       16.031      864.839
10/28/2014  13:30:00       38.873       46.293       14.185       27.719       31.071       43.494      768.357      965.406     1891.712        0.374        0.181       60.450       25.337        0.176      341.483       16.227      864.828
10/28/2014  13:31:00       -5.244      -17.852       -6.923       29.324       22.113       17.647      859.893      489.004      311.414        0.103        0.083       18.607       18.450        0.983      341.277       15.879      864.825
10/28/2014  13:32:00       27.169        7.552       18.181       25.017       28.692       20.530      625.831      823.232      421.462        0.150        0.094       28.199       13.747        0.238      341.455       16.180      864.810
10/28/2014  13:33:00       47.921       61.181        6.572       60.772       41.458       37.886     3693.282     1718.787     1435.371        0.646        0.342       77.714       25.029        0.104      341.501       16.256      864.795
10/28/2014  13:34:00       67.029       50.405       11.907       38.024       30.623       28.009     1445.846      937.792      784.516        0.517        0.158       83.866       17.529        0.044      341.465       16.197      864.783
10/28/2014  13:35:00       37.606       39.795        8.877       29.167       30.244       24.596      850.688      914.703      604.952        0.272        0.119       54.753        9.946        0.033      341.594       16.414      864.765
10/28/2014  13:36:00       23.124       72.824        4.206       23.293       31.638       31.993      542.570     1000.986     1023.532        0.421        0.128       76.408       24.705        0.105      341.611       16.443      864.748
10/28/2014  13:37:00       29.629       31.475       -0.339       27.638       31.905       20.830      763.866     1017.911      433.883        0.204        0.111       43.226       20.917        0.234      341.642       16.495      864.737
10/28/2014  13:38:00       74.744       31.148       13.045       35.133       25.698       24.616     1234.342      660.376      605.960        0.461        0.125       80.975        9.392        0.013      341.202       15.751      864.722
10/28/2014  13:39:00       32.276       21.876       11.560       26.942       17.619       19.862      725.868      310.445      394.501        0.154        0.072       38.991       16.145        0.171      341.675       16.552      864.717
10/28/2014  13:40:00       -1.941       43.177       -1.526       19.581       31.289       22.974      383.404      979.023      527.782        0.188        0.095       43.220       12.970        0.090      341.965       17.044      864.699
10/28/2014  13:41:00       19.880       18.118       16.075       30.229       22.629       21.897      913.799      512.086      479.489        0.144        0.095       26.897       10.827        0.162      342.191       17.429      864.688
10/28/2014  13:42:00       81.678      -78.927        8.116       75.365       51.437       42.932     5679.909     2645.742     1843.167        1.157        0.508      113.582       32.367        0.081      341.473       16.210      864.670
10/28/2014  13:43:00       25.681       26.064       49.423       60.297       51.582       35.834     3635.762     2660.703     1284.091        0.568        0.379       36.590       34.515        0.890      341.846       16.842      864.646
10/28/2014  13:44:00       19.532       96.347      102.746       47.734       44.986       51.842     2278.490     2023.726     2687.640        1.360        0.349       98.307       32.764        0.111      341.631       16.476      864.640
10/28/2014  13:45:00       63.880       13.415       18.099       33.594       41.156       30.137     1128.577     1693.779      908.237        0.416        0.187       65.273       23.314        0.128      341.210       15.765      864.645
10/28/2014  13:46:00       36.184      -30.825       23.017       39.306       58.092       29.997     1544.962     3374.713      899.826        0.430        0.291       47.534       31.465        0.438      341.439       16.153      864.633
10/28/2014  13:47:00       51.027        9.466        8.409       27.855       68.540       35.299      775.892     4697.705     1246.037        0.474        0.336       51.898       26.933        0.269      341.428       16.134      864.635
10/28/2014  13:48:00       39.306      -27.101       -9.606       53.861       76.346       28.295     2901.035     5828.759      800.604        0.595        0.477       47.743       17.583        0.136      341.783       16.736      864.644
10/28/2014  13:49:00       39.491      -29.800       17.231       37.192       41.679       23.749     1383.210     1737.124      564.012        0.321        0.184       49.473       24.089        0.237      341.869       16.881      864.635
10/28/2014  13:50:00       90.492     -160.326      -26.723       46.547       35.655       20.532     2166.607     1271.268      421.549        1.923        0.193      184.101       20.170        0.012      341.580       16.391      864.633
10/28/2014  13:51:00       95.215     -126.059       -5.249       38.039       55.487       25.731     1446.964     3078.757      662.077        1.508        0.259      157.977       24.554        0.024      341.595       16.415      864.632
10/28/2014  13:52:00       27.615       -7.233       27.967       36.376       27.459       20.726     1323.186      753.987      429.561        0.205        0.125       28.547       20.928        0.537      341.955       17.027      864.606
10/28/2014  13:53:00       34.759      -35.888       11.521       43.392       54.557       26.614     1882.841     2976.492      708.280        0.410        0.278       49.962       31.891        0.407      341.836       16.824      864.593
10/28/2014  13:54:00       19.085       11.851       15.197       21.489       17.173       13.465      461.774      294.915      181.298        0.084        0.047       22.465       10.246        0.208      341.812       16.784      864.574
10/28/2014  13:55:00      -22.771       84.071      -11.536       26.212       74.908       21.783      687.073     5611.274      474.518        0.724        0.339       87.101       32.510        0.139      341.977       17.065      864.559
10/28/2014  13:56:00      -48.903       50.999       -0.066       37.950       47.928       28.381     1440.168     2297.052      805.483        0.477        0.227       70.657       27.165        0.148      342.333       17.670      864.545
10/28/2014  13:57:00      -36.541       29.604       16.946       61.963       40.655       29.369     3839.400     1652.796      862.537        0.443        0.318       47.028       36.324        0.597      342.221       17.479      864.539
10/28/2014  13:58:00      107.529       92.370        8.994       91.784       49.563       43.056     8424.215     2456.540     1853.805        1.645        0.637      141.755       41.315        0.085      341.993       17.092      864.518
10/28/2014  13:59:00      108.921       51.088       32.384       75.003       57.342       35.314     5625.448     3288.098     1247.109        1.284        0.508      120.307       24.139        0.040      341.854       16.857      864.518
10/28/2014  14:00:00      185.181      120.216       10.664       65.800       40.726       42.475     4329.694     1658.618     1804.099        2.832        0.390      220.781       33.474        0.023      341.784       16.734      864.511
10/28/2014  14:01:00       97.719       63.577       26.925       62.823       50.266       44.209     3946.790     2526.705     1954.433        1.137        0.421      116.581       27.743        0.057      341.736       16.656      864.510
10/28/2014  14:02:00       51.184       57.759       12.773       47.710       43.803       37.591     2276.246     1918.717     1413.048        0.586        0.280       77.175       27.948        0.131      342.015       17.129      864.524
10/28/2014  14:03:00       35.229       62.752        6.393       23.377       52.418       32.681      546.466     2747.665     1068.039        0.479        0.218       71.965       33.556        0.217      342.127       17.320      864.514
10/28/2014  14:04:00        6.764      140.985      160.546       49.570       51.413       46.742     2457.173     2643.328     2184.820        2.649        0.364      141.147       37.742        0.071      341.955       17.026      864.502
10/28/2014  14:05:00       54.590       61.310       93.102       65.353       81.923       45.857     4271.005     6711.420     2102.855        1.424        0.654       82.091       47.273        0.332      341.726       16.638      864.503
10/28/2014  14:06:00       20.796       11.315       51.108       31.963       56.755       31.620     1021.647     3221.121      999.815        0.421        0.262       23.675       32.139        1.843      341.806       16.775      864.501
10/28/2014  14:07:00       34.854      -24.750        8.946       25.526       24.022       25.684      651.579      577.034      659.650        0.190        0.094       42.747       17.120        0.160      341.583       16.397      864.491
10/28/2014  14:08:00       20.449       -7.220        1.465       34.420       29.015       21.650     1184.758      841.875      468.725        0.148        0.125       21.686       15.026        0.480      341.647       16.505      864.492
10/28/2014  14:09:00       67.061        1.726       19.931       81.298       62.189       42.404     6609.428     3867.494     1798.116        0.858        0.614       67.083       43.095        0.413      342.213       17.466      864.475
10/28/2014  14:10:00      116.616       36.468       53.693       74.902       59.223       42.551     5610.364     3507.397     1810.605        1.437        0.546      122.185       37.852        0.096      342.204       17.450      864.475
10/28/2014  14:11:00       49.937       49.118       12.050       33.908       45.027       45.514     1149.760     2027.473     2071.555        0.515        0.262       70.045       33.018        0.222      341.888       16.914      864.480
10/28/2014  14:12:00       18.040       45.728       46.094       35.542       35.727       18.051     1263.227     1276.437      325.836        0.370        0.143       49.158       10.710        0.047      342.272       17.566      864.475
10/28/2014  14:13:00       37.386      -40.133       11.750       44.323       52.586       27.916     1964.490     2765.334      779.301        0.433        0.275       54.849       26.042        0.225      342.164       17.383      864.467
10/28/2014  14:14:00        8.999      -10.112       11.426       36.966       26.519       30.296     1366.475      703.272      917.870        0.165        0.149       13.536       19.373        2.048      342.133       17.329      864.456
10/28/2014  14:15:00      -87.004      -39.002      -19.665       22.939       24.385       19.942      526.190      594.629      397.666        0.550        0.076       95.346       10.353        0.012      342.138       17.338      864.434
10/28/2014  14:16:00      -21.938      -33.025       -1.045       65.262       44.916       25.211     4259.068     2017.419      635.595        0.424        0.346       39.647       33.853        0.729      342.084       17.246      864.424
10/28/2014  14:17:00       43.798      -15.712        2.950       21.819       24.789       20.357      476.049      614.489      414.417        0.184        0.075       46.531       10.502        0.051      341.660       16.527      864.428
10/28/2014  14:18:00       64.200       44.866       20.378       42.228       52.618       30.221     1783.243     2768.659      913.282        0.601        0.273       78.324       30.245        0.149      342.212       17.463      864.410
10/28/2014  14:19:00       75.032       51.847       46.847       85.263       52.098       38.686     7269.842     2714.212     1496.614        1.099        0.574       91.202       34.213        0.141      342.448       17.864      864.397
10/28/2014  14:20:00       27.942       67.447       57.750       75.271       48.656       54.648     5665.718     2367.373     2986.453        0.984        0.551       73.006       35.582        0.238      342.478       17.916      864.389
10/28/2014  14:21:00       73.451       82.665        5.123       72.416       64.227       45.447     5244.053     4125.113     2065.430        1.184        0.572      110.583       37.545        0.115      342.412       17.802      864.394
10/28/2014  14:22:00       76.395       33.348        4.350       44.696       38.468       29.258     1997.757     1479.756      856.031        0.565        0.217       83.356       18.305        0.048      342.304       17.620      864.379
10/28/2014  14:23:00      103.593       60.026       15.076       55.701       39.630       36.569     3102.548     1570.516     1337.258        1.028        0.301      119.728       12.062        0.010      342.282       17.582      864.376
10/28/2014  14:24:00       63.609       60.484       60.596       65.199       41.156       36.090     4250.957     1693.789     1302.512        0.931        0.362       87.774       30.182        0.118      342.361       17.716      864.373
10/28/2014  14:25:00       49.481       95.091       88.104       76.227       71.142       68.817     5810.579     5061.130     4735.798        1.743        0.780      107.194       58.796        0.301      341.941       17.003      864.355
10/28/2014  14:26:00       34.663       -7.311       31.034       53.646       45.954       40.042     2877.906     2111.813     1603.344        0.440        0.330       35.426       31.739        0.803      342.176       17.403      864.370
10/28/2014  14:27:00       45.730       10.469        5.075       37.467       31.585       24.659     1403.801      997.610      608.072        0.262        0.150       46.913       18.435        0.154      341.934       16.993      864.370
10/28/2014  14:28:00       55.368      -14.364        3.482       37.667       17.637       20.310     1418.767      311.055      412.500        0.271        0.107       57.200       13.994        0.060      342.046       17.182      864.358
10/28/2014  14:29:00       55.489       37.091       20.356       41.765       43.037       33.219     1744.345     1852.212     1103.489        0.478        0.235       66.744       26.625        0.159      342.312       17.634      864.336
10/28/2014  14:30:00       41.397       55.619       -4.530       32.942       35.303       25.017     1085.189     1246.282      625.845        0.389        0.148       69.334       23.435        0.114      342.362       17.718      864.313
10/28/2014  14:31:00       24.434       29.254        6.311       26.188       22.855       22.253      685.816      522.349      495.184        0.160        0.085       38.115       12.394        0.106      342.327       17.659      864.302
10/28/2014  14:32:00      -17.960       22.359       -7.490       19.072       33.019       17.362      363.742     1090.233      301.440        0.132        0.088       28.679        7.683        0.072      342.491       17.939      864.286
10/28/2014  14:33:00      -47.694       44.323      -19.502       39.964       31.144       18.718     1597.115      969.978      350.351        0.377        0.146       65.110       10.692        0.027      342.574       18.080      864.263
10/28/2014  14:34:00      -38.400      -19.130        8.755       27.550       31.552       17.403      759.015      995.527      302.866        0.199        0.103       42.901       13.403        0.098      342.888       18.614      864.241
10/28/2014  14:35:00       19.587      -23.992       17.218       21.011       21.457       19.660      441.480      460.389      386.509        0.127        0.064       30.972       13.222        0.182      342.253       17.534      864.244
10/28/2014  14:36:00       27.501       21.440       21.617       27.304       26.536       31.076      745.514      704.147      965.720        0.205        0.121       34.871       14.111        0.164      342.039       17.171      864.233
10/28/2014  14:37:00       93.820       61.756       43.229       70.247       53.077       50.598     4934.680     2817.162     2560.160        1.240        0.516      112.321       34.648        0.095      342.487       17.930      864.220
10/28/2014  14:38:00      157.834      122.349       23.883       43.791       43.523       33.687     1917.670     1894.229     1134.827        2.270        0.247      199.702       27.911        0.020      342.369       17.729      864.221
10/28/2014  14:39:00      102.940       61.805        1.980       42.590       39.910       27.240     1813.933     1592.783      742.042        0.928        0.207      120.069       18.189        0.023      342.389       17.764      864.222
10/28/2014  14:40:00       32.609       34.139       -8.449       26.175       22.635       16.810      685.106      512.328      282.588        0.189        0.074       47.210       11.423        0.059      342.345       17.690      864.208
10/28/2014  14:41:00       18.801      -24.233      -11.388       19.403       25.675       17.834      376.467      659.203      318.059        0.121        0.068       30.671       11.374        0.138      342.652       18.211      864.201
10/28/2014  14:42:00       12.902        9.473       -0.891       23.193       22.937       15.775      537.924      526.127      248.849        0.078        0.066       16.006       11.606        0.526      342.556       18.048      864.191
10/28/2014  14:43:00       29.410        1.772       10.994       30.098       24.296       21.885      905.909      590.284      478.936        0.148        0.099       29.464       15.193        0.266      342.426       17.829      864.189
10/28/2014  14:44:00       60.032      -46.805        1.028       56.640       48.102       27.964     3208.093     2313.755      781.987        0.605        0.315       76.122       11.218        0.022      342.017       17.134      864.197
10/28/2014  14:45:00       38.390      -65.474       26.734       59.227       63.827       44.651     3507.849     4073.913     1993.714        0.802        0.479       75.899       34.547        0.207      342.807       18.474      864.201
10/28/2014  14:46:00      103.659     -135.882       -2.778       59.765       73.654       38.945     3571.827     5424.916     1516.710        1.986        0.526      170.907       39.844        0.054      342.537       18.013      864.204
10/28/2014  14:47:00       63.791      -25.468       17.575       59.940       54.404       36.249     3592.814     2959.779     1313.990        0.645        0.393       68.687       30.139        0.193      342.374       17.738      864.220
10/28/2014  14:48:00       48.059       35.445       38.057       44.969       28.135       29.241     2022.254      791.598      855.032        0.434        0.183       59.716       13.884        0.054      342.203       17.448      864.245
10/28/2014  14:49:00        9.983      -34.287       -5.166       26.558       47.105       24.447      705.310     2218.876      597.670        0.241        0.176       35.711       14.659        0.168      342.138       17.338      864.245
10/28/2014  14:50:00       29.028      -26.521       -1.286       29.491       49.035       26.540      869.713     2404.412      704.360        0.276        0.199       39.319       26.176        0.443      342.132       17.328      864.236
10/28/2014  14:51:00       20.905      -53.670       -6.472       35.241       37.964       22.178     1241.907     1441.241      491.873        0.327        0.159       57.598       16.727        0.084      342.084       17.246      864.220
10/28/2014  14:52:00       30.817       10.708       -6.150       45.403       21.133       17.270     2061.394      446.624      298.262        0.195        0.140       32.624       11.872        0.132      342.475       17.911      864.196
10/28/2014  14:53:00       71.098       45.877       12.960       38.385       56.725       29.170     1473.429     3217.755      850.878        0.643        0.277       84.614       18.994        0.050      342.268       17.559      864.187
10/28/2014  14:54:00       52.328       43.256       -5.517       49.558       55.181       33.936     2455.956     3044.917     1151.650        0.564        0.333       67.892       32.622        0.231      342.732       18.347      864.176
10/28/2014  14:55:00       71.106       52.302       10.344       47.334       54.065       36.382     2240.538     2923.021     1323.684        0.719        0.324       88.269       14.741        0.028      342.751       18.379      864.180
10/28/2014  14:56:00       13.840      -41.059       -7.861       30.451       48.260       22.542      927.257     2328.994      508.132        0.285        0.188       43.329       25.250        0.340      342.546       18.030      864.204
10/28/2014  14:57:00        0.253      -25.519        1.402       31.868       38.464       21.311     1015.594     1479.515      454.177        0.180        0.147       25.520       21.799        0.730      342.573       18.078      864.208
10/28/2014  14:58:00       -2.260        6.253        8.717       47.611       31.263       20.025     2266.844      977.348      400.984        0.188        0.182        6.649       15.597        5.502      342.549       18.036      864.183
10/28/2014  14:59:00       27.161      -25.728       17.261       26.272       31.641       18.842      690.238     1001.140      355.034        0.187        0.102       37.412       20.281        0.294      342.241       17.514      864.171
10/28/2014  15:00:00       11.380        7.814       14.768       33.611       27.625       22.723     1129.708      763.115      516.351        0.141        0.120       13.804       12.780        0.857      342.560       18.056      864.152
10/28/2014  15:01:00       20.367      -18.213       -6.006       44.547       39.123       23.813     1984.399     1530.627      567.050        0.243        0.204       27.323       21.685        0.630      342.503       17.959      864.131
10/28/2014  15:02:00       44.120       74.606       82.153       59.185       69.029       46.655     3502.843     4764.941     2176.664        1.235        0.522       86.675       41.667        0.231      342.539       18.019      864.097
10/28/2014  15:03:00       89.358      -17.799        9.868       67.772      112.633       50.055     4593.041    12686.199     2505.534        1.409        0.989       91.114       51.364        0.318      342.568       18.068      864.077
10/28/2014  15:04:00       27.959      -32.607       32.892       50.423       62.464       43.212     2542.478     3901.763     1867.302        0.562        0.416       42.953       38.682        0.811      342.635       18.181      864.077
10/28/2014  15:05:00       35.339       18.522       18.602       40.171       45.843       24.977     1613.731     2101.538      623.826        0.314        0.217       39.899       28.306        0.503      342.915       18.661      864.089
10/28/2014  15:06:00      -20.853       35.790      -11.191       27.373       31.222       16.848      749.270      974.809      283.853        0.192        0.100       41.422       14.133        0.116      342.949       18.715      864.089
10/28/2014  15:07:00       26.019      -16.812       11.565       27.436       19.210       19.198      752.736      369.012      368.557        0.129        0.075       30.978       17.175        0.307      342.794       18.454      864.107
10/28/2014  15:08:00       43.504      -44.422       -6.588       30.642       28.528       23.873      938.937      813.874      569.925        0.312        0.116       62.177       17.384        0.078      342.195       17.435      864.112
10/28/2014  15:09:00       35.158      -21.038        8.181       34.181       42.599       23.360     1168.321     1814.633      545.686        0.264        0.176       40.972       18.416        0.202      342.436       17.845      864.098
10/28/2014  15:10:00       24.558      -34.801       15.127       35.667       46.869       23.662     1272.131     2196.709      559.882        0.304        0.201       42.593       16.951        0.158      342.727       18.339      864.085
10/28/2014  15:11:00       34.801        4.909        5.382       14.369       10.598       17.588      206.459      112.313      309.345        0.095        0.031       35.146       11.826        0.113      342.595       18.115      864.069
10/28/2014  15:12:00      -13.145       13.951        7.967       41.355       21.442       16.568     1710.270      459.765      274.514        0.144        0.122       19.168       17.822        0.864      342.737       18.357      864.065
10/28/2014  15:13:00      -18.752      -15.462       23.411       55.440       36.532       26.073     3073.635     1334.576      679.797        0.311        0.254       24.305       24.740        1.036      342.950       18.719      864.066
10/28/2014  15:14:00       -5.819        3.701       15.410       41.045       27.686       23.774     1684.727      766.511      565.196        0.165        0.151        6.896       17.126        6.168      342.640       18.191      864.072
10/28/2014  15:15:00       22.148      -42.933        9.474       43.486       52.178       19.289     1890.993     2722.587      372.075        0.370        0.249       48.309       22.801        0.223      342.998       18.801      864.073
10/28/2014  15:16:00       68.034      -53.751        9.434       42.003       48.120       22.266     1764.217     2315.561      495.783        0.609        0.229       86.705       30.052        0.120      342.963       18.742      864.075
10/28/2014  15:17:00       45.533      -30.029       17.964       51.460       56.235       25.956     2648.158     3162.374      673.693        0.489        0.324       54.544       31.418        0.332      343.280       19.279      864.080
10/28/2014  15:18:00       12.213        5.915       14.381       30.480       28.535       22.627      929.053      814.272      511.966        0.132        0.113       13.570        9.867        0.529      343.153       19.063      864.085
10/28/2014  15:19:00       37.344      -20.223        1.370       29.275       26.211       23.499      857.017      687.038      552.210        0.195        0.105       42.468       19.306        0.207      342.609       18.138      864.086
10/28/2014  15:20:00       37.397      -42.447      -10.348       31.494       24.622       19.079      991.889      606.226      364.013        0.263        0.098       56.571       12.235        0.047      342.498       17.950      864.080
10/28/2014  15:21:00      103.428     -124.059      -10.780       45.601       71.417       43.693     2079.429     5100.317     1909.110        1.764        0.454      161.517       42.472        0.069      343.044       18.878      864.088
10/28/2014  15:22:00        6.979      -30.761       -6.557       27.320       32.446       15.533      746.365     1052.774      241.287        0.154        0.102       31.543       13.626        0.187      343.030       18.855      864.100
10/28/2014  15:23:00       11.321       23.046       -8.081       37.852       25.708       19.936     1432.768      660.891      397.442        0.161        0.125       25.677        8.532        0.110      342.889       18.615      864.109
10/28/2014  15:24:00       67.370      -40.935        3.759       46.503       46.027       24.643     2162.572     2118.508      607.272        0.556        0.244       78.831       18.948        0.058      342.679       18.257      864.117
10/28/2014  15:25:00       24.740       -0.794       30.535       49.142       39.728       30.133     2414.887     1578.339      907.970        0.322        0.245       24.752       28.888        1.362      342.822       18.500      864.114
10/28/2014  15:26:00       53.841      -22.521       -1.696       33.015       42.806       28.466     1090.018     1832.393      810.311        0.357        0.187       58.361       26.738        0.210      342.987       18.781      864.123
10/28/2014  15:27:00       97.814       51.324       17.525       42.719       49.429       38.977     1824.936     2443.235     1519.169        0.915        0.289      110.462       23.115        0.044      342.952       18.721      864.120
10/28/2014  15:28:00       64.183       46.481       42.150       47.807       44.432       41.002     2285.476     1974.243     1681.126        0.700        0.297       79.246       30.936        0.152      342.999       18.802      864.113
10/28/2014  15:29:00       57.308       48.786       20.423       32.976       56.420       25.765     1087.429     3183.202      663.847        0.551        0.247       75.261       14.038        0.035      342.958       18.733      864.105
10/28/2014  15:30:00       58.432      -35.886        3.181       50.017       28.469       26.428     2501.671      810.492      698.419        0.436        0.201       68.572       23.194        0.114      343.041       18.875      864.104
10/28/2014  15:31:00       90.616       67.433       14.812       66.979       49.084       34.001     4486.158     2409.259     1156.056        1.051        0.403      112.954       25.201        0.050      343.064       18.911      864.104
10/28/2014  15:32:00      109.012       69.908        9.160       48.622       23.627       28.000     2364.079      558.214      784.020        1.028        0.185      129.502       21.610        0.028      343.036       18.865      864.107
10/28/2014  15:33:00       92.670       70.656       11.931       40.318       30.504       24.684     1625.524      930.519      609.303        0.844        0.158      116.533       17.064        0.021      343.019       18.837      864.108
10/28/2014  15:34:00       26.811      -26.991        1.278       22.838       41.398       21.298      521.570     1713.760      453.619        0.207        0.134       38.044       16.211        0.182      342.618       18.153      864.114
10/28/2014  15:35:00        9.416       -1.192        8.721       23.984       13.713       17.203      575.237      188.057      295.956        0.061        0.053        9.491       17.067        3.234      343.145       19.050      864.100
10/28/2014  15:36:00      120.796       41.751       11.300       45.768       34.032       26.508     2094.755     1158.192      702.688        1.021        0.198      127.808       23.765        0.035      342.952       18.721      864.104
10/28/2014  15:37:00       25.806       19.801       19.515       24.720       32.568       17.348      611.074     1060.669      300.943        0.171        0.099       32.527        5.775        0.032      343.007       18.817      864.108
10/28/2014  15:38:00       43.826       41.674       13.801       36.742       32.265       30.516     1350.005     1040.998      931.254        0.358        0.166       60.477       13.194        0.048      343.051       18.891      864.106
10/28/2014  15:39:00       28.164      -43.641       -2.346       19.250       24.873       19.424      370.568      618.645      377.274        0.203        0.068       51.940       10.566        0.041      343.048       18.885      864.098
10/28/2014  15:40:00       29.656       34.399       43.459       32.101       40.538       40.424     1030.462     1643.368     1634.097        0.413        0.215       45.417       35.830        0.622      342.926       18.677      864.081
10/28/2014  15:41:00       71.944      -19.971        3.281       45.464       29.989       41.091     2066.941      899.350     1688.506        0.512        0.233       74.665       29.248        0.153      342.539       18.021      864.063
10/28/2014  15:42:00      -16.320      -20.248        7.254       19.461       30.929       26.281      378.743      956.596      690.665        0.138        0.101       26.006       17.809        0.469      342.914       18.658      864.058
10/28/2014  15:43:00        8.988      -31.564       23.446       20.312       46.071       27.781      412.563     2122.537      771.804        0.247        0.165       32.819       12.414        0.143      342.940       18.702      864.055
10/28/2014  15:44:00       26.689       39.015       46.367       33.556       36.890       28.601     1126.012     1360.886      818.027        0.384        0.165       47.271       26.059        0.304      342.800       18.463      864.062
10/28/2014  15:45:00       14.189        4.588       12.935       31.966       54.124       32.430     1021.831     2929.457     1051.734        0.270        0.250       14.913       35.433        5.645      342.755       18.387      864.064
10/28/2014  15:46:00      -19.877        8.371        4.200       28.648       18.136       27.271      820.706      328.918      743.713        0.119        0.095       21.567       23.321        1.169      343.011       18.822      864.059
10/28/2014  15:47:00       50.169      -18.021       12.915       32.132       36.472       27.753     1032.474     1330.179      770.216        0.307        0.157       53.308       28.691        0.290      342.820       18.496      864.065
10/28/2014  15:48:00       60.657       33.619       32.887       31.836       35.192       40.914     1013.538     1238.492     1673.959        0.491        0.196       69.351       30.431        0.193      342.609       18.138      864.063
10/28/2014  15:49:00       44.197      -27.491        7.457       50.997       37.752       37.063     2600.673     1425.236     1373.655        0.408        0.270       52.049       31.384        0.364      342.688       18.274      864.065
10/28/2014  15:50:00       39.236       11.473       52.132       46.560       61.855       42.920     2167.838     3826.053     1842.145        0.611        0.392       40.879       39.088        0.914      343.025       18.845      864.064
10/28/2014  15:51:00       30.836       35.530       32.757       29.014       27.727       26.984      841.818      768.809      728.118        0.281        0.117       47.045       21.800        0.215      343.086       18.950      864.076
10/28/2014  15:52:00       12.352       80.572       -6.683       24.504       28.248       24.281      600.468      797.971      589.554        0.434        0.099       81.513       19.675        0.058      343.169       19.090      864.070
10/28/2014  15:53:00       -9.162       45.478       -4.788       11.711       17.883       11.006      137.154      319.795      121.140        0.138        0.029       46.391        6.540        0.020      343.344       19.388      864.064
10/28/2014  15:54:00       18.840       30.802        9.806       25.245       34.209       23.938      637.294     1170.288      573.051        0.189        0.119       36.107       17.218        0.227      343.443       19.559      864.069
10/28/2014  15:55:00        4.118       59.816      -16.374       15.969       15.261        7.438      255.008      232.902       55.321        0.220        0.027       59.958        7.538        0.016      343.256       19.242      864.063
10/28/2014  15:56:00       24.840       20.613       23.423       19.057       19.699       14.774      363.180      388.055      218.261        0.128        0.048       32.279       14.189        0.193      343.435       19.544      864.059
10/28/2014  15:57:00       11.438        7.628       10.884       24.031       34.755       18.065      577.481     1207.897      326.344        0.121        0.106       13.748       13.958        1.031      343.172       19.096      864.060
10/28/2014  15:58:00       41.287      -29.461        7.850       19.426       22.060       16.438      377.356      486.663      270.218        0.188        0.057       50.721       11.441        0.051      343.302       19.318      864.055
10/28/2014  15:59:00       15.833      -14.365       24.632       28.394       41.208       19.497      806.211     1698.078      380.117        0.197        0.144       21.378       19.594        0.840      343.428       19.532      864.050
10/28/2014  16:00:00       47.125      -89.392       10.422       43.762       55.054       37.989     1915.145     3030.891     1443.128        0.835        0.319      101.053       28.603        0.080      343.538       19.720      864.036
10/28/2014  16:01:00       82.751     -110.861        8.988       55.408       61.163       36.562     3070.016     3740.867     1336.795        1.368        0.407      138.340       29.492        0.045      343.344       19.390      864.030
10/28/2014  16:02:00       33.882      -82.645       11.315       31.519       61.159       30.608      993.469     3740.398      936.846        0.689        0.284       89.320       28.938        0.105      343.368       19.429      864.020
10/28/2014  16:03:00       55.580      -59.151       16.560       27.929       40.472       25.917      780.017     1638.005      671.688        0.498        0.154       81.167       21.631        0.071      343.509       19.670      864.029
10/28/2014  16:04:00      -25.146      -26.312        9.115       52.298       36.420       30.585     2735.114     1326.446      935.426        0.320        0.250       36.396       33.993        0.872      343.725       20.037      864.034
10/28/2014  16:05:00      -74.791       -5.544        5.728       40.115       39.602       24.341     1609.197     1568.282      592.487        0.471        0.188       74.997       24.317        0.105      343.728       20.045      864.033
10/28/2014  16:06:00      -66.694      -32.340       -3.678       28.634       30.741       22.925      819.906      945.023      525.569        0.390        0.115       74.121       16.698        0.051      343.553       19.745      864.037
10/28/2014  16:07:00       -2.723        5.048        3.238       34.301       25.072       28.073     1176.580      628.621      788.095        0.132        0.130        5.736       18.240       10.113      343.274       19.272      864.037
10/28/2014  16:08:00       17.908       -0.936       15.300       27.533       21.183       17.830      758.056      448.725      317.899        0.104        0.076       17.932       11.980        0.446      342.990       18.787      864.038
10/28/2014  16:09:00      -15.671      -10.993       10.449       42.288       29.406       17.498     1788.277      864.737      306.197        0.172        0.148       19.142       21.494        1.261      343.404       19.493      864.028
10/28/2014  16:10:00      -22.166      -20.372       14.325       68.413       30.936       22.793     4680.348      957.047      519.524        0.363        0.308       30.106       23.705        0.620      343.474       19.610      864.024
10/28/2014  16:11:00      -50.065      -23.790        8.224       67.105       37.542       26.877     4503.098     1409.402      722.371        0.489        0.332       55.429       30.253        0.298      343.419       19.517      864.014
10/28/2014  16:12:00      -24.805      -57.530       10.372       41.009       42.706       21.298     1681.769     1823.843      453.584        0.400        0.198       62.650       17.618        0.079      343.532       19.710      864.009
10/28/2014  16:13:00      -25.015      -25.089        0.180       70.550       26.886       21.783     4977.335      722.878      474.480        0.371        0.309       35.429       18.792        0.281      343.319       19.348      864.002
10/28/2014  16:14:00        7.063      -28.246       -3.564       48.822       21.684       18.697     2383.585      470.212      349.575        0.203        0.160       29.116       12.805        0.193      342.911       18.654      864.002
10/28/2014  16:15:00       37.085        3.310       12.437       45.247       26.659       26.003     2047.252      710.686      676.171        0.249        0.172       37.232       24.052        0.417      342.953       18.722      864.008
10/28/2014  16:16:00       27.664      -53.358       12.357       20.462       30.555       28.544      418.699      933.626      814.788        0.297        0.108       60.103       27.691        0.212      343.677       19.959      864.003
10/28/2014  16:17:00       58.065      -98.164       -9.937       47.164       38.485       36.465     2224.452     1481.068     1329.719        0.907        0.252      114.051       36.995        0.105      343.552       19.744      863.996
10/28/2014  16:18:00       50.324      -43.784        3.753       47.240       59.843       33.250     2231.575     3581.232     1105.575        0.569        0.346       66.705       38.990        0.342      343.454       19.577      863.997
10/28/2014  16:19:00        8.666      -45.742       16.754       38.781       43.028       24.105     1503.968     1851.406      581.060        0.319        0.197       46.555       18.903        0.165      343.478       19.618      863.993
10/28/2014  16:20:00       14.399      -38.906       20.782       22.490       53.961       27.255      505.778     2911.786      742.829        0.316        0.208       41.485       29.670        0.512      343.468       19.600      863.991
10/28/2014  16:21:00       41.461      -67.939       10.641       44.786       59.572       35.307     2005.822     3548.845     1246.556        0.662        0.340       79.591       30.647        0.148      343.567       19.770      863.983
10/28/2014  16:22:00       25.947      -46.440       -4.603       49.154       54.641       49.495     2416.080     2985.629     2449.790        0.535        0.393       53.197       32.087        0.364      343.470       19.604      863.975
10/28/2014  16:23:00      -12.931      -30.569       15.936       32.189       50.373       36.144     1036.102     2537.458     1306.387        0.312        0.244       33.192       17.275        0.271      343.486       19.631      863.981
10/28/2014  16:24:00       -5.491      -18.455       23.977       29.125       26.593       19.494      848.242      707.185      380.008        0.144        0.097       19.254       10.040        0.272      343.505       19.664      863.994
10/28/2014  16:25:00       69.238      -76.340       -2.919       51.431       53.973       30.613     2645.171     2913.041      937.125        0.856        0.325      103.061       26.621        0.067      343.599       19.822      863.999
10/28/2014  16:26:00       34.130      -47.791        9.720       45.036       62.647       41.665     2028.282     3924.592     1735.982        0.561        0.384       58.727       35.803        0.372      343.270       19.263      864.000
10/28/2014  16:27:00       33.291      -29.768       19.822       43.988       35.979       32.394     1934.977     1294.482     1049.392        0.333        0.214       44.659       24.089        0.291      343.394       19.475      864.001
10/28/2014  16:28:00       16.625      -30.736       22.793       41.195       52.693       27.477     1697.068     2776.594      754.959        0.348        0.261       34.944       22.162        0.402      343.516       19.682      863.991
10/28/2014  16:29:00      124.909     -148.145      -24.318       54.958       67.463       41.671     3020.419     4551.247     1736.507        2.372        0.465      193.776       45.415        0.055      343.426       19.527      863.976
10/28/2014  16:30:00       76.296     -109.407      -28.995       68.478       71.863       32.495     4689.222     5164.296     1055.899        1.477        0.545      133.383       35.778        0.072      343.418       19.515      863.975
10/28/2014  16:31:00       97.333      -97.929       -8.406       29.004       40.193       25.593      841.212     1615.459      654.997        1.112        0.156      138.072       23.195        0.028      343.453       19.576      863.977
10/28/2014  16:32:00       13.272      -25.682       33.872       33.420       62.064       31.040     1116.915     3851.906      963.494        0.396        0.297       28.909       32.242        1.244      343.409       19.502      863.973
10/28/2014  16:33:00       15.477      -43.408        8.568       29.891       36.495       31.468      893.465     1331.890      990.206        0.271        0.161       46.085       24.957        0.293      343.567       19.769      863.964
10/28/2014  16:34:00       30.294      -77.463       -0.597       18.769       25.829       24.328      352.283      667.129      591.858        0.426        0.081       83.176       16.377        0.039      343.526       19.698      863.949
10/28/2014  16:35:00       13.288      -46.354        9.654       25.579       47.619       30.519      654.299     2267.545      931.412        0.314        0.193       48.221       32.563        0.456      343.415       19.510      863.932
10/28/2014  16:36:00       30.202      -80.146       11.920       34.975       36.864       30.899     1223.220     1358.928      954.755        0.551        0.177       85.647       23.931        0.078      343.487       19.633      863.921
10/28/2014  16:37:00       -5.792       -0.275       21.809       16.798       39.324       26.232      282.170     1546.374      688.130        0.151        0.126        5.799       29.481       25.847      343.510       19.671      863.919
10/28/2014  16:38:00      -18.148        5.217       19.765       12.539       29.806       23.107      157.230      888.399      533.914        0.116        0.079       18.883       13.806        0.535      343.167       19.089      863.914
10/28/2014  16:39:00        0.251       10.179       28.501       22.042       27.150       18.989      485.844      737.147      360.577        0.125        0.079       10.182       19.009        3.485      343.274       19.271      863.910
10/28/2014  16:40:00      -11.359      -23.580        4.504       20.494       16.934       17.328      420.015      286.746      300.243        0.086        0.050       26.174       10.065        0.148      343.726       20.039      863.899
10/28/2014  16:41:00      -29.847      -13.954        1.948       33.679       18.361       15.222     1134.266      337.123      231.698        0.140        0.085       32.947       16.424        0.248      343.927       20.384      863.893
10/28/2014  16:42:00       -2.462        4.654       25.354       14.702       21.462       18.603      216.146      460.609      346.080        0.085        0.051        5.265       12.801        5.912      343.535       19.716      863.882
10/28/2014  16:43:00       23.291      -19.465       -8.826       20.667       17.582       19.024      427.126      309.136      361.910        0.105        0.055       30.354       10.238        0.114      343.393       19.474      863.875
10/28/2014  16:44:00       24.355       -9.155        8.276       33.365       30.145       21.068     1113.215      908.748      443.840        0.161        0.123       26.019       16.263        0.391      342.935       18.695      863.866
10/28/2014  16:45:00       23.095       -3.414       15.584       29.958       31.437       23.276      897.476      988.285      541.783        0.161        0.121       23.346       17.491        0.561      342.956       18.729      863.858
10/28/2014  16:46:00       70.354      -66.405       -7.434       39.046       54.954       32.031     1524.589     3019.945     1025.993        0.749        0.279       96.744       32.804        0.115      343.083       18.945      863.852
10/28/2014  16:47:00       61.564      -52.350      -10.046       42.739       36.609       28.959     1826.653     1340.183      838.609        0.532        0.200       80.813       26.871        0.111      343.327       19.360      863.854
10/28/2014  16:48:00        0.655      -22.120       20.119       27.768       39.480       21.398      771.067     1558.692      457.862        0.184        0.139       22.129       12.399        0.314      343.314       19.338      863.853
10/28/2014  16:49:00      -26.077      -64.517       10.364       24.716       33.111       30.289      610.872     1096.316      917.395        0.379        0.131       69.588       16.711        0.058      343.433       19.541      863.853
10/28/2014  16:50:00       -8.584      -50.056        3.027       30.814       29.909       25.672      949.502      894.571      659.038        0.255        0.125       50.787       17.153        0.114      343.408       19.499      863.862
10/28/2014  16:51:00      -11.088      -18.937       14.043       31.550       27.606       23.191      995.390      762.110      537.832        0.149        0.115       21.945       18.136        0.683      343.364       19.423      863.864
10/28/2014  16:52:00       -2.956      -19.314        7.817       29.475       26.539       22.585      868.763      704.312      510.084        0.126        0.104       19.539       16.074        0.677      343.418       19.516      863.866
10/28/2014  16:53:00       11.366      -38.649        8.656       22.327       29.707       25.778      498.494      882.521      664.505        0.187        0.102       40.286       19.170        0.226      343.493       19.643      863.872
10/28/2014  16:54:00      -21.490       -7.722       -0.227       26.583       23.743       28.146      706.655      563.710      792.193        0.129        0.103       22.835       19.384        0.721      343.822       20.204      863.880
10/28/2014  16:55:00       -4.793       18.783       -1.171       16.680       14.757       17.830      278.235      217.756      317.912        0.060        0.041       19.385        5.255        0.073      343.348       19.397      863.900
10/28/2014  16:56:00      -10.308      -25.415       11.246       38.378       26.820       16.131     1472.834      719.293      260.199        0.166        0.123       27.426       13.016        0.225      343.528       19.703      863.906
10/28/2014  16:57:00       -6.016        6.752       25.434       22.507       20.152       16.423      506.585      406.113      269.714        0.096        0.059        9.044        7.778        0.740      343.292       19.301      863.914
10/28/2014  16:58:00       99.193     -105.107      -13.973       47.453       59.145       32.235     2251.750     3498.084     1039.116        1.393        0.339      144.522       34.857        0.058      343.400       19.486      863.921
10/28/2014  16:59:00       74.377      -89.046        6.655       59.367       67.985       41.909     3524.445     4622.017     1756.352        1.170        0.495      116.022       50.506        0.189      343.505       19.665      863.922
10/28/2014  17:00:00       56.555      -50.234       24.307       44.641       46.620       41.204     1992.818     2173.469     1697.734        0.609        0.293       75.643       34.164        0.204      343.385       19.458      863.924
10/28/2014  17:01:00       27.408       -7.539       33.230       43.718       41.518       30.332     1911.229     1723.717      920.038        0.323        0.228       28.426       24.406        0.737      343.235       19.205      863.930
10/28/2014  17:02:00       27.019       -9.481       15.006       37.323       40.204       23.611     1392.980     1616.326      557.480        0.231        0.178       28.634       25.145        0.771      343.271       19.264      863.926
10/28/2014  17:03:00        9.346       -0.237       47.274       22.845       42.402       20.014      521.905     1797.912      400.570        0.252        0.136        9.349       20.007        4.579      343.065       18.913      863.923
10/28/2014  17:04:00        1.508      -41.224       16.708       27.368       41.340       23.426      748.981     1708.967      548.787        0.249        0.150       41.251       21.800        0.279      343.473       19.610      863.915
10/28/2014  17:05:00       59.934      -65.482        9.400       43.609       45.588       28.111     1901.703     2078.287      790.245        0.637        0.239       88.769       29.810        0.113      343.541       19.726      863.921
10/28/2014  17:06:00       37.992      -86.869        8.994       26.452       37.698       23.669      699.722     1421.120      560.216        0.588        0.134       94.814       15.446        0.027      343.520       19.690      863.923
10/28/2014  17:07:00       22.782      -44.183        6.673       21.346       29.747       18.573      455.635      884.909      344.938        0.210        0.084       49.711       14.952        0.090      343.578       19.787      863.929
10/28/2014  17:08:00       36.233      -34.357       32.460       41.295       64.373       33.676     1705.238     4143.885     1134.044        0.526        0.349       49.932       37.141        0.553      343.382       19.454      863.935
10/28/2014  17:09:00       65.157      -88.614        1.619       39.925       52.120       30.850     1594.024     2716.543      951.707        0.868        0.263      109.990       28.622        0.068      343.542       19.726      863.940
10/28/2014  17:10:00       20.902      -34.863       34.677       44.444       57.267       29.670     1975.230     3279.476      880.295        0.449        0.307       40.649       32.193        0.627      343.511       19.674      863.951
10/28/2014  17:11:00       64.835      -67.609       11.205       50.796       33.224       21.359     2580.241     1103.865      456.224        0.652        0.207       93.672       21.638        0.053      343.542       19.726      863.966
10/28/2014  17:12:00       16.492      -28.375       17.910       30.855       33.321       27.614      952.031     1110.279      762.513        0.211        0.141       32.820       24.243        0.546      343.511       19.674      863.988
10/28/2014  17:13:00        2.341      -12.079       26.769       22.564       31.799       21.354      509.138     1011.182      456.005        0.142        0.099       12.303       18.559        2.275      343.401       19.487      863.997
10/28/2014  17:14:00       61.604      -42.809       11.109       32.629       39.450       24.572     1064.664     1556.330      603.799        0.449        0.161       75.018       18.096        0.058      343.379       19.450      864.009
10/28/2014  17:15:00        0.319       14.938       20.313       21.027       19.827       16.818      442.129      393.104      282.856        0.088        0.056       14.942       14.360        0.924      342.938       18.699      864.019
10/28/2014  17:16:00       23.364      -12.283        2.263       36.186       24.015       16.420     1309.416      576.699      269.601        0.143        0.108       26.396       16.966        0.413      342.821       18.499      864.030
10/28/2014  17:17:00        5.474       15.088       28.643       19.539       25.599       16.126      381.768      655.320      260.041        0.119        0.065       16.050       15.499        0.933      342.798       18.459      864.043
10/28/2014  17:18:00        2.408      -12.902       18.412       23.045       34.834       21.932      531.055     1213.406      481.014        0.137        0.111       13.124       10.008        0.581      343.009       18.820      864.054
10/28/2014  17:19:00       26.529      -27.708        7.868       34.346       36.069       30.164     1179.680     1301.007      909.865        0.246        0.170       38.360       18.566        0.234      343.172       19.096      864.066
10/28/2014  17:20:00       -1.622      -36.974       -3.708       27.138       23.532       25.634      736.485      553.772      657.086        0.166        0.097       37.009       15.330        0.172      343.583       19.796      864.095
10/28/2014  17:21:00      -21.628       -6.044        1.105       12.811       14.248        9.667      164.133      202.999       93.458        0.048        0.023       22.456        5.399        0.058      343.489       19.637      864.099
10/28/2014  17:22:00       12.369      -22.377       15.235       20.604       22.557       12.292      424.524      508.821      151.101        0.098        0.054       25.568       11.203        0.192      343.500       19.655      864.105
10/28/2014  17:23:00       10.450      -42.620       -3.350       21.241       32.687       23.618      451.168     1068.432      557.825        0.201        0.104       43.883       19.850        0.205      343.160       19.075      864.110
10/28/2014  17:24:00        6.656      -38.404      -18.235       28.228       22.996       18.395      796.844      528.821      338.380        0.176        0.083       38.976       11.101        0.081      343.077       18.936      864.122
10/28/2014  17:25:00      -19.626       -4.904        2.175       20.172       23.473       20.661      406.926      550.973      426.893        0.090        0.069       20.229       15.570        0.592      343.354       19.407      864.133
10/28/2014  17:26:00      -75.175      -46.408       -0.121       28.244       31.425       12.093      797.738      987.559      146.245        0.487        0.097       88.346       12.576        0.020      343.628       19.874      864.137
10/28/2014  17:27:00      -45.257      -83.859        5.218       44.494       40.153       23.990     1979.711     1612.298      575.504        0.664        0.208       95.292       23.363        0.060      343.639       19.893      864.132
10/28/2014  17:28:00      -78.344      -78.223       -6.193       30.737       31.291       20.253      944.752      979.136      410.191        0.731        0.117      110.710       18.137        0.027      343.545       19.733      864.123
10/28/2014  17:29:00      -75.166      -84.484       -4.262       27.850       39.470       17.391      775.612     1557.918      302.430        0.772        0.132      113.081       20.483        0.033      343.594       19.816      864.110
10/28/2014  17:30:00      -65.410      -53.403       -1.200       31.224       25.496       20.545      974.950      650.023      422.089        0.459        0.102       84.441       18.566        0.048      343.609       19.840      864.111
10/28/2014  17:31:00      -39.737      -57.143        3.507       40.413       56.068       28.068     1633.208     3143.639      787.833        0.521        0.278       69.601       26.001        0.140      343.658       19.924      864.122
10/28/2014  17:32:00     -135.835      -80.976       -0.666       54.368       39.117       40.538     2955.871     1530.128     1643.293        1.557        0.306      158.140       33.655        0.045      343.466       19.595      864.129
10/28/2014  17:33:00      -81.221     -117.858       -6.178       47.172       41.135       28.582     2225.158     1692.081      816.919        1.263        0.237      143.134       16.571        0.013      343.474       19.612      864.145
10/28/2014  17:34:00      -92.790     -141.322        1.665       43.074       45.578       23.519     1855.408     2077.362      553.122        1.653        0.224      169.062       16.334        0.009      343.438       19.547      864.152
10/28/2014  17:35:00      -98.022     -139.295      -17.087       37.752       36.164       22.953     1425.216     1307.863      526.859        1.628        0.163      170.328       14.354        0.007      343.429       19.533      864.161
10/28/2014  17:36:00      -84.234     -109.061       -3.817       39.879       32.264       22.384     1590.322     1040.975      501.046        1.107        0.157      137.803       23.072        0.028      343.434       19.544      864.163
10/28/2014  17:37:00     -107.460     -107.873       -5.703       45.335       47.779       30.448     2055.236     2282.825      927.098        1.424        0.263      152.263       27.132        0.032      343.448       19.566      864.147
10/28/2014  17:38:00      -97.465      -95.990       -2.818       37.922       42.385       22.396     1438.069     1796.492      501.560        1.123        0.187      136.797       16.437        0.014      343.450       19.570      864.142
10/28/2014  17:39:00      -82.034      -39.790       -3.724       51.948       26.880       21.191     2698.570      722.511      449.067        0.610        0.194       91.175       24.410        0.072      343.497       19.649      864.138
10/28/2014  17:40:00     -117.170      -50.827        0.356       47.168       23.938       18.807     2224.844      573.034      353.719        0.973        0.158      127.719       22.087        0.030      343.452       19.575      864.138
10/28/2014  17:41:00      -62.542      -61.323       -0.441       55.198       44.059       28.815     3046.867     1941.213      830.310        0.674        0.291       87.591       25.058        0.082      343.441       19.555      864.145
10/28/2014  17:42:00      -87.803      -62.286       -1.544       26.591       24.093       18.531      707.078      580.489      343.408        0.661        0.082      107.651       16.171        0.023      343.469       19.605      864.144
10/28/2014  17:43:00      -32.053      -41.281        9.127       28.318       18.678       14.839      801.882      348.859      220.203        0.209        0.069       52.264       14.727        0.079      343.507       19.667      864.143
10/28/2014  17:44:00      -37.462      -45.672        5.926       35.337       24.959       17.986     1248.737      622.965      323.505        0.286        0.110       59.071       18.755        0.101      343.416       19.512      864.134
10/28/2014  17:45:00      -73.019      -51.144       -0.068       28.308       27.337       20.750      801.333      747.306      430.547        0.496        0.099       89.149       18.720        0.044      343.421       19.520      864.126
10/28/2014  17:46:00      -27.334      -10.692       11.351       31.397       31.014       20.537      985.782      961.852      421.768        0.168        0.118       29.351       23.371        0.634      343.176       19.104      864.110
10/28/2014  17:47:00      -16.550      -16.665        3.092       22.813       21.657       14.958      520.424      469.029      223.730        0.089        0.061       23.486       10.061        0.184      343.190       19.128      864.097
10/28/2014  17:48:00      -53.560      -23.761        2.172       28.806       27.891       14.221      829.762      777.898      202.230        0.262        0.090       58.594       12.867        0.048      343.256       19.240      864.085
10/28/2014  17:49:00      -12.850      -23.027       11.275       28.719       20.178       11.182      824.762      407.150      125.040        0.109        0.068       26.370        8.778        0.111      343.259       19.246      864.080
10/28/2014  17:50:00      -28.084      -26.929        4.302       29.120       17.851        9.822      847.946      318.642       96.462        0.140        0.063       38.908       12.564        0.104      343.179       19.107      864.068
10/28/2014  17:51:00      -45.299      -33.821        0.785       25.363       15.369       13.756      643.264      236.215      189.230        0.213        0.053       56.532       14.165        0.063      343.131       19.027      864.071
10/28/2014  17:52:00      -72.937      -38.398        1.136       17.521       13.621       12.244      306.999      185.530      149.919        0.372        0.032       82.427       10.428        0.016      343.132       19.030      864.080
10/28/2014  17:53:00      -59.527      -30.979        2.952       33.502       22.660       15.596     1122.385      513.477      243.224        0.320        0.094       67.105       14.544        0.047      342.953       18.722      864.085
10/28/2014  17:54:00      -90.946      -44.359       -4.388       20.172       21.815       14.736      406.897      475.883      217.144        0.568        0.055      101.188        9.723        0.009      343.083       18.943      864.083
10/28/2014  17:55:00      -64.499      -16.690       -1.015       28.837       24.731       15.033      831.570      611.600      225.980        0.305        0.083       66.623       13.180        0.039      343.026       18.847      864.083
10/28/2014  17:56:00      -73.730      -18.067       -1.651       32.034       21.595       10.656     1026.150      466.356      113.550        0.369        0.080       75.911        7.213        0.009      342.996       18.797      864.087
10/28/2014  17:57:00      -72.908      -14.464       -2.155       33.978       27.346       15.476     1154.532      747.787      239.519        0.384        0.107       74.329       16.905        0.052      342.939       18.700      864.091
10/28/2014  17:58:00      -63.507      -10.462       10.946       39.582       33.372       18.175     1566.741     1113.679      330.345        0.364        0.151       64.363       14.774        0.053      342.794       18.454      864.103
10/28/2014  17:59:00      -97.020      -28.278        3.358       40.407       29.487       16.435     1632.707      869.493      270.120        0.650        0.139      101.057       16.854        0.028      342.916       18.660      864.108
10/28/2014  18:00:00      -70.114      -26.557        3.933       40.936       33.843       23.019     1675.732     1145.357      529.895        0.449        0.168       74.974       22.669        0.091      342.827       18.509      864.103
10/28/2014  18:01:00     -110.249      -35.521       -3.047       39.002       25.787       15.982     1521.124      664.957      255.440        0.793        0.122      115.830       15.515        0.018      342.907       18.645      864.092
10/28/2014  18:02:00      -81.760      -32.084       -0.179       25.338       35.392       16.018      642.006     1252.614      256.587        0.493        0.108       87.830       13.779        0.025      342.876       18.592      864.096
10/28/2014  18:03:00      -82.741      -11.626        3.050       29.216       23.704       14.905      853.569      561.875      222.166        0.431        0.082       83.554       13.904        0.028      342.799       18.463      864.093
10/28/2014  18:04:00      -64.573      -52.580        1.338       32.899       23.326       17.589     1082.316      544.125      309.366        0.444        0.097       83.273       16.830        0.041      342.692       18.279      864.086
10/28/2014  18:05:00      -36.718      -17.880        6.985       31.120       24.353       17.935      968.459      593.056      321.658        0.180        0.094       40.840        9.815        0.058      342.474       17.908      864.078
10/28/2014  18:06:00      -30.711      -23.701        7.272       24.761       21.831       14.493      613.091      476.592      210.033        0.143        0.065       38.793       14.775        0.145      342.453       17.873      864.087
10/28/2014  18:07:00      -36.193      -22.378        8.030       28.005       31.526       15.061      784.270      993.863      226.836        0.194        0.100       42.552       15.898        0.140      342.516       17.981      864.080
10/28/2014  18:08:00      -52.685       -9.837        3.634       27.075       22.877       14.219      733.059      523.355      202.178        0.217        0.073       53.596       15.150        0.080      342.563       18.060      864.080
10/28/2014  18:09:00      -75.232       -4.839        1.422       27.346       23.066       14.625      747.810      532.031      213.877        0.359        0.075       75.387       12.318        0.027      342.456       17.878      864.079
10/28/2014  18:10:00     -111.579       -5.874       -3.160       26.109       19.801       15.838      681.692      392.063      250.854        0.691        0.066      111.733       16.203        0.021      342.411       17.803      864.075
10/28/2014  18:11:00      -78.816      -10.962        0.668       37.691       25.448       17.067     1420.588      647.600      291.287        0.435        0.118       79.575       14.312        0.032      342.293       17.601      864.074
10/28/2014  18:12:00     -124.489      -11.692       -8.524       30.951       22.055       17.908      957.975      486.445      320.686        0.874        0.088      125.037       15.876        0.016      342.223       17.481      864.069
10/28/2014  18:13:00      -99.912      -14.133       -8.941       37.231       20.030       17.988     1386.152      401.201      323.580        0.619        0.106      100.907       20.283        0.040      342.146       17.352      864.074
10/28/2014  18:14:00     -111.506      -13.476       -5.525       33.697       19.928       17.187     1135.467      397.131      295.390        0.724        0.091      112.317       17.806        0.025      342.099       17.273      864.072
10/28/2014  18:15:00     -108.500      -14.510       -2.431       34.256       23.689       20.082     1173.455      561.187      403.272        0.706        0.107      109.466       17.342        0.025      342.100       17.272      864.071
10/28/2014  18:16:00     -127.512      -10.572      -10.498       24.954       15.435       13.662      622.719      238.233      186.646        0.876        0.052      127.950       11.719        0.008      342.108       17.288      864.070
10/28/2014  18:17:00      -70.279      -14.023        0.997       37.342       24.959       19.698     1394.432      622.931      388.024        0.377        0.120       71.664       19.644        0.075      342.069       17.221      864.056
10/28/2014  18:18:00      -67.525      -17.804        5.268       44.981       26.962       17.146     2023.309      726.931      293.997        0.397        0.152       69.833       16.935        0.059      342.139       17.339      864.056
10/28/2014  18:19:00      -69.949      -18.343        6.134       37.933       34.177       18.068     1438.923     1168.101      326.452        0.410        0.147       72.314       20.910        0.084      342.075       17.231      864.061
10/28/2014  18:20:00     -118.117      -27.514       -0.205       28.543       22.214       12.110      814.727      493.466      146.664        0.808        0.073      121.280       10.139        0.007      342.331       17.665      864.064
10/28/2014  18:21:00     -118.667      -32.475       -3.220       24.073       25.732       15.948      579.486      662.119      254.325        0.832        0.075      123.030       10.115        0.007      342.240       17.511      864.086
10/28/2014  18:22:00      -72.882      -33.741        2.338       34.321       27.651       14.127     1177.960      764.572      199.581        0.430        0.107       80.314       16.131        0.040      342.143       17.346      864.094
10/28/2014  18:23:00      -92.286      -44.229        4.147       36.519       25.664       16.798     1333.673      658.646      282.164        0.638        0.114      102.337       15.469        0.023      342.134       17.330      864.107
10/28/2014  18:24:00     -103.248      -19.660        1.312       30.330       22.188       17.343      919.882      492.310      300.768        0.638        0.086      105.103       17.029        0.026      342.058       17.202      864.124
10/28/2014  18:25:00      -90.874      -23.140       -4.114       46.005       26.665       17.537     2116.431      711.041      307.564        0.597        0.157       93.774       18.537        0.039      342.037       17.167      864.130
10/28/2014  18:26:00      -68.251       -9.200       -0.915       42.935       26.029       18.610     1843.372      677.484      346.346        0.380        0.143       68.868       17.816        0.067      341.805       16.771      864.148
10/28/2014  18:27:00      -96.631       -8.726       -4.714       44.963       30.094       22.862     2021.628      905.629      522.651        0.644        0.172       97.024       24.447        0.063      341.740       16.663      864.155
10/28/2014  18:28:00     -102.336      -16.650       -0.924       33.620       28.027       20.294     1130.328      785.504      411.831        0.654        0.116      103.682       17.126        0.027      341.597       16.420      864.174
10/28/2014  18:29:00     -108.305      -21.712       -2.489       31.090       30.535       20.272      966.566      932.359      410.959        0.726        0.115      110.459       12.907        0.014      341.645       16.502      864.174
10/28/2014  18:30:00      -76.197      -22.610        4.419       31.777       27.246       19.014     1009.776      742.322      361.514        0.422        0.106       79.481       18.677        0.055      341.590       16.407      864.182
10/28/2014  18:31:00     -112.597      -19.589       -1.014       42.439       29.248       20.835     1801.084      855.469      434.082        0.808        0.155      114.289       24.282        0.045      341.698       16.592      864.183
10/28/2014  18:32:00      -74.301      -31.400        4.153       37.047       26.025       18.760     1372.498      677.294      351.950        0.446        0.120       80.663       17.454        0.047      341.711       16.613      864.180
10/28/2014  18:33:00      -76.534      -21.887        3.262       37.128       24.413       15.165     1378.480      596.013      229.984        0.428        0.110       79.602       15.255        0.037      341.742       16.666      864.167
10/28/2014  18:34:00      -63.138      -16.399        3.082       31.801       26.081       13.240     1011.319      680.222      175.287        0.307        0.093       65.233       14.327        0.048      341.729       16.643      864.160
10/28/2014  18:35:00      -41.045      -21.024        2.525       30.237       27.243       13.902      914.298      742.192      193.276        0.199        0.092       46.116       12.016        0.068      341.573       16.379      864.154
10/28/2014  18:36:00      -75.848      -18.044        3.297       32.617       21.317       15.517     1063.848      454.402      240.788        0.392        0.088       77.965       15.895        0.042      341.614       16.449      864.146
10/28/2014  18:37:00      -90.356      -40.293        2.273       31.021       32.750       15.696      962.327     1072.582      246.359        0.604        0.114       98.933       15.735        0.025      341.661       16.530      864.139
10/28/2014  18:38:00     -100.553      -22.501        0.516       25.471       18.141       14.834      648.762      329.078      220.035        0.591        0.060      103.040       13.468        0.017      341.710       16.612      864.146
10/28/2014  18:39:00      -87.215      -22.630        1.188       39.970       26.852       11.846     1597.636      721.016      140.324        0.529        0.123       90.103       15.818        0.031      341.625       16.467      864.151
10/28/2014  18:40:00      -88.241      -33.836       -0.362       22.950       22.552       16.003      526.684      508.602      256.104        0.511        0.065       94.506       12.499        0.017      341.615       16.450      864.169
10/28/2014  18:41:00      -97.892      -36.212       -3.331       20.204       27.536       16.906      408.210      758.208      285.812        0.618        0.073      104.375       13.922        0.018      341.584       16.398      864.184
10/28/2014  18:42:00      -90.226      -28.170      -10.865       21.832       33.348       13.936      476.654     1112.062      194.220        0.542        0.089       94.521       10.161        0.012      341.559       16.355      864.224
10/28/2014  18:43:00      -83.079      -32.822        6.016       43.855       29.147       21.346     1923.302      849.535      455.659        0.562        0.161       89.328       22.572        0.064      341.542       16.326      864.242
10/28/2014  18:44:00     -116.807      -15.570       -0.199       35.393       31.685       22.060     1252.681     1003.945      486.642        0.831        0.137      117.840       19.559        0.028      341.470       16.206      864.271
10/28/2014  18:45:00     -119.500       -5.305       -3.773       44.734       25.708       25.821     2001.121      660.892      666.730        0.882        0.166      119.617       27.636        0.053      341.431       16.138      864.292
10/28/2014  18:46:00      -89.010      -16.281        0.141       55.894       34.267       23.633     3124.155     1174.196      558.529        0.652        0.243       90.487       25.134        0.077      341.424       16.127      864.322
10/28/2014  18:47:00     -130.529        3.825       -6.596       40.688       35.219       24.924     1655.551     1240.370      621.227        1.031        0.176      130.586       22.311        0.029      341.796       16.757      864.342
10/28/2014  18:48:00      -89.996      -15.915        1.172       40.847       28.624       23.601     1668.490      819.322      557.008        0.570        0.152       91.393       22.717        0.062      341.464       16.195      864.375
10/28/2014  18:49:00      -84.126      -15.447        2.205       51.051       36.606       21.651     2606.199     1339.987      468.761        0.587        0.221       85.532       23.843        0.078      341.291       15.902      864.384
10/28/2014  18:50:00      -88.361      -27.306       -2.149       44.520       36.772       20.858     1982.004     1352.202      435.041        0.616        0.188       92.484       24.960        0.073      341.233       15.804      864.405
10/28/2014  18:51:00      -63.584      -32.046        8.388       41.173       27.836       21.220     1695.178      774.842      450.303        0.403        0.146       71.203       22.244        0.098      341.177       15.710      864.407
10/28/2014  18:52:00      -69.675      -42.794       -7.378       35.580       23.535       16.377     1265.944      553.918      268.201        0.441        0.104       81.768       15.243        0.035      341.210       15.766      864.416
10/28/2014  18:53:00     -103.743      -45.836      -12.768       18.433       15.616       12.268      339.782      243.862      150.504        0.688        0.037      113.417        7.385        0.004      341.212       15.768      864.430
10/28/2014  18:54:00      -51.564      -25.822        5.226       39.402       22.961       17.768     1552.481      527.216      315.702        0.287        0.120       57.668       20.581        0.127      341.224       15.788      864.442
10/28/2014  18:55:00      -29.331      -15.786        8.745       34.432       39.126       21.634     1185.535     1530.808      468.048        0.218        0.159       33.310       25.998        0.609      341.085       15.552      864.471
10/28/2014  18:56:00      -44.789      -61.673       -1.623       37.317       43.868       19.574     1392.540     1924.438      383.125        0.476        0.185       76.221       21.641        0.081      341.308       15.930      864.495
10/28/2014  18:57:00      -89.266      -98.995       -5.261       41.197       42.666       21.896     1697.215     1820.374      479.431        1.090        0.200      133.298       21.081        0.025      341.348       16.000      864.529
10/28/2014  18:58:00      -96.529      -74.310        6.930       46.524       33.672       26.842     2164.443     1133.805      720.497        0.945        0.201      121.819       29.031        0.057      341.312       15.936      864.553
10/28/2014  18:59:00     -104.416      -67.554        1.730       37.713       38.703       25.724     1422.272     1497.932      661.706        0.952        0.179      124.364       25.503        0.042      341.334       15.974      864.571
10/28/2014  19:00:00     -109.134      -66.612        1.380       35.613       26.221       20.129     1268.316      687.564      405.173        0.935        0.118      127.857       17.496        0.019      341.352       16.005      864.582
10/28/2014  19:01:00     -110.314      -24.678       -7.249       18.856       25.636       12.390      355.535      657.196      153.524        0.700        0.058      113.040       12.007        0.011      341.446       16.164      864.604
10/28/2014  19:02:00      -22.023      -30.882        1.025       31.685       26.175       16.465     1003.962      685.155      271.095        0.170        0.098       37.930       16.171        0.182      341.283       15.888      864.611
10/28/2014  19:03:00      -60.852      -25.074        2.361       28.717       17.747       16.829      824.687      314.939      283.224        0.288        0.071       65.815       17.007        0.067      341.340       15.985      864.634
10/28/2014  19:04:00      -38.763      -33.402        2.037       28.289       20.241       15.795      800.246      409.700      249.495        0.204        0.073       51.169       10.208        0.040      341.304       15.924      864.636
10/28/2014  19:05:00      -66.323      -50.234       -4.759       22.336       16.870       10.475      498.879      284.613      109.731        0.392        0.045       83.200        6.675        0.006      341.327       15.961      864.649
10/28/2014  19:06:00      -86.200      -32.506        0.537       13.789       18.176        7.983      190.141      330.369       63.732        0.454        0.029       92.125        6.231        0.005      341.281       15.885      864.648
10/28/2014  19:07:00      -69.858      -27.166       -5.579        9.731       14.184       11.203       94.689      201.186      125.508        0.304        0.021       74.954        5.860        0.006      341.258       15.847      864.662
10/28/2014  19:08:00      -65.831      -14.463       -8.176       21.776       10.257       11.707      474.205      105.197      137.065        0.266        0.036       67.401       10.814        0.026      341.262       15.852      864.658
10/28/2014  19:09:00      -63.247      -43.518       -8.605       16.614       11.866       10.465      276.016      140.790      109.520        0.325        0.026       76.772        7.062        0.008      341.244       15.822      864.665
10/28/2014  19:10:00      -83.708      -40.450       -1.717       19.985       14.604       14.172      399.418      213.262      200.837        0.473        0.041       92.969       11.795        0.016      341.179       15.715      864.657
10/28/2014  19:11:00      -63.792      -50.197       -2.987       31.212       22.980       15.429      974.212      528.081      238.052        0.417        0.087       81.174       12.630        0.024      341.127       15.625      864.668
10/28/2014  19:12:00      -71.409      -57.102        5.493       51.032       30.308       25.732     2604.275      918.573      662.131        0.629        0.209       91.432       27.968        0.094      341.075       15.537      864.673
10/28/2014  19:13:00      -87.640      -60.543        0.440       42.928       34.576       21.919     1842.852     1195.526      480.428        0.743        0.176      106.518       17.033        0.026      341.147       15.658      864.702
10/28/2014  19:14:00     -128.212     -119.862       -6.401       39.528       46.773       27.622     1562.457     2187.709      762.962        1.768        0.226      175.514       27.933        0.025      341.072       15.530      864.715
10/28/2014  19:15:00     -122.533     -101.916        3.816       56.127       35.309       27.354     3150.259     1246.722      748.221        1.528        0.257      159.378       22.881        0.021      340.984       15.381      864.727
10/28/2014  19:16:00     -140.054     -100.255        5.846       49.939       43.033       30.784     2493.901     1851.844      947.656        1.750        0.265      172.239       24.477        0.020      340.938       15.302      864.738
10/28/2014  19:17:00     -131.133     -106.135       -4.878       49.828       41.488       24.527     2482.863     1721.265      601.585        1.664        0.240      168.703       26.875        0.025      340.954       15.331      864.734
10/28/2014  19:18:00     -130.555      -73.069       -5.645       44.310       41.431       25.402     1963.360     1716.542      645.277        1.337        0.216      149.612       23.464        0.025      340.912       15.261      864.742
10/28/2014  19:19:00     -113.181      -84.143       -4.911       56.451       50.305       29.061     3186.700     2530.563      844.514        1.324        0.328      141.032       26.430        0.035      340.904       15.246      864.735
10/28/2014  19:20:00     -130.074      -80.063       -7.717       39.460       33.216       21.952     1557.117     1103.302      481.886        1.327        0.157      152.740       22.406        0.022      340.894       15.229      864.751
10/28/2014  19:21:00      -87.675      -50.740       -4.365       17.268       16.039       11.926      298.198      257.264      142.235        0.549        0.035      101.299        9.234        0.008      340.889       15.221      864.750
10/28/2014  19:22:00      -66.492      -62.809       -6.413       22.146       23.028       13.334      490.423      530.299      177.799        0.480        0.060       91.467       10.832        0.014      340.905       15.248      864.768
10/28/2014  19:23:00      -24.018      -19.490        8.858       24.848       21.706       18.155      617.412      471.154      329.615        0.123        0.071       30.931       16.954        0.300      340.812       15.091      864.770
10/28/2014  19:24:00      -83.787      -61.742       -6.755       18.470       26.572       14.835      341.124      706.084      220.063        0.607        0.063      104.079       14.056        0.018      340.803       15.077      864.782
10/28/2014  19:25:00      -71.257      -33.119        1.487       38.549       22.542       18.831     1485.992      508.127      354.594        0.426        0.117       78.578       11.345        0.021      340.781       15.040      864.775
10/28/2014  19:26:00      -27.685       -2.855        1.610       21.207       29.981       15.327      449.751      898.852      234.913        0.118        0.079       27.832       11.149        0.160      340.690       14.886      864.778
10/28/2014  19:27:00      -16.509        3.673        2.865       25.121       26.521       14.699      631.073      703.371      216.065        0.092        0.078       16.913       11.971        0.501      340.619       14.766      864.770
10/28/2014  19:28:00      -32.966       17.019       -8.282       19.000       18.093       10.839      361.005      327.352      117.480        0.113        0.040       37.100       11.243        0.092      340.553       14.652      864.776
10/28/2014  19:29:00      -47.953       24.667       -3.153       16.632       17.713       11.511      276.619      313.751      132.495        0.182        0.036       53.926        7.712        0.020      340.620       14.769      864.781
10/28/2014  19:30:00      -45.277       38.606       -8.881       11.076       13.556        9.304      122.676      183.778       86.558        0.201        0.020       59.501        6.575        0.012      340.721       14.939      864.791
10/28/2014  19:31:00      -62.165       38.295       -9.285       19.129       15.038       12.408      365.905      226.150      153.969        0.308        0.037       73.013        9.672        0.018      340.726       14.947      864.806
10/28/2014  19:32:00      -61.209       24.764       -9.638       16.813       11.204        8.465      282.689      125.528       71.655        0.247        0.024       66.029        5.635        0.007      340.710       14.919      864.812
10/28/2014  19:33:00      -76.365        4.434       -6.074       18.806       21.085        8.919      353.667      444.559       79.548        0.338        0.044       76.493        7.784        0.010      340.704       14.908      864.819
10/28/2014  19:34:00      -75.413      -30.671       -2.957       25.743       15.660       12.075      662.688      245.249      145.817        0.384        0.053       81.412       11.519        0.020      340.493       14.552      864.824
10/28/2014  19:35:00      -77.651      -26.589        0.400       27.321       19.643       14.254      746.413      385.865      203.181        0.404        0.067       82.077       14.401        0.031      340.417       14.423      864.833
10/28/2014  19:36:00      -80.608       -7.227        0.244       27.026       17.142       12.400      730.419      293.847      153.750        0.386        0.059       80.931       12.409        0.024      340.414       14.416      864.831
10/28/2014  19:37:00      -75.508      -22.565       -1.897       15.368       22.357       10.341      236.188      499.838      106.927        0.353        0.042       78.808        8.910        0.013      340.439       14.460      864.839
10/28/2014  19:38:00      -64.755      -37.977       -2.340       23.238       25.071       14.121      540.009      628.533      199.412        0.350        0.068       75.069       13.815        0.034      340.449       14.477      864.845
10/28/2014  19:39:00      -23.309      -31.210        8.848       27.637       18.813       16.194      763.822      353.910      262.248        0.149        0.069       38.953       17.990        0.213      340.271       14.176      864.840
10/28/2014  19:40:00      -53.635      -61.928        8.293       33.298       21.518       19.107     1108.788      463.039      365.082        0.436        0.097       81.925       20.077        0.060      340.287       14.202      864.851
10/28/2014  19:41:00      -89.365      -42.403       -5.163       27.777       21.970       16.401      771.580      482.694      269.001        0.567        0.076       98.914       16.970        0.029      340.166       13.999      864.852
10/28/2014  19:42:00      -86.813      -20.444       -3.961       17.291       23.616       13.587      298.974      557.711      184.614        0.451        0.052       89.187       11.779        0.017      340.196       14.050      864.864
10/28/2014  19:43:00      -61.308      -12.393       -3.382       25.731       20.547       17.422      662.059      422.166      303.518        0.266        0.069       62.548       15.972        0.065      340.162       13.992      864.881
10/28/2014  19:44:00      -72.203      -14.194       -0.415       34.151       21.935       18.823     1166.285      481.127      354.315        0.371        0.100       73.585       18.163        0.061      340.076       13.847      864.897
10/28/2014  19:45:00     -102.241        1.358      -12.643       30.549       15.415       14.243      933.252      237.624      202.876        0.599        0.069      102.250       14.579        0.020      340.084       13.860      864.929
10/28/2014  19:46:00     -131.389        0.098      -18.303       19.236       13.825       13.814      370.019      191.121      190.834        0.917        0.038      131.389       10.736        0.007      340.124       13.928      864.942
10/28/2014  19:47:00     -126.027      -12.795      -20.608       26.595       21.226       21.586      707.289      450.562      465.952        0.905        0.081      126.675       16.734        0.017      340.005       13.727      864.973
10/28/2014  19:48:00     -101.604      -37.740      -18.231       21.113       20.391       18.318      445.766      415.784      335.566        0.664        0.060      108.386       11.358        0.011      340.021       13.754      864.997
10/28/2014  19:49:00     -103.261      -49.319      -16.468       22.404       18.969       14.531      501.931      359.821      211.144        0.722        0.054      114.434        8.367        0.005      340.049       13.801      865.023
10/28/2014  19:50:00     -125.100      -44.230      -26.858       28.493       15.071       13.095      811.838      227.131      171.477        0.977        0.061      132.689       10.937        0.007      340.000       13.721      865.048
10/28/2014  19:51:00     -137.334      -20.467      -19.237       29.341       24.218       18.804      860.905      586.496      353.588        1.072        0.090      138.850       11.341        0.007      339.991       13.704      865.064
10/28/2014  19:52:00     -143.469       -7.402      -20.868       29.610       17.981       14.433      876.773      323.334      208.321        1.124        0.070      143.660       11.633        0.007      339.979       13.684      865.078
10/28/2014  19:53:00     -106.925       21.011      -20.448       24.486       18.398       15.189      599.548      338.483      230.718        0.673        0.058      108.969       11.604        0.011      340.222       14.094      865.066
10/28/2014  19:54:00      -65.637       22.591      -12.984       11.533       12.394        9.569      133.003      153.616       91.567        0.268        0.019       69.416        6.304        0.008      340.327       14.270      865.060
10/28/2014  19:55:00      -73.474        1.181       -6.932       15.100       21.742       12.270      228.004      472.693      150.555        0.315        0.043       73.483        9.561        0.017      340.291       14.210      865.063
10/28/2014  19:56:00      -78.679       -8.298       -9.861       27.575       22.408       17.959      760.358      502.115      322.518        0.397        0.079       79.116       17.308        0.048      340.054       13.808      865.067
10/28/2014  19:57:00      -71.254      -11.815      -13.651       15.200       17.843       12.956      231.034      318.373      167.854        0.306        0.036       72.227       10.017        0.019      340.084       13.861      865.093
10/28/2014  19:58:00      -56.349       -7.022       -7.309       12.126       11.491        8.297      147.037      132.045       68.832        0.181        0.017       56.785        7.666        0.018      340.241       14.125      865.115
10/28/2014  19:59:00      -50.983       -8.167      -10.782       12.026       12.109        8.914      144.626      146.639       79.457        0.158        0.019       51.633        2.724        0.003      340.387       14.372      865.141
10/28/2014  20:00:00      -56.682      -10.916      -13.639        6.874       10.428        6.711       47.257      108.734       45.038        0.186        0.010       57.724        6.106        0.011      340.328       14.273      865.151
10/28/2014  20:01:00      -74.028      -28.111      -14.408       18.886       18.686        9.697      356.684      349.169       94.023        0.364        0.040       79.186        6.503        0.007      340.091       13.872      865.169
10/28/2014  20:02:00      -92.622      -24.372      -19.669       15.037       12.606       11.015      226.114      158.902      121.335        0.503        0.025       95.775        5.459        0.003      339.878       13.513      865.171
10/28/2014  20:03:00      -79.018      -36.876      -14.933       18.779       17.092       12.337      352.658      292.141      152.196        0.431        0.040       87.199        7.149        0.007      339.868       13.497      865.174
10/28/2014  20:04:00      -73.898      -27.930      -13.085       20.902       18.593       14.565      436.876      345.695      212.138        0.370        0.050       79.000       13.442        0.029      339.918       13.581      865.182
10/28/2014  20:05:00      -94.654      -21.006      -11.521       19.448       17.896       13.701      378.222      320.254      187.730        0.521        0.044       96.957       12.068        0.015      339.945       13.627      865.196
10/28/2014  20:06:00      -99.723      -27.720      -18.372       16.230        9.253        6.069      263.428       85.615       36.836        0.572        0.019      103.504        4.327        0.002      340.057       13.815      865.212
10/28/2014  20:07:00      -91.675      -35.057      -11.214       10.241        9.912        5.630      104.888       98.250       31.694        0.500        0.012       98.149        2.358        0.001      340.008       13.732      865.220
10/28/2014  20:08:00      -92.564      -31.873      -14.715       10.559       17.227       10.831      111.488      296.763      117.309        0.516        0.026       97.898        5.219        0.003      339.895       13.544      865.235
10/28/2014  20:09:00      -91.353      -14.757      -15.782       12.827       16.667        9.260      164.526      277.803       85.742        0.467        0.026       92.537        3.341        0.001      339.974       13.677      865.241
10/28/2014  20:10:00      -92.627      -19.097      -16.842       13.122       13.462       11.508      172.182      181.237      132.438        0.486        0.024       94.575        8.890        0.009      339.986       13.696      865.235
10/28/2014  20:11:00      -79.973      -22.728      -15.098       23.248       11.276       12.922      540.455      127.145      166.984        0.399        0.042       83.140       11.467        0.019      339.926       13.594      865.249
10/28/2014  20:12:00      -56.888      -20.695       -1.587       18.352       13.067       12.367      336.785      170.758      152.945        0.216        0.033       60.535       11.475        0.036      339.901       13.553      865.260
10/28/2014  20:13:00      -46.550      -40.912       -3.418       24.647       15.308        9.792      607.483      234.347       95.874        0.239        0.047       61.974        8.431        0.019      339.840       13.450      865.268
10/28/2014  20:14:00      -41.902      -32.508        2.190       23.743       17.638       11.243      563.751      311.113      126.413        0.191        0.050       53.034        8.798        0.028      339.720       13.246      865.286
10/28/2014  20:15:00      -53.798      -23.556        1.601       34.541       29.049       14.498     1193.107      843.872      210.194        0.285        0.112       58.729       16.013        0.074      339.722       13.251      865.289
10/28/2014  20:16:00      -80.358      -51.740      -13.586       18.217       23.181       15.332      331.874      537.364      235.065        0.521        0.055       95.574        9.580        0.010      339.838       13.446      865.287
10/28/2014  20:17:00      -82.837      -17.966      -13.645       12.986       13.781        8.017      168.641      189.916       64.265        0.390        0.021       84.763        4.794        0.003      339.810       13.398      865.297
10/28/2014  20:18:00      -75.986        1.422      -12.576        7.066        8.618        6.690       49.922       74.266       44.756        0.305        0.008       75.999        5.029        0.004      339.863       13.489      865.297
10/28/2014  20:19:00      -78.837       10.711       -9.718        9.347       12.273        7.860       87.373      150.633       61.772        0.336        0.015       79.561        5.079        0.004      339.866       13.493      865.300
10/28/2014  20:20:00      -75.086       -6.882      -15.471       11.895        8.828        6.189      141.480       77.929       38.304        0.309        0.013       75.400        5.690        0.006      339.823       13.422      865.301
10/28/2014  20:21:00      -17.891       -5.867       -4.066       15.410       17.388       15.575      237.472      302.325      242.578        0.058        0.039       18.828       13.628        0.524      339.888       13.530      865.292
10/28/2014  20:22:00      -13.949      -12.991       -6.139       13.756       13.569        6.712      189.231      184.108       45.055        0.041        0.021       19.062        6.652        0.122      340.136       13.949      865.284
10/28/2014  20:23:00        2.685      -23.872      -10.110       14.639       19.574       14.271      214.289      383.160      203.650        0.074        0.040       24.023       13.236        0.304      340.122       13.924      865.282
10/28/2014  20:24:00       -7.229      -30.977       -5.667       15.773       13.825       12.452      248.791      191.126      155.063        0.082        0.030       31.809        5.144        0.026      340.081       13.856      865.272
10/28/2014  20:25:00       11.585      -14.622       15.537       15.314       28.693       16.522      234.503      823.311      272.989        0.096        0.067       18.655       19.284        1.069      339.737       13.275      865.264
10/28/2014  20:26:00       -0.180       -7.538       19.256       18.262       29.356       16.882      333.488      861.776      285.007        0.095        0.074        7.540       17.881        5.624      339.834       13.441      865.257
10/28/2014  20:27:00      -10.541       -5.378       -1.561       28.247       21.738       18.337      797.893      472.529      336.254        0.087        0.080       11.833       14.874        1.580      339.801       13.384      865.255
10/28/2014  20:28:00       50.447      -32.909       -2.843       37.902       27.862       23.534     1436.529      776.290      553.846        0.320        0.138       60.232       17.459        0.084      339.534       12.934      865.255
10/28/2014  20:29:00        1.811      -31.548       14.462       22.206       25.570       22.147      493.123      653.842      490.505        0.142        0.082       31.600       17.266        0.299      339.901       13.553      865.265
10/28/2014  20:30:00       22.678      -36.401       16.722       25.429       43.452       21.045      646.622     1888.040      442.877        0.255        0.149       42.887       22.289        0.270      340.401       14.398      865.278
10/28/2014  20:31:00        8.374      -14.023       25.547       21.705       30.046       18.358      471.091      902.773      337.015        0.131        0.086       16.333       17.705        1.175      340.469       14.511      865.278
10/28/2014  20:32:00        1.746        1.984       28.889       17.460       24.413       13.205      304.844      595.980      174.367        0.096        0.054        2.643       10.190       14.861      340.199       14.053      865.287
10/28/2014  20:33:00      -14.024       -3.249        9.814       14.407       14.049       11.335      207.571      197.367      128.475        0.042        0.027       14.395        8.373        0.338      340.038       13.783      865.298
10/28/2014  20:34:00      -37.221      -24.002       -6.999        9.734       14.742        6.129       94.755      217.324       37.563        0.118        0.017       44.288        4.918        0.012      339.803       13.386      865.296
10/28/2014  20:35:00      -63.940      -29.454       -0.420       19.225       17.031        9.325      369.589      290.055       86.959        0.285        0.037       70.398        4.033        0.003      340.012       13.738      865.287
10/28/2014  20:36:00      -62.876      -37.740      -10.320       13.761       18.649       11.490      189.355      347.780      132.026        0.308        0.033       73.333        5.967        0.007      340.041       13.788      865.292
10/28/2014  20:37:00      -81.031      -48.636       -8.594       16.990       19.429       12.050      288.645      377.474      145.208        0.491        0.041       94.507        9.298        0.010      340.187       14.034      865.304
10/28/2014  20:38:00      -67.826      -16.899       -2.164       14.910       22.697        7.257      222.305      515.159       52.669        0.284        0.040       69.900        6.106        0.008      340.152       13.974      865.310
10/28/2014  20:39:00      -47.749       -4.780       -4.704        6.788        7.171        5.798       46.081       51.422       33.621        0.123        0.007       47.987        2.104        0.002      340.054       13.809      865.317
10/28/2014  20:40:00      -12.538       -0.182       -0.625       24.061        5.254        5.630      578.911       27.601       31.697        0.040        0.032       12.540        6.829        0.297      339.855       13.474      865.326
10/28/2014  20:41:00      -59.629      -14.522      -11.188       19.883       17.013        8.278      395.336      289.448       68.521        0.232        0.038       61.372        6.148        0.010      339.509       12.892      865.325
10/28/2014  20:42:00      -86.642      -13.408       -9.583       41.761       34.131       22.197     1743.940     1164.951      492.728        0.559        0.170       87.674       14.740        0.028      339.029       12.082      865.308
10/28/2014  20:43:00      -93.805      -15.441      -18.339       26.209       26.647       21.617      686.917      710.067      467.310        0.562        0.093       95.068       14.877        0.024      339.096       12.196      865.317
10/28/2014  20:44:00      -51.380      -10.589       -1.688       21.483       20.250       14.967      461.524      410.081      224.011        0.193        0.055       52.460       10.415        0.039      339.098       12.198      865.319
10/28/2014  20:45:00      -45.828      -17.794       -5.640       25.229       14.549       13.685      636.516      211.676      187.273        0.174        0.052       49.161       12.715        0.067      339.158       12.298      865.322
10/28/2014  20:46:00      -87.000       -6.421       -6.890       39.528       24.298       16.381     1562.425      590.403      268.349        0.504        0.121       87.236       16.849        0.037      339.294       12.529      865.321
10/28/2014  20:47:00      -63.148       -7.066       -7.157       31.857       22.722       17.203     1014.855      516.283      295.948        0.296        0.091       63.542       15.597        0.060      339.317       12.568      865.323
10/28/2014  20:48:00      -53.808       -2.246       -4.240       33.648       27.596       16.203     1132.185      761.551      262.530        0.254        0.108       53.855       14.890        0.076      339.218       12.400      865.331
10/28/2014  20:49:00      -32.685        8.906       -1.577       24.307       24.837       16.496      590.853      616.865      272.106        0.131        0.074       33.877       13.516        0.159      339.243       12.445      865.326
10/28/2014  20:50:00      -75.079       -6.595       -9.353       21.552       18.319       14.611      464.472      335.568      213.490        0.339        0.051       75.368       12.017        0.025      339.311       12.557      865.324
10/28/2014  20:51:00      -53.856      -20.024      -14.229       16.094       17.940       10.806      259.026      321.847      116.774        0.210        0.035       57.459        7.453        0.017      339.407       12.719      865.326
10/28/2014  20:52:00      -43.292      -44.420       -5.239       27.977       23.781       19.238      782.721      565.549      370.112        0.280        0.086       62.027       12.819        0.043      339.275       12.496      865.351
10/28/2014  20:53:00     -109.013      -29.606      -15.894       29.847       21.983       12.635      890.820      483.257      159.640        0.727        0.077      112.961       11.260        0.010      339.205       12.380      865.369
10/28/2014  20:54:00     -111.188      -21.425      -12.014       27.119       16.473       14.353      735.447      271.364      206.017        0.709        0.061      113.233       16.811        0.022      339.242       12.441      865.383
10/28/2014  20:55:00      -96.291      -26.421      -13.622        9.577       10.793        8.995       91.723      116.485       80.905        0.522        0.014       99.850        4.392        0.002      339.282       12.507      865.402
10/28/2014  20:56:00      -86.416      -19.879      -13.100       16.086       10.315       11.103      258.757      106.403      123.280        0.426        0.024       88.673       10.662        0.014      339.321       12.573      865.427
10/28/2014  20:57:00      -64.212      -10.613      -14.105       20.908       22.121       13.354      437.140      489.336      178.327        0.277        0.055       65.083       10.467        0.026      339.287       12.517      865.432
10/28/2014  20:58:00      -75.412       28.854      -18.845       16.025       21.158       12.747      256.792      447.672      162.487        0.387        0.043       80.744       11.208        0.019      339.502       12.880      865.446
10/28/2014  20:59:00      -55.414       71.676      -15.039       17.239       20.645       10.837      297.169      426.207      117.431        0.464        0.042       90.599       10.324        0.013      339.782       13.352      865.465
10/28/2014  21:00:00      -21.988      106.478       -9.931       18.434       28.507       11.261      339.808      812.665      126.807        0.660        0.064      108.724       10.973        0.010      340.114       13.911      865.469
10/28/2014  21:01:00      -12.498      147.777      -19.700       10.012       14.683        8.126      100.236      215.584       66.031        1.138        0.019      148.305        4.948        0.001      340.211       14.075      865.473
10/28/2014  21:02:00      -68.218       64.734      -18.077       24.997       62.889       14.740      624.864     3955.000      217.263        0.698        0.240       94.044       16.600        0.031      339.940       13.618      865.489
10/28/2014  21:03:00     -125.040      -35.775      -21.212       34.599       21.592       16.062     1197.073      466.196      257.982        0.964        0.096      130.058       16.102        0.015      338.844       11.771      865.493
10/28/2014  21:04:00      -87.329      -17.195       -9.685       47.917       46.045       29.206     2296.006     2120.178      852.984        0.664        0.263       89.005       19.231        0.047      338.869       11.814      865.505
10/28/2014  21:05:00       -2.575        7.198        4.598       31.228       24.439       24.823      975.171      597.246      616.167        0.113        0.109        7.645       13.488        3.113      339.002       12.036      865.519
10/28/2014  21:06:00      -44.128       -3.418       -4.909       24.175       25.614       19.087      584.445      656.056      364.296        0.179        0.080       44.260       15.656        0.125      339.136       12.261      865.522
10/28/2014  21:07:00      -32.764      -29.337       -7.715       16.399       14.341       12.671      268.941      205.676      160.549        0.131        0.032       43.979        9.041        0.042      339.153       12.290      865.536
10/28/2014  21:08:00      -40.426      -32.001       -1.268       18.062       15.386       11.008      326.232      236.718      121.170        0.167        0.034       51.559        8.811        0.029      339.091       12.186      865.539
10/28/2014  21:09:00      -93.022      -51.761      -13.817       21.047       10.589        9.824      442.967      112.125       96.501        0.609        0.033      106.453        6.689        0.004      339.131       12.254      865.551
10/28/2014  21:10:00     -115.885      -47.677      -15.845       16.246       18.460       14.400      263.944      340.764      207.350        0.838        0.041      125.309       11.423        0.008      339.094       12.192      865.558
10/28/2014  21:11:00     -125.969      -47.132       -4.471       23.923       20.095       14.543      572.312      403.794      211.487        0.965        0.059      134.497       14.562        0.012      339.058       12.132      865.551
10/28/2014  21:12:00      -93.997      -64.718        0.019       42.641       28.090       22.576     1818.217      789.067      509.695        0.807        0.156      114.122       22.070        0.037      339.033       12.091      865.555
10/28/2014  21:13:00      -92.858      -54.078       -3.021       21.254       29.809       16.164      451.712      888.565      261.262        0.658        0.080      107.457       11.831        0.012      339.213       12.391      865.551
10/28/2014  21:14:00     -116.698      -38.072       -3.986       35.569       21.470       14.397     1265.131      460.947      207.285        0.851        0.097      122.752       17.150        0.020      339.145       12.277      865.552
10/28/2014  21:15:00     -142.630      -19.667      -10.457       34.261       30.256       19.780     1173.829      915.446      391.252        1.166        0.124      143.980       13.911        0.009      339.223       12.408      865.565
10/28/2014  21:16:00     -119.605      -19.957       -0.882       41.232       25.324       22.326     1700.059      641.302      498.437        0.877        0.142      121.258       22.336        0.034      339.374       12.664      865.562
10/28/2014  21:17:00     -145.092        9.258      -14.981       37.566       40.739       24.914     1411.175     1659.679      620.687        1.253        0.185      145.387       21.617        0.022      339.643       13.117      865.573
10/28/2014  21:18:00      -85.664       13.627       -8.568       47.417       26.584       16.389     2248.383      706.693      268.595        0.541        0.161       86.741       18.291        0.044      339.759       13.312      865.569
10/28/2014  21:19:00      -28.603       33.424       -2.696       27.115       36.152       14.325      735.216     1306.988      205.200        0.209        0.112       43.992       14.561        0.110      339.801       13.384      865.567
10/28/2014  21:20:00      -54.940      -31.776       -0.984       51.768       33.748       13.023     2679.938     1138.937      169.604        0.401        0.199       63.468       16.212        0.065      339.498       12.872      865.576
10/28/2014  21:21:00     -119.750      -89.732       -6.465       65.744       38.839       28.888     4322.231     1508.498      834.509        1.455        0.333      149.639       26.515        0.031      339.090       12.185      865.606
10/28/2014  21:22:00     -106.693      -63.527       -7.107       37.458       27.382       18.482     1403.112      749.790      341.592        0.898        0.125      124.174       18.493        0.022      339.262       12.476      865.614
10/28/2014  21:23:00      -90.478       -6.500       -7.607       40.293       24.279       23.305     1623.489      589.466      543.134        0.552        0.138       90.711       20.849        0.053      339.223       12.409      865.626
10/28/2014  21:24:00      -52.399       -3.952        3.105       30.409       23.987       14.622      924.727      575.396      213.805        0.224        0.086       52.548       14.537        0.077      339.339       12.604      865.638
10/28/2014  21:25:00       -6.587       22.013        0.543       21.858       14.796        9.321      477.779      218.910       86.882        0.066        0.039       22.978        6.290        0.075      339.710       13.229      865.637
10/28/2014  21:26:00       32.531       31.976        6.140       20.069       26.509       17.155      402.777      702.710      294.290        0.176        0.070       45.615       16.795        0.136      340.030       13.770      865.641
10/28/2014  21:27:00       51.730       -6.749        5.982       25.669       22.595       19.112      658.892      510.517      365.250        0.215        0.077       52.168        9.858        0.036      339.657       13.143      865.646
10/28/2014  21:28:00      -17.393      -13.762       -3.897       41.639       15.824       15.144     1733.788      250.397      229.330        0.136        0.111       22.179       19.617        0.782      339.930       13.599      865.673
10/28/2014  21:29:00     -160.874      -68.271      -12.830       27.172       34.874       20.013      738.293     1216.211      400.538        1.653        0.118      174.761       11.861        0.005      339.188       12.349      865.688
10/28/2014  21:30:00     -117.295      -82.601        0.420       26.099       25.520       15.776      681.177      651.271      248.878        1.108        0.079      143.461       11.625        0.007      339.467       12.821      865.705
10/28/2014  21:31:00     -106.004      -46.378       -4.042       16.594       23.318       12.556      275.350      543.740      157.643        0.719        0.049      115.706        6.942        0.004      339.656       13.139      865.715
10/28/2014  21:32:00      -63.887      -10.259       -9.648       13.573       10.394        5.516      184.216      108.026       30.423        0.230        0.016       64.705        4.734        0.005      340.012       13.740      865.725
10/28/2014  21:33:00      -39.134       18.511       -4.938        7.866       10.304        5.136       61.879      106.165       26.377        0.105        0.010       43.291        3.114        0.005      340.368       14.339      865.738
10/28/2014  21:34:00      -86.273      -22.475       -9.921       28.830       20.557        8.094      831.191      422.590       65.515        0.468        0.066       89.152        6.024        0.005      339.732       13.267      865.753
10/28/2014  21:35:00     -105.176      -52.862      -14.790       31.078       20.107       18.339      965.844      404.287      336.322        0.789        0.085      117.713        9.515        0.007      339.160       12.302      865.784
10/28/2014  21:36:00     -129.357      -48.092      -12.678       19.733       21.188       17.844      389.404      448.952      318.397        1.018        0.058      138.008       10.919        0.006      339.132       12.256      865.828
10/28/2014  21:37:00     -139.901      -14.585       -5.934       41.982       43.692       22.422     1762.524     1908.950      502.753        1.200        0.209      140.659       20.519        0.021      339.106       12.213      865.848
10/28/2014  21:38:00     -129.811       -2.098       -8.563       50.256       30.300       24.902     2525.623      918.106      620.116        1.050        0.203      129.828       26.406        0.041      339.104       12.207      865.869
10/28/2014  21:39:00      -50.965       -8.921        4.312       34.715       35.456       21.345     1205.132     1257.136      455.616        0.281        0.146       51.739       19.131        0.137      339.117       12.232      865.896
10/28/2014  21:40:00      -75.671      -14.362       -6.945       31.630       20.950       13.162     1000.485      438.913      173.236        0.380        0.081       77.022       13.866        0.032      339.122       12.237      865.904
10/28/2014  21:41:00      -63.964      -30.641      -15.681       26.773       26.416       19.810      716.812      697.792      392.429        0.354        0.090       70.925       16.392        0.053      339.232       12.423      865.917
10/28/2014  21:42:00      -98.540      -36.436       -9.992       27.708       32.767       21.217      767.712     1073.653      450.179        0.671        0.115      105.060       18.368        0.031      339.074       12.157      865.939
10/28/2014  21:43:00     -116.898      -26.643      -16.407       29.653       26.268       20.733      879.307      690.003      429.849        0.832        0.100      119.896       19.045        0.025      339.037       12.096      865.953
10/28/2014  21:44:00      -54.429      -21.666       -7.395       29.716       19.991       14.676      883.038      399.625      215.377        0.249        0.075       58.583       10.521        0.032      339.017       12.062      865.972
10/28/2014  21:45:00      -56.877      -10.560       -9.612       24.477       21.851       14.493      599.123      477.454      210.037        0.236        0.064       57.849       11.601        0.040      339.017       12.062      866.002
10/28/2014  21:46:00      -52.710       -1.876       -9.421       23.326       19.094       16.358      544.113      364.568      267.594        0.202        0.059       52.743       10.375        0.039      339.155       12.294      866.011
10/28/2014  21:47:00      -51.926       12.908      -11.708       14.656       11.203        9.792      214.793      125.498       95.884        0.172        0.022       53.506        4.422        0.007      339.430       12.757      866.028
10/28/2014  21:48:00      -49.354      -30.450       -8.220       15.489       16.922       12.615      239.897      286.367      159.127        0.206        0.034       57.992       10.909        0.035      339.184       12.341      866.051
10/28/2014  21:49:00      -54.376      -28.922       -8.954       21.885       14.927       14.798      478.938      222.819      218.972        0.240        0.046       61.589       12.249        0.040      339.107       12.214      866.073
10/28/2014  21:50:00     -118.293      -26.507      -14.535       26.614       18.542       13.692      708.300      343.804      187.478        0.807        0.062      121.226       10.001        0.007      338.989       12.015      866.104
10/28/2014  21:51:00     -147.521        0.660      -15.644       46.627       26.121       25.159     2174.114      682.326      632.996        1.275        0.174      147.522       26.345        0.032      338.874       11.822      866.132
10/28/2014  21:52:00     -111.020       -6.793      -13.910       28.917       21.788       16.888      836.168      474.737      285.214        0.708        0.080      111.227       13.020        0.014      338.803       11.702      866.163
10/28/2014  21:53:00      -58.270      -10.181      -13.761       12.948       12.011        7.319      167.638      144.262       53.574        0.203        0.018       59.153        5.195        0.008      338.974       11.990      866.168
10/28/2014  21:54:00      -43.348      -21.325       -5.576       11.326       13.279       12.026      128.268      176.325      144.631        0.141        0.022       48.309        5.805        0.014      338.916       11.893      866.177
10/28/2014  21:55:00      -76.663      -21.721       -7.067       27.526       24.513       14.943      757.691      600.905      223.282        0.399        0.079       79.681       13.528        0.029      339.016       12.060      866.192
10/28/2014  21:56:00      -81.408      -35.969      -11.994       35.147       18.577       17.028     1235.295      345.117      289.947        0.497        0.094       89.000       16.065        0.033      338.870       11.815      866.203
10/28/2014  21:57:00      -51.896      -37.832       -8.137       36.394       36.385       23.227     1324.521     1323.872      539.488        0.369        0.159       64.222       23.216        0.131      338.790       11.680      866.210
10/28/2014  21:58:00      -33.610      -18.508      -16.364       24.217       20.100       17.313      586.482      404.011      299.723        0.151        0.065       38.369       12.794        0.111      338.791       11.682      866.218
10/28/2014  21:59:00      -54.929      -23.906       -5.452       17.763       19.393       11.749      315.518      376.071      138.032        0.222        0.041       59.906        7.850        0.017      338.804       11.704      866.220
10/28/2014  22:00:00      -57.343      -15.604      -10.538       15.895       12.530       10.419      252.637      156.995      108.546        0.208        0.026       59.428        8.145        0.019      338.943       11.939      866.219
10/28/2014  22:01:00      -65.015      -44.578      -10.572       18.780       19.143        9.778      352.674      366.464       95.603        0.357        0.041       78.830        7.475        0.009      338.916       11.893      866.229
10/28/2014  22:02:00      -80.639       -5.128      -12.607       18.996       18.596       11.381      360.864      345.799      129.532        0.376        0.042       80.802       11.377        0.020      338.928       11.913      866.234
10/28/2014  22:03:00      -32.432      -17.021      -13.659       27.040       16.902        9.442      731.153      285.691       89.159        0.132        0.055       36.627       11.555        0.100      339.178       12.334      866.220
10/28/2014  22:04:00       27.359      -10.390       -1.875       14.738       14.578        7.620      217.215      212.518       58.070        0.067        0.024       29.265        8.280        0.080      339.745       13.290      866.191
10/28/2014  22:05:00      -10.663        7.592        5.828        9.780       18.480       13.592       95.652      341.509      184.747        0.041        0.031       13.089       12.339        0.889      339.560       12.977      866.181
10/28/2014  22:06:00      -31.346      -29.748       -1.822       14.491        9.295        8.639      209.998       86.394       74.633        0.112        0.019       43.215        2.961        0.005      339.326       12.582      866.166
10/28/2014  22:07:00      -50.605      -28.501       -3.065        6.806        8.874        6.435       46.324       78.745       41.412        0.177        0.008       58.079        2.798        0.002      339.047       12.112      866.156
10/28/2014  22:08:00      -25.023      -24.442       -2.007       14.593        7.330        8.535      212.949       53.734       72.849        0.078        0.017       34.980        5.481        0.025      339.038       12.095      866.168
10/28/2014  22:09:00       -3.068      -26.058       -3.264        9.680       12.155        9.132       93.706      147.744       83.392        0.051        0.016       26.238        7.196        0.075      339.323       12.578      866.156
10/28/2014  22:10:00       56.196      -51.399        0.986       30.401       25.810       13.471      924.251      666.145      181.455        0.379        0.089       76.157       16.182        0.045      339.576       13.003      866.146
10/28/2014  22:11:00       36.049      -27.474       16.419       34.990       35.371       17.814     1224.268     1251.143      317.334        0.256        0.140       45.325       23.322        0.265      339.339       12.604      866.147
10/28/2014  22:12:00        8.524       23.778       40.072       21.257       25.633       18.455      451.848      657.046      340.586        0.185        0.072       25.260       19.254        0.581      339.049       12.116      866.150
10/28/2014  22:13:00        8.356       20.629       45.707       27.743       41.494       27.310      769.649     1721.749      745.838        0.291        0.162       22.257       29.627        1.772      339.035       12.094      866.150
10/28/2014  22:14:00       41.950      -41.744       16.517       30.704       38.996       28.561      942.760     1520.665      815.737        0.353        0.164       59.180       29.999        0.257      339.209       12.384      866.160
10/28/2014  22:15:00      -12.140      -34.788        3.237       45.817       27.420       18.165     2099.229      751.874      329.974        0.227        0.159       36.846       17.217        0.218      339.199       12.369      866.190
10/28/2014  22:16:00      -80.471      -19.187      -10.933        8.045        8.948        8.240       64.723       80.066       67.892        0.359        0.011       82.727        4.369        0.003      338.793       11.686      866.232
10/28/2014  22:17:00      -73.805      -18.917      -12.018        8.110        8.967        7.058       65.780       80.399       49.812        0.307        0.010       76.191        1.784        0.001      338.779       11.662      866.252
10/28/2014  22:18:00      -60.162      -21.398      -10.869       11.617        8.840        7.035      134.951       78.152       49.486        0.223        0.013       63.854        5.227        0.007      338.990       12.016      866.273
10/28/2014  22:19:00      -68.797      -24.270      -14.004        9.790        7.926        5.467       95.840       62.815       29.889        0.285        0.009       72.953        4.502        0.004      339.419       12.741      866.292
10/28/2014  22:20:00      -47.710      -35.258       -4.271       16.379       12.687       10.382      268.283      160.957      107.782        0.204        0.027       59.324        9.153        0.024      339.138       12.266      866.317
10/28/2014  22:21:00      -75.631      -45.899       -8.271       34.807       15.063       10.948     1211.550      226.888      119.862        0.473        0.078       88.469        4.635        0.003      339.098       12.199      866.325
10/28/2014  22:22:00     -128.591      -34.095      -11.830       18.008       24.190       10.627      324.298      585.140      112.932        0.943        0.051      133.034        6.762        0.003      338.872       11.818      866.333
10/28/2014  22:23:00     -153.008      -22.810      -16.185       30.154       23.502       16.206      909.238      552.331      262.629        1.296        0.086      154.698       13.331        0.007      338.709       11.545      866.350
10/28/2014  22:24:00     -155.278      -10.091      -12.953       44.189       18.487       21.464     1952.647      341.755      460.689        1.357        0.138      155.606       24.324        0.024      338.662       11.467      866.356
10/28/2014  22:25:00     -102.726      -47.802       -8.239       19.221       18.784       11.156      369.454      352.853      124.467        0.688        0.042      113.304       10.368        0.008      338.628       11.408      866.351
10/28/2014  22:26:00      -94.691      -35.302      -13.191        8.526        9.990        7.636       72.689       99.794       58.312        0.531        0.012      101.058        3.138        0.001      338.692       11.516      866.346
10/28/2014  22:27:00      -85.917      -33.811       -6.686       28.478       15.703        9.937      810.990      246.577       98.752        0.486        0.058       92.331       13.539        0.022      338.733       11.587      866.352
10/28/2014  22:28:00     -107.709      -36.236      -16.946       11.679       12.346       10.252      136.407      152.427      105.106        0.680        0.020      113.641        5.477        0.002      338.883       11.836      866.369
10/28/2014  22:29:00     -128.576      -25.264      -11.975       16.153       12.559       13.306      260.915      157.720      177.056        0.895        0.030      131.034        9.599        0.005      338.751       11.615      866.377
10/28/2014  22:30:00     -129.845       -9.183      -19.356       11.826        9.139        9.517      139.856       83.526       90.573        0.882        0.016      130.170        6.480        0.002      338.696       11.521      866.381
10/28/2014  22:31:00     -129.983       -5.424      -23.753        8.615       15.717        7.794       74.213      247.020       60.740        0.894        0.019      130.096        4.318        0.001      338.790       11.681      866.383
10/28/2014  22:32:00     -103.584      -13.201      -21.483       15.796       10.863        9.625      249.507      117.995       92.640        0.591        0.023      104.421        4.889        0.002      338.832       11.752      866.402
10/28/2014  22:33:00      -78.889      -41.368       -7.984       24.573       27.796       15.185      603.842      772.638      230.584        0.480        0.080       89.077       14.093        0.025      338.700       11.528      866.417
10/28/2014  22:34:00      -73.602      -31.914        0.472       42.926       23.029       17.475     1842.625      530.325      305.392        0.456        0.134       80.223       21.096        0.069      338.645       11.437      866.432
10/28/2014  22:35:00      -96.409      -44.256        1.138       38.914       28.736       17.473     1514.316      825.767      305.296        0.695        0.132      106.081       20.572        0.038      338.509       11.209      866.448
10/28/2014  22:36:00     -119.451      -27.602      -10.674       27.056       28.917       18.881      732.052      836.199      356.493        0.853        0.096      122.599       13.633        0.012      338.480       11.159      866.466
10/28/2014  22:37:00      -68.412        0.463       -0.862       44.948       35.265       21.352     2020.318     1243.615      455.919        0.420        0.186       68.413       20.037        0.086      338.478       11.157      866.476
10/28/2014  22:38:00      -53.666        9.968       -3.186       30.179       29.207       22.773      910.777      853.050      518.609        0.264        0.114       54.584       18.197        0.111      338.626       11.403      866.482
10/28/2014  22:39:00      -67.842       -9.107      -14.359       28.876       20.282       14.177      833.839      411.375      200.989        0.317        0.072       68.451       13.134        0.037      338.630       11.411      866.482
10/28/2014  22:40:00      -81.743      -29.788       -8.206       19.144       14.418       13.111      366.508      207.880      171.891        0.419        0.037       87.001        8.460        0.009      338.528       11.241      866.479
10/28/2014  22:41:00      -63.603      -25.443      -14.002       26.369       19.747       21.095      695.321      389.939      444.992        0.321        0.077       68.503       11.211        0.027      338.453       11.115      866.476
10/28/2014  22:42:00      -34.354      -35.559       -2.912       40.476       23.785       20.714     1638.331      565.720      429.051        0.254        0.132       49.443       21.835        0.195      338.384       10.999      866.468
10/28/2014  22:43:00     -109.670      -54.671       -6.096       23.370       32.116       16.276      546.174     1031.408      264.924        0.845        0.092      122.542       13.759        0.013      338.318       10.888      866.469
10/28/2014  22:44:00     -130.758      -13.084      -16.517       42.361       37.466       25.366     1794.417     1403.703      643.420        1.069        0.192      131.411       19.011        0.021      338.380       10.992      866.482
10/28/2014  22:45:00     -136.917       11.211       -9.979       46.940       42.167       28.261     2203.349     1778.069      798.659        1.187        0.239      137.375       19.193        0.020      338.547       11.273      866.481
10/28/2014  22:46:00     -104.355      -17.150       -8.672       46.306       27.130       25.139     2144.248      736.036      631.986        0.739        0.176      105.755       24.771        0.055      338.495       11.186      866.482
10/28/2014  22:47:00      -88.545      -20.345       -4.633       36.911       34.754       22.135     1362.435     1207.816      489.967        0.567        0.153       90.852       16.405        0.033      338.396       11.019      866.490
10/28/2014  22:48:00      -94.579      -40.569       -2.427       26.021       20.921       15.734      677.080      437.699      247.560        0.598        0.068      102.913       12.900        0.016      338.399       11.024      866.492
10/28/2014  22:49:00     -122.346      -28.872      -10.477       23.397       18.374       13.932      547.418      337.605      194.093        0.850        0.054      125.706       13.270        0.011      338.393       11.014      866.489
10/28/2014  22:50:00     -124.968       -7.241      -14.930       25.370       16.098       12.933      643.662      259.150      167.264        0.848        0.054      125.177        9.540        0.006      338.284       10.832      866.493
10/28/2014  22:51:00      -92.005      -26.204      -13.791       33.493       23.565       13.111     1121.767      555.289      171.902        0.559        0.092       95.664       12.900        0.018      338.309       10.874      866.497
10/28/2014  22:52:00      -67.168       -7.931       -6.874       29.364       23.286       17.192      862.223      542.254      295.556        0.316        0.085       67.635       11.719        0.030      338.539       11.259      866.497
10/28/2014  22:53:00      -84.292       -7.449       -8.945       29.907       21.094       18.915      894.436      444.952      357.775        0.447        0.085       84.621       16.168        0.037      338.603       11.368      866.500
10/28/2014  22:54:00     -118.392       14.466       -8.485       51.239       33.612       21.268     2625.401     1129.780      452.320        0.925        0.210      119.272       19.116        0.026      338.693       11.518      866.514
10/28/2014  22:55:00     -185.345       52.633      -13.056       44.897       28.925       19.335     2015.719      836.646      373.849        2.026        0.161      192.673       15.012        0.006      338.743       11.600      866.533
10/28/2014  22:56:00     -175.206       37.133      -20.467       30.448       34.692       23.362      927.098     1203.554      545.763        1.759        0.134      179.098       17.975        0.010      338.539       11.258      866.538
10/28/2014  22:57:00     -187.611       37.852      -17.511       49.261       46.851       21.181     2426.679     2195.058      448.624        2.100        0.254      191.391       11.857        0.004      338.633       11.414      866.540
10/28/2014  22:58:00     -139.737       46.477      -12.593       33.078       32.241       23.940     1094.159     1039.488      573.118        1.228        0.135      147.263       10.724        0.005      338.568       11.308      866.563
10/28/2014  22:59:00     -103.212        3.834       -7.486       24.830       26.002       16.385      616.522      676.112      268.460        0.614        0.078      103.283       10.509        0.010      338.501       11.196      866.566
10/28/2014  23:00:00      -66.508      -24.362       -9.886       23.534       20.747       16.173      553.850      430.447      261.576        0.318        0.062       70.830        4.553        0.004      338.432       11.080      866.576
10/28/2014  23:01:00      -80.272      -45.739      -12.117       33.812       26.457       20.213     1143.254      699.998      408.559        0.547        0.113       92.388       13.741        0.022      338.331       10.909      866.591
10/28/2014  23:02:00      -74.981      -55.067       -1.788       45.557       28.941       20.523     2075.478      837.557      421.208        0.600        0.167       93.030       20.594        0.049      338.236       10.749      866.591
10/28/2014  23:03:00      -61.955      -40.849       -5.186       44.659       29.600       25.864     1994.410      876.131      668.932        0.454        0.177       74.209       14.136        0.036      338.257       10.785      866.593
10/28/2014  23:04:00      -58.799      -28.621        5.773       51.215       46.870       24.280     2622.994     2196.752      589.524        0.486        0.270       65.395       29.334        0.201      338.274       10.815      866.606
10/28/2014  23:05:00      -84.846       24.569      -14.165       41.583       32.151       20.645     1729.181     1033.708      426.214        0.560        0.159       88.332       17.309        0.038      338.798       11.695      866.611
10/28/2014  23:06:00      -41.480       -7.466       -1.674       51.923       28.162       19.395     2695.965      793.094      376.173        0.282        0.193       42.147       21.495        0.260      338.514       11.217      866.608
10/28/2014  23:07:00      -83.725      -21.431      -13.294       25.569       34.914       16.717      653.794     1218.958      279.463        0.490        0.108       86.424       12.156        0.020      338.572       11.315      866.609
10/28/2014  23:08:00      -46.642      -28.931       -9.216       54.432       33.900       17.436     2962.789     1149.232      304.020        0.376        0.221       54.886       10.299        0.035      338.362       10.962      866.618
10/28/2014  23:09:00      -63.977      -35.963       -2.938       53.164       32.256       24.394     2826.388     1040.434      595.047        0.493        0.223       73.392       21.616        0.087      338.269       10.806      866.635
10/28/2014  23:10:00      -82.962      -45.126       -4.755       73.487       45.352       33.215     5400.352     2056.762     1103.229        0.875        0.428       94.440       31.949        0.114      338.207       10.702      866.642
10/28/2014  23:11:00     -142.452      -70.291       -2.873       48.887       52.214       21.000     2389.897     2726.287      440.985        1.540        0.278      158.850       24.261        0.023      338.188       10.669      866.652
10/28/2014  23:12:00     -119.694      -13.819       -2.838       45.745       28.743       22.463     2092.616      826.135      504.604        0.897        0.171      120.489       24.585        0.042      338.089       10.503      866.660
10/28/2014  23:13:00     -128.043       -8.765       -9.138       37.201       23.429       20.249     1383.894      548.938      410.038        0.945        0.117      128.343       23.544        0.034      338.151       10.608      866.655
10/28/2014  23:14:00      -50.112        0.523        8.175       47.122       24.792       18.278     2220.496      614.620      334.082        0.287        0.158       50.114       13.557        0.073      338.102       10.526      866.635
10/28/2014  23:15:00      -34.052      -11.204        2.017       36.052       23.418       18.014     1299.711      548.416      324.502        0.173        0.109       35.848       19.596        0.299      338.195       10.682      866.626
10/28/2014  23:16:00      -87.712      -35.018       -2.129       43.876       29.377       28.211     1925.125      863.034      795.869        0.625        0.179       94.444       19.861        0.044      338.169       10.637      866.633
10/28/2014  23:17:00      -92.082      -55.116       -7.125       54.013       36.891       20.847     2917.454     1360.961      434.594        0.814        0.236      107.316       14.566        0.018      338.105       10.531      866.639
10/28/2014  23:18:00     -134.072      -14.038       -7.372       53.328       46.372       27.603     2843.873     2150.355      761.915        1.199        0.288      134.804       26.240        0.038      338.106       10.532      866.650
10/28/2014  23:19:00     -130.996      -17.903       -8.524       42.191       36.504       25.171     1780.046     1332.560      633.558        1.065        0.187      132.213       24.949        0.036      338.115       10.546      866.640
10/28/2014  23:20:00     -123.912        2.677      -16.531       44.142       31.799       20.798     1948.526     1011.166      432.573        0.951        0.170      123.941       20.197        0.027      338.072       10.474      866.627
10/28/2014  23:21:00     -116.281      -11.733       -5.551       52.610       37.679       33.039     2767.849     1419.719     1091.554        0.948        0.264      116.871       30.906        0.070      338.228       10.737      866.629
10/28/2014  23:22:00      -68.722      -27.457       -2.120       48.245       40.507       22.457     2327.557     1640.843      504.330        0.498        0.224       74.004       22.142        0.090      338.140       10.589      866.618
10/28/2014  23:23:00     -130.540      -64.515      -12.175       32.053       44.014       19.367     1027.369     1937.194      375.085        1.234        0.167      145.612       15.094        0.011      338.193       10.678      866.606
10/28/2014  23:24:00      -41.307      -42.431        5.406       47.431       28.785       23.554     2249.693      828.594      554.805        0.358        0.182       59.217       27.321        0.213      338.132       10.577      866.605
10/28/2014  23:25:00      -42.175      -21.151        1.119       36.516       18.962       19.171     1333.408      359.548      367.546        0.214        0.103       47.181       21.538        0.208      338.051       10.439      866.600
10/28/2014  23:26:00      -74.625      -28.660       -1.844       26.779       25.750       16.538      717.109      663.048      273.502        0.402        0.083       79.939       15.007        0.035      338.167       10.634      866.600
10/28/2014  23:27:00     -104.987      -25.231       -0.736       28.358       33.058       22.836      804.192     1092.825      521.467        0.704        0.121      107.976       17.873        0.027      338.158       10.618      866.593
10/28/2014  23:28:00     -101.900      -18.689       -8.404       28.288       36.689       20.574      800.220     1346.071      423.302        0.669        0.128      103.599       16.495        0.025      338.189       10.671      866.588
10/28/2014  23:29:00      -54.418        5.303      -12.033       27.141       32.583       19.031      736.630     1061.678      362.189        0.265        0.108       54.676       14.354        0.069      338.134       10.580      866.576
10/28/2014  23:30:00      -61.693        6.517      -10.372       45.199       28.834       22.505     2042.964      831.376      506.474        0.367        0.169       62.036       19.071        0.095      338.099       10.518      866.567
10/28/2014  23:31:00      -52.914        6.431       -1.505       47.712       34.675       26.540     2276.468     1202.361      704.347        0.351        0.209       53.303       22.200        0.173      338.146       10.600      866.557
10/28/2014  23:32:00      -69.510       -4.593       -9.546       31.911       34.149       28.623     1018.317     1166.182      819.271        0.397        0.150       69.661       19.557        0.079      338.176       10.650      866.555
10/28/2014  23:33:00      -84.261      -10.089      -16.781       25.548       24.757       14.036      652.713      612.929      197.015        0.447        0.073       84.863        6.454        0.006      338.163       10.626      866.562
10/28/2014  23:34:00      -75.436      -12.167      -18.072       31.208       26.914       12.788      973.922      724.388      163.532        0.401        0.093       76.411       10.655        0.019      338.168       10.636      866.562
10/28/2014  23:35:00      -77.599      -19.148       -9.696       17.303       17.880       12.132      299.380      319.684      147.179        0.362        0.038       79.926        8.897        0.012      338.141       10.591      866.557
10/28/2014  23:36:00      -69.509      -31.142       -4.939       20.849       18.064       15.784      434.688      326.314      249.141        0.342        0.051       76.167       10.991        0.021      338.079       10.486      866.550
10/28/2014  23:37:00      -82.928      -34.669      -10.052       26.685       20.997       16.485      712.069      440.875      271.766        0.480        0.071       89.883       11.452        0.016      338.010       10.371      866.546
10/28/2014  23:38:00     -109.273      -32.840      -15.549       28.123       30.006       25.665      790.900      900.390      658.692        0.780        0.117      114.101       12.795        0.013      338.004       10.360      866.538
10/28/2014  23:39:00     -121.666      -49.036      -16.513       42.560       26.225       17.761     1811.380      687.726      315.437        1.015        0.141      131.176       16.372        0.016      338.008       10.369      866.530
10/28/2014  23:40:00      -83.316       -7.052       -2.259       42.788       22.833       22.411     1830.810      521.355      502.236        0.492        0.143       83.614       18.042        0.047      338.019       10.388      866.521
10/28/2014  23:41:00      -75.444      -14.053      -10.407       30.445       36.409       16.318      926.874     1325.581      266.289        0.426        0.126       76.742       13.511        0.031      338.117       10.550      866.509
10/28/2014  23:42:00      -85.689      -12.782      -13.697       36.298       22.549       14.365     1317.515      508.448      206.353        0.486        0.102       86.637        8.154        0.009      338.162       10.626      866.497
10/28/2014  23:43:00      -83.820      -18.197       -7.645       40.779       30.787       21.073     1662.927      947.817      444.091        0.523        0.153       85.772       13.995        0.027      338.152       10.609      866.491
10/28/2014  23:44:00      -86.056      -24.969       -1.114       50.218       34.121       20.759     2521.895     1164.238      430.952        0.607        0.206       89.605       18.957        0.045      338.056       10.449      866.502
10/28/2014  23:45:00     -112.271      -49.739       -9.927       33.155       35.965       18.262     1099.286     1293.514      333.511        0.895        0.136      122.796       16.295        0.018      337.981       10.322      866.511
10/28/2014  23:46:00      -50.109      -14.714       -5.781       35.733       25.572       13.536     1276.814      653.950      183.220        0.244        0.106       52.224        9.549        0.033      338.002       10.357      866.508
10/28/2014  23:47:00      -52.558       -3.645        2.976       24.105       22.714       14.559      581.057      515.903      211.973        0.205        0.065       52.684        8.663        0.027      338.001       10.356      866.506
10/28/2014  23:48:00      -35.259       -5.312       -0.660       24.247       20.029       15.133      587.918      401.179      228.993        0.124        0.061       35.657       11.332        0.101      338.044       10.429      866.511
10/28/2014  23:49:00      -91.205      -22.305      -10.310       41.010       21.250       16.431     1681.807      451.583      269.980        0.566        0.120       93.893       14.427        0.024      338.026       10.398      866.529
10/28/2014  23:50:00      -92.400       -2.268       -7.192       31.131       22.497       20.769      969.167      506.114      431.360        0.525        0.095       92.427       19.425        0.044      337.946       10.264      866.532
10/28/2014  23:51:00      -99.677       -2.125       -8.289       39.870       31.147       19.914     1589.593      970.131      396.562        0.648        0.148       99.699       21.922        0.048      337.944       10.261      866.538
10/28/2014  23:52:00      -54.928       -3.069       -5.567       24.259       28.443       15.538      588.488      809.020      241.437        0.235        0.082       55.013       14.494        0.069      337.928       10.236      866.533
10/28/2014  23:53:00      -56.894      -14.597       -3.741       21.584       19.417       11.860      465.866      377.028      140.662        0.222        0.049       58.737        4.863        0.007      337.985       10.328      866.546
10/28/2014  23:54:00      -40.671      -20.663       -6.402       41.407       30.590       19.884     1714.504      935.749      395.364        0.258        0.152       45.619       17.860        0.153      337.903       10.189      866.553
10/28/2014  23:55:00      -57.667      -41.541       -8.659       36.410       24.612       28.097     1325.722      605.739      789.449        0.392        0.136       71.072       21.644        0.093      337.850       10.103      866.560
10/28/2014  23:56:00      -96.236      -44.774      -23.320       23.444       23.718       15.649      549.600      562.522      244.898        0.658        0.068      106.142        9.132        0.007      337.843       10.090      866.562
10/28/2014  23:57:00     -128.111      -68.028      -21.698       35.189       27.299       20.661     1238.283      745.228      426.875        1.196        0.121      145.053        7.038        0.002      337.780        9.986      866.558
10/28/2014  23:58:00     -158.755      -51.672      -14.101       24.728       18.380       14.087      611.467      337.829      198.433        1.461        0.057      166.952        9.173        0.003      337.735        9.911      866.543
10/28/2014  23:59:00     -129.151      -38.762       -7.305       21.502       25.811       15.965      462.323      666.187      254.880        0.981        0.069      134.842        3.481        0.001      337.772        9.973      866.529
